<?xml version="1.0" encoding="UTF-8" standalone="no" ?>
<gpx xmlns="http://www.topografix.com/GPX/1/1" xmlns:xsi="http://www.w3.org/2001/XMLSchema-instance" xsi:schemaLocation="http://www.topografix.com/GPX/1/1 http://www.topografix.com/GPX/1/1/gpx.xsd" version="1.1" creator="VisuGPX - https://www.visugpx.com">
  <metadata>
    <name>Comboire par chemin</name>
    <desc><![CDATA[A faire entre 12h et 14h !]]></desc>
  </metadata>
  <trk>
    <name><![CDATA[Comboire glissant]]></name>
    <trkseg>
      <trkpt lat="45.15998" lon="5.69888">
        <ele>237.80000305176</ele>
        <time>2015-03-31T10:12:35.000Z</time>
      </trkpt>
      <trkpt lat="45.15994" lon="5.69882">
        <ele>237.80000305176</ele>
        <time>2015-03-31T10:12:38.000Z</time>
      </trkpt>
      <trkpt lat="45.15988" lon="5.69877">
        <ele>237.80000305176</ele>
        <time>2015-03-31T10:12:41.000Z</time>
      </trkpt>
      <trkpt lat="45.15984" lon="5.69876">
        <ele>237.80000305176</ele>
        <time>2015-03-31T10:12:43.000Z</time>
      </trkpt>
      <trkpt lat="45.15979" lon="5.69875">
        <ele>236</ele>
        <time>2015-03-31T10:12:45.000Z</time>
      </trkpt>
      <trkpt lat="45.15975" lon="5.69874">
        <ele>236.39999389648</ele>
        <time>2015-03-31T10:12:47.000Z</time>
      </trkpt>
      <trkpt lat="45.15969" lon="5.69873">
        <ele>236.39999389648</ele>
        <time>2015-03-31T10:12:49.000Z</time>
      </trkpt>
      <trkpt lat="45.15965" lon="5.69873">
        <ele>236.39999389648</ele>
        <time>2015-03-31T10:12:51.000Z</time>
      </trkpt>
      <trkpt lat="45.15954" lon="5.69873">
        <ele>236.19999694824</ele>
        <time>2015-03-31T10:12:56.000Z</time>
      </trkpt>
      <trkpt lat="45.15949" lon="5.69872">
        <ele>236.19999694824</ele>
        <time>2015-03-31T10:12:58.000Z</time>
      </trkpt>
      <trkpt lat="45.15944" lon="5.69872">
        <ele>236.19999694824</ele>
        <time>2015-03-31T10:13:00.000Z</time>
      </trkpt>
      <trkpt lat="45.15938" lon="5.69872">
        <ele>236.19999694824</ele>
        <time>2015-03-31T10:13:02.000Z</time>
      </trkpt>
      <trkpt lat="45.15933" lon="5.69872">
        <ele>236.19999694824</ele>
        <time>2015-03-31T10:13:04.000Z</time>
      </trkpt>
      <trkpt lat="45.15927" lon="5.69872">
        <ele>236.19999694824</ele>
        <time>2015-03-31T10:13:06.000Z</time>
      </trkpt>
      <trkpt lat="45.15921" lon="5.69871">
        <ele>236.19999694824</ele>
        <time>2015-03-31T10:13:08.000Z</time>
      </trkpt>
      <trkpt lat="45.15916" lon="5.69871">
        <ele>236.19999694824</ele>
        <time>2015-03-31T10:13:10.000Z</time>
      </trkpt>
      <trkpt lat="45.15911" lon="5.6987">
        <ele>236.19999694824</ele>
        <time>2015-03-31T10:13:12.000Z</time>
      </trkpt>
      <trkpt lat="45.15908" lon="5.6987">
        <ele>236.19999694824</ele>
        <time>2015-03-31T10:13:13.000Z</time>
      </trkpt>
      <trkpt lat="45.159" lon="5.69862">
        <ele>236.19999694824</ele>
        <time>2015-03-31T10:13:17.000Z</time>
      </trkpt>
      <trkpt lat="45.15895" lon="5.69857">
        <ele>236.19999694824</ele>
        <time>2015-03-31T10:13:19.000Z</time>
      </trkpt>
      <trkpt lat="45.15891" lon="5.69852">
        <ele>236.19999694824</ele>
        <time>2015-03-31T10:13:21.000Z</time>
      </trkpt>
      <trkpt lat="45.15886" lon="5.69848">
        <ele>236.19999694824</ele>
        <time>2015-03-31T10:13:23.000Z</time>
      </trkpt>
      <trkpt lat="45.15882" lon="5.69843">
        <ele>236.19999694824</ele>
        <time>2015-03-31T10:13:25.000Z</time>
      </trkpt>
      <trkpt lat="45.15878" lon="5.69838">
        <ele>236.19999694824</ele>
        <time>2015-03-31T10:13:27.000Z</time>
      </trkpt>
      <trkpt lat="45.15873" lon="5.69833">
        <ele>236.19999694824</ele>
        <time>2015-03-31T10:13:29.000Z</time>
      </trkpt>
      <trkpt lat="45.15868" lon="5.69831">
        <ele>236.19999694824</ele>
        <time>2015-03-31T10:13:31.000Z</time>
      </trkpt>
      <trkpt lat="45.15863" lon="5.69829">
        <ele>236.19999694824</ele>
        <time>2015-03-31T10:13:33.000Z</time>
      </trkpt>
      <trkpt lat="45.15858" lon="5.69827">
        <ele>236.19999694824</ele>
        <time>2015-03-31T10:13:35.000Z</time>
      </trkpt>
      <trkpt lat="45.15853" lon="5.69825">
        <ele>236.19999694824</ele>
        <time>2015-03-31T10:13:37.000Z</time>
      </trkpt>
      <trkpt lat="45.15848" lon="5.69822">
        <ele>236.19999694824</ele>
        <time>2015-03-31T10:13:39.000Z</time>
      </trkpt>
      <trkpt lat="45.15842" lon="5.69819">
        <ele>236.19999694824</ele>
        <time>2015-03-31T10:13:41.000Z</time>
      </trkpt>
      <trkpt lat="45.15837" lon="5.69816">
        <ele>236.19999694824</ele>
        <time>2015-03-31T10:13:43.000Z</time>
      </trkpt>
      <trkpt lat="45.15832" lon="5.69814">
        <ele>236.19999694824</ele>
        <time>2015-03-31T10:13:45.000Z</time>
      </trkpt>
      <trkpt lat="45.15827" lon="5.69811">
        <ele>236.19999694824</ele>
        <time>2015-03-31T10:13:47.000Z</time>
      </trkpt>
      <trkpt lat="45.15822" lon="5.69808">
        <ele>236.19999694824</ele>
        <time>2015-03-31T10:13:49.000Z</time>
      </trkpt>
      <trkpt lat="45.15817" lon="5.69804">
        <ele>236.19999694824</ele>
        <time>2015-03-31T10:13:51.000Z</time>
      </trkpt>
      <trkpt lat="45.15811" lon="5.698">
        <ele>236.19999694824</ele>
        <time>2015-03-31T10:13:53.000Z</time>
      </trkpt>
      <trkpt lat="45.15806" lon="5.69798">
        <ele>236.19999694824</ele>
        <time>2015-03-31T10:13:55.000Z</time>
      </trkpt>
      <trkpt lat="45.15798" lon="5.69794">
        <ele>236.19999694824</ele>
        <time>2015-03-31T10:13:58.000Z</time>
      </trkpt>
      <trkpt lat="45.15793" lon="5.69791">
        <ele>236.19999694824</ele>
        <time>2015-03-31T10:14:00.000Z</time>
      </trkpt>
      <trkpt lat="45.15788" lon="5.69789">
        <ele>236.19999694824</ele>
        <time>2015-03-31T10:14:02.000Z</time>
      </trkpt>
      <trkpt lat="45.15783" lon="5.69786">
        <ele>236.19999694824</ele>
        <time>2015-03-31T10:14:04.000Z</time>
      </trkpt>
      <trkpt lat="45.15778" lon="5.69785">
        <ele>236.19999694824</ele>
        <time>2015-03-31T10:14:06.000Z</time>
      </trkpt>
      <trkpt lat="45.15773" lon="5.69782">
        <ele>236.19999694824</ele>
        <time>2015-03-31T10:14:08.000Z</time>
      </trkpt>
      <trkpt lat="45.15767" lon="5.6978">
        <ele>236.19999694824</ele>
        <time>2015-03-31T10:14:10.000Z</time>
      </trkpt>
      <trkpt lat="45.15762" lon="5.69777">
        <ele>236.39999389648</ele>
        <time>2015-03-31T10:14:12.000Z</time>
      </trkpt>
      <trkpt lat="45.15757" lon="5.69774">
        <ele>236.60000610352</ele>
        <time>2015-03-31T10:14:14.000Z</time>
      </trkpt>
      <trkpt lat="45.15752" lon="5.69772">
        <ele>237</ele>
        <time>2015-03-31T10:14:16.000Z</time>
      </trkpt>
      <trkpt lat="45.15747" lon="5.6977">
        <ele>237.19999694824</ele>
        <time>2015-03-31T10:14:18.000Z</time>
      </trkpt>
      <trkpt lat="45.15743" lon="5.69767">
        <ele>237.39999389648</ele>
        <time>2015-03-31T10:14:20.000Z</time>
      </trkpt>
      <trkpt lat="45.15738" lon="5.69764">
        <ele>237.39999389648</ele>
        <time>2015-03-31T10:14:22.000Z</time>
      </trkpt>
      <trkpt lat="45.15733" lon="5.69761">
        <ele>237.60000610352</ele>
        <time>2015-03-31T10:14:24.000Z</time>
      </trkpt>
      <trkpt lat="45.15728" lon="5.69757">
        <ele>237.80000305176</ele>
        <time>2015-03-31T10:14:26.000Z</time>
      </trkpt>
      <trkpt lat="45.15723" lon="5.69754">
        <ele>237.80000305176</ele>
        <time>2015-03-31T10:14:28.000Z</time>
      </trkpt>
      <trkpt lat="45.15718" lon="5.69751">
        <ele>237.80000305176</ele>
        <time>2015-03-31T10:14:30.000Z</time>
      </trkpt>
      <trkpt lat="45.15713" lon="5.69749">
        <ele>238</ele>
        <time>2015-03-31T10:14:32.000Z</time>
      </trkpt>
      <trkpt lat="45.15708" lon="5.69746">
        <ele>238</ele>
        <time>2015-03-31T10:14:34.000Z</time>
      </trkpt>
      <trkpt lat="45.15703" lon="5.69743">
        <ele>238</ele>
        <time>2015-03-31T10:14:36.000Z</time>
      </trkpt>
      <trkpt lat="45.15698" lon="5.6974">
        <ele>238</ele>
        <time>2015-03-31T10:14:38.000Z</time>
      </trkpt>
      <trkpt lat="45.15693" lon="5.69736">
        <ele>238</ele>
        <time>2015-03-31T10:14:40.000Z</time>
      </trkpt>
      <trkpt lat="45.15688" lon="5.69734">
        <ele>238</ele>
        <time>2015-03-31T10:14:42.000Z</time>
      </trkpt>
      <trkpt lat="45.15682" lon="5.69731">
        <ele>238</ele>
        <time>2015-03-31T10:14:44.000Z</time>
      </trkpt>
      <trkpt lat="45.15677" lon="5.69729">
        <ele>238</ele>
        <time>2015-03-31T10:14:46.000Z</time>
      </trkpt>
      <trkpt lat="45.1567" lon="5.69725">
        <ele>238</ele>
        <time>2015-03-31T10:14:49.000Z</time>
      </trkpt>
      <trkpt lat="45.15663" lon="5.6972">
        <ele>238.19999694824</ele>
        <time>2015-03-31T10:14:52.000Z</time>
      </trkpt>
      <trkpt lat="45.15657" lon="5.69717">
        <ele>238.19999694824</ele>
        <time>2015-03-31T10:14:54.000Z</time>
      </trkpt>
      <trkpt lat="45.15653" lon="5.69715">
        <ele>238.39999389648</ele>
        <time>2015-03-31T10:14:56.000Z</time>
      </trkpt>
      <trkpt lat="45.15648" lon="5.69712">
        <ele>238.80000305176</ele>
        <time>2015-03-31T10:14:58.000Z</time>
      </trkpt>
      <trkpt lat="45.15642" lon="5.69709">
        <ele>239</ele>
        <time>2015-03-31T10:15:00.000Z</time>
      </trkpt>
      <trkpt lat="45.15637" lon="5.69706">
        <ele>239.19999694824</ele>
        <time>2015-03-31T10:15:02.000Z</time>
      </trkpt>
      <trkpt lat="45.15632" lon="5.69703">
        <ele>239.39999389648</ele>
        <time>2015-03-31T10:15:04.000Z</time>
      </trkpt>
      <trkpt lat="45.15627" lon="5.69701">
        <ele>239.60000610352</ele>
        <time>2015-03-31T10:15:06.000Z</time>
      </trkpt>
      <trkpt lat="45.15622" lon="5.69698">
        <ele>239.60000610352</ele>
        <time>2015-03-31T10:15:08.000Z</time>
      </trkpt>
      <trkpt lat="45.15617" lon="5.69696">
        <ele>239.80000305176</ele>
        <time>2015-03-31T10:15:10.000Z</time>
      </trkpt>
      <trkpt lat="45.15613" lon="5.69693">
        <ele>239.80000305176</ele>
        <time>2015-03-31T10:15:12.000Z</time>
      </trkpt>
      <trkpt lat="45.15607" lon="5.6969">
        <ele>239.80000305176</ele>
        <time>2015-03-31T10:15:14.000Z</time>
      </trkpt>
      <trkpt lat="45.15602" lon="5.69688">
        <ele>240</ele>
        <time>2015-03-31T10:15:16.000Z</time>
      </trkpt>
      <trkpt lat="45.15597" lon="5.69685">
        <ele>240</ele>
        <time>2015-03-31T10:15:18.000Z</time>
      </trkpt>
      <trkpt lat="45.15592" lon="5.69682">
        <ele>240</ele>
        <time>2015-03-31T10:15:20.000Z</time>
      </trkpt>
      <trkpt lat="45.15587" lon="5.69681">
        <ele>240</ele>
        <time>2015-03-31T10:15:22.000Z</time>
      </trkpt>
      <trkpt lat="45.15582" lon="5.69678">
        <ele>240</ele>
        <time>2015-03-31T10:15:24.000Z</time>
      </trkpt>
      <trkpt lat="45.15577" lon="5.69674">
        <ele>240</ele>
        <time>2015-03-31T10:15:26.000Z</time>
      </trkpt>
      <trkpt lat="45.15573" lon="5.69669">
        <ele>240</ele>
        <time>2015-03-31T10:15:28.000Z</time>
      </trkpt>
      <trkpt lat="45.15567" lon="5.69664">
        <ele>240.60000610352</ele>
        <time>2015-03-31T10:15:31.000Z</time>
      </trkpt>
      <trkpt lat="45.15562" lon="5.69661">
        <ele>241</ele>
        <time>2015-03-31T10:15:33.000Z</time>
      </trkpt>
      <trkpt lat="45.15558" lon="5.69656">
        <ele>241.19999694824</ele>
        <time>2015-03-31T10:15:35.000Z</time>
      </trkpt>
      <trkpt lat="45.15553" lon="5.69653">
        <ele>241.39999389648</ele>
        <time>2015-03-31T10:15:37.000Z</time>
      </trkpt>
      <trkpt lat="45.15549" lon="5.69648">
        <ele>241.60000610352</ele>
        <time>2015-03-31T10:15:39.000Z</time>
      </trkpt>
      <trkpt lat="45.15544" lon="5.69644">
        <ele>241.60000610352</ele>
        <time>2015-03-31T10:15:41.000Z</time>
      </trkpt>
      <trkpt lat="45.1554" lon="5.6964">
        <ele>241.80000305176</ele>
        <time>2015-03-31T10:15:43.000Z</time>
      </trkpt>
      <trkpt lat="45.15536" lon="5.69637">
        <ele>241.80000305176</ele>
        <time>2015-03-31T10:15:45.000Z</time>
      </trkpt>
      <trkpt lat="45.15531" lon="5.69633">
        <ele>242</ele>
        <time>2015-03-31T10:15:47.000Z</time>
      </trkpt>
      <trkpt lat="45.15526" lon="5.69627">
        <ele>242</ele>
        <time>2015-03-31T10:15:50.000Z</time>
      </trkpt>
      <trkpt lat="45.15518" lon="5.6962">
        <ele>242.60000610352</ele>
        <time>2015-03-31T10:15:53.000Z</time>
      </trkpt>
      <trkpt lat="45.15512" lon="5.69615">
        <ele>243</ele>
        <time>2015-03-31T10:15:56.000Z</time>
      </trkpt>
      <trkpt lat="45.15506" lon="5.69611">
        <ele>243.19999694824</ele>
        <time>2015-03-31T10:15:58.000Z</time>
      </trkpt>
      <trkpt lat="45.155" lon="5.69608">
        <ele>243.39999389648</ele>
        <time>2015-03-31T10:16:00.000Z</time>
      </trkpt>
      <trkpt lat="45.15495" lon="5.69604">
        <ele>243.60000610352</ele>
        <time>2015-03-31T10:16:02.000Z</time>
      </trkpt>
      <trkpt lat="45.15489" lon="5.69599">
        <ele>243.80000305176</ele>
        <time>2015-03-31T10:16:04.000Z</time>
      </trkpt>
      <trkpt lat="45.15485" lon="5.69594">
        <ele>243.80000305176</ele>
        <time>2015-03-31T10:16:06.000Z</time>
      </trkpt>
      <trkpt lat="45.15481" lon="5.6959">
        <ele>243.80000305176</ele>
        <time>2015-03-31T10:16:08.000Z</time>
      </trkpt>
      <trkpt lat="45.15476" lon="5.69584">
        <ele>244</ele>
        <time>2015-03-31T10:16:10.000Z</time>
      </trkpt>
      <trkpt lat="45.15473" lon="5.69578">
        <ele>244</ele>
        <time>2015-03-31T10:16:12.000Z</time>
      </trkpt>
      <trkpt lat="45.15469" lon="5.69572">
        <ele>244</ele>
        <time>2015-03-31T10:16:14.000Z</time>
      </trkpt>
      <trkpt lat="45.15465" lon="5.69565">
        <ele>244</ele>
        <time>2015-03-31T10:16:16.000Z</time>
      </trkpt>
      <trkpt lat="45.15463" lon="5.69563">
        <ele>244</ele>
        <time>2015-03-31T10:16:17.000Z</time>
      </trkpt>
      <trkpt lat="45.15458" lon="5.69558">
        <ele>244.19999694824</ele>
        <time>2015-03-31T10:16:19.000Z</time>
      </trkpt>
      <trkpt lat="45.15454" lon="5.69552">
        <ele>244.19999694824</ele>
        <time>2015-03-31T10:16:21.000Z</time>
      </trkpt>
      <trkpt lat="45.1545" lon="5.69547">
        <ele>244.19999694824</ele>
        <time>2015-03-31T10:16:23.000Z</time>
      </trkpt>
      <trkpt lat="45.15447" lon="5.6954">
        <ele>244.19999694824</ele>
        <time>2015-03-31T10:16:25.000Z</time>
      </trkpt>
      <trkpt lat="45.15443" lon="5.69532">
        <ele>244.19999694824</ele>
        <time>2015-03-31T10:16:28.000Z</time>
      </trkpt>
      <trkpt lat="45.15441" lon="5.69523">
        <ele>244.19999694824</ele>
        <time>2015-03-31T10:16:31.000Z</time>
      </trkpt>
      <trkpt lat="45.15439" lon="5.69514">
        <ele>244.19999694824</ele>
        <time>2015-03-31T10:16:34.000Z</time>
      </trkpt>
      <trkpt lat="45.15436" lon="5.69508">
        <ele>244.19999694824</ele>
        <time>2015-03-31T10:16:36.000Z</time>
      </trkpt>
      <trkpt lat="45.15432" lon="5.69499">
        <ele>244.19999694824</ele>
        <time>2015-03-31T10:16:39.000Z</time>
      </trkpt>
      <trkpt lat="45.15429" lon="5.69493">
        <ele>244.19999694824</ele>
        <time>2015-03-31T10:16:41.000Z</time>
      </trkpt>
      <trkpt lat="45.15425" lon="5.69485">
        <ele>244.19999694824</ele>
        <time>2015-03-31T10:16:44.000Z</time>
      </trkpt>
      <trkpt lat="45.15422" lon="5.69479">
        <ele>244.19999694824</ele>
        <time>2015-03-31T10:16:46.000Z</time>
      </trkpt>
      <trkpt lat="45.15419" lon="5.69474">
        <ele>244.19999694824</ele>
        <time>2015-03-31T10:16:48.000Z</time>
      </trkpt>
      <trkpt lat="45.15415" lon="5.69468">
        <ele>244.19999694824</ele>
        <time>2015-03-31T10:16:50.000Z</time>
      </trkpt>
      <trkpt lat="45.15412" lon="5.69463">
        <ele>244.19999694824</ele>
        <time>2015-03-31T10:16:52.000Z</time>
      </trkpt>
      <trkpt lat="45.15409" lon="5.69457">
        <ele>244.19999694824</ele>
        <time>2015-03-31T10:16:54.000Z</time>
      </trkpt>
      <trkpt lat="45.15403" lon="5.69448">
        <ele>244.19999694824</ele>
        <time>2015-03-31T10:16:57.000Z</time>
      </trkpt>
      <trkpt lat="45.154" lon="5.69442">
        <ele>244.19999694824</ele>
        <time>2015-03-31T10:16:59.000Z</time>
      </trkpt>
      <trkpt lat="45.15396" lon="5.69436">
        <ele>244.19999694824</ele>
        <time>2015-03-31T10:17:01.000Z</time>
      </trkpt>
      <trkpt lat="45.15394" lon="5.69434">
        <ele>244.19999694824</ele>
        <time>2015-03-31T10:17:02.000Z</time>
      </trkpt>
      <trkpt lat="45.1539" lon="5.69425">
        <ele>244.19999694824</ele>
        <time>2015-03-31T10:17:05.000Z</time>
      </trkpt>
      <trkpt lat="45.15389" lon="5.69422">
        <ele>244.19999694824</ele>
        <time>2015-03-31T10:17:06.000Z</time>
      </trkpt>
      <trkpt lat="45.15383" lon="5.6941">
        <ele>244.19999694824</ele>
        <time>2015-03-31T10:17:10.000Z</time>
      </trkpt>
      <trkpt lat="45.15381" lon="5.69404">
        <ele>244.19999694824</ele>
        <time>2015-03-31T10:17:12.000Z</time>
      </trkpt>
      <trkpt lat="45.15378" lon="5.69397">
        <ele>244.19999694824</ele>
        <time>2015-03-31T10:17:14.000Z</time>
      </trkpt>
      <trkpt lat="45.15375" lon="5.6939">
        <ele>244.19999694824</ele>
        <time>2015-03-31T10:17:16.000Z</time>
      </trkpt>
      <trkpt lat="45.15372" lon="5.69384">
        <ele>244.19999694824</ele>
        <time>2015-03-31T10:17:18.000Z</time>
      </trkpt>
      <trkpt lat="45.15369" lon="5.69377">
        <ele>244.19999694824</ele>
        <time>2015-03-31T10:17:20.000Z</time>
      </trkpt>
      <trkpt lat="45.15367" lon="5.69371">
        <ele>244.19999694824</ele>
        <time>2015-03-31T10:17:22.000Z</time>
      </trkpt>
      <trkpt lat="45.15364" lon="5.69365">
        <ele>244.19999694824</ele>
        <time>2015-03-31T10:17:24.000Z</time>
      </trkpt>
      <trkpt lat="45.15361" lon="5.69358">
        <ele>244.19999694824</ele>
        <time>2015-03-31T10:17:26.000Z</time>
      </trkpt>
      <trkpt lat="45.15357" lon="5.69349">
        <ele>244.19999694824</ele>
        <time>2015-03-31T10:17:29.000Z</time>
      </trkpt>
      <trkpt lat="45.15355" lon="5.69343">
        <ele>244.19999694824</ele>
        <time>2015-03-31T10:17:31.000Z</time>
      </trkpt>
      <trkpt lat="45.15351" lon="5.69335">
        <ele>244.19999694824</ele>
        <time>2015-03-31T10:17:34.000Z</time>
      </trkpt>
      <trkpt lat="45.15348" lon="5.69326">
        <ele>244.19999694824</ele>
        <time>2015-03-31T10:17:37.000Z</time>
      </trkpt>
      <trkpt lat="45.15345" lon="5.6932">
        <ele>244.19999694824</ele>
        <time>2015-03-31T10:17:39.000Z</time>
      </trkpt>
      <trkpt lat="45.15342" lon="5.69314">
        <ele>244.19999694824</ele>
        <time>2015-03-31T10:17:41.000Z</time>
      </trkpt>
      <trkpt lat="45.15338" lon="5.69306">
        <ele>244.19999694824</ele>
        <time>2015-03-31T10:17:44.000Z</time>
      </trkpt>
      <trkpt lat="45.15336" lon="5.693">
        <ele>244.19999694824</ele>
        <time>2015-03-31T10:17:46.000Z</time>
      </trkpt>
      <trkpt lat="45.15333" lon="5.69291">
        <ele>244.19999694824</ele>
        <time>2015-03-31T10:17:49.000Z</time>
      </trkpt>
      <trkpt lat="45.15329" lon="5.69283">
        <ele>244.19999694824</ele>
        <time>2015-03-31T10:17:52.000Z</time>
      </trkpt>
      <trkpt lat="45.15326" lon="5.69276">
        <ele>244.19999694824</ele>
        <time>2015-03-31T10:17:54.000Z</time>
      </trkpt>
      <trkpt lat="45.15323" lon="5.6927">
        <ele>244.19999694824</ele>
        <time>2015-03-31T10:17:56.000Z</time>
      </trkpt>
      <trkpt lat="45.15321" lon="5.69263">
        <ele>244.19999694824</ele>
        <time>2015-03-31T10:17:58.000Z</time>
      </trkpt>
      <trkpt lat="45.15318" lon="5.69256">
        <ele>243.80000305176</ele>
        <time>2015-03-31T10:18:00.000Z</time>
      </trkpt>
      <trkpt lat="45.15316" lon="5.69249">
        <ele>243.60000610352</ele>
        <time>2015-03-31T10:18:02.000Z</time>
      </trkpt>
      <trkpt lat="45.15312" lon="5.6924">
        <ele>243.19999694824</ele>
        <time>2015-03-31T10:18:05.000Z</time>
      </trkpt>
      <trkpt lat="45.15309" lon="5.69235">
        <ele>243</ele>
        <time>2015-03-31T10:18:07.000Z</time>
      </trkpt>
      <trkpt lat="45.15305" lon="5.69229">
        <ele>242.80000305176</ele>
        <time>2015-03-31T10:18:09.000Z</time>
      </trkpt>
      <trkpt lat="45.15302" lon="5.69224">
        <ele>242.80000305176</ele>
        <time>2015-03-31T10:18:11.000Z</time>
      </trkpt>
      <trkpt lat="45.15299" lon="5.69218">
        <ele>242.60000610352</ele>
        <time>2015-03-31T10:18:13.000Z</time>
      </trkpt>
      <trkpt lat="45.15296" lon="5.69213">
        <ele>242.60000610352</ele>
        <time>2015-03-31T10:18:15.000Z</time>
      </trkpt>
      <trkpt lat="45.15293" lon="5.69206">
        <ele>242.39999389648</ele>
        <time>2015-03-31T10:18:17.000Z</time>
      </trkpt>
      <trkpt lat="45.15288" lon="5.69199">
        <ele>242.39999389648</ele>
        <time>2015-03-31T10:18:20.000Z</time>
      </trkpt>
      <trkpt lat="45.15285" lon="5.69194">
        <ele>242.39999389648</ele>
        <time>2015-03-31T10:18:22.000Z</time>
      </trkpt>
      <trkpt lat="45.15281" lon="5.69188">
        <ele>242.39999389648</ele>
        <time>2015-03-31T10:18:24.000Z</time>
      </trkpt>
      <trkpt lat="45.15277" lon="5.69182">
        <ele>242.19999694824</ele>
        <time>2015-03-31T10:18:26.000Z</time>
      </trkpt>
      <trkpt lat="45.15274" lon="5.69175">
        <ele>242.19999694824</ele>
        <time>2015-03-31T10:18:28.000Z</time>
      </trkpt>
      <trkpt lat="45.1527" lon="5.6917">
        <ele>242.19999694824</ele>
        <time>2015-03-31T10:18:30.000Z</time>
      </trkpt>
      <trkpt lat="45.15266" lon="5.69163">
        <ele>242.19999694824</ele>
        <time>2015-03-31T10:18:32.000Z</time>
      </trkpt>
      <trkpt lat="45.15263" lon="5.69156">
        <ele>242.19999694824</ele>
        <time>2015-03-31T10:18:34.000Z</time>
      </trkpt>
      <trkpt lat="45.15259" lon="5.6915">
        <ele>242.19999694824</ele>
        <time>2015-03-31T10:18:36.000Z</time>
      </trkpt>
      <trkpt lat="45.15256" lon="5.69144">
        <ele>242.19999694824</ele>
        <time>2015-03-31T10:18:38.000Z</time>
      </trkpt>
      <trkpt lat="45.15253" lon="5.69138">
        <ele>242.19999694824</ele>
        <time>2015-03-31T10:18:40.000Z</time>
      </trkpt>
      <trkpt lat="45.1525" lon="5.69133">
        <ele>242.19999694824</ele>
        <time>2015-03-31T10:18:42.000Z</time>
      </trkpt>
      <trkpt lat="45.15246" lon="5.69128">
        <ele>242.19999694824</ele>
        <time>2015-03-31T10:18:44.000Z</time>
      </trkpt>
      <trkpt lat="45.15241" lon="5.69121">
        <ele>242.19999694824</ele>
        <time>2015-03-31T10:18:47.000Z</time>
      </trkpt>
      <trkpt lat="45.15237" lon="5.69116">
        <ele>242.19999694824</ele>
        <time>2015-03-31T10:18:49.000Z</time>
      </trkpt>
      <trkpt lat="45.15234" lon="5.69111">
        <ele>242.19999694824</ele>
        <time>2015-03-31T10:18:51.000Z</time>
      </trkpt>
      <trkpt lat="45.15228" lon="5.69104">
        <ele>242.19999694824</ele>
        <time>2015-03-31T10:18:54.000Z</time>
      </trkpt>
      <trkpt lat="45.15219" lon="5.69093">
        <ele>242.19999694824</ele>
        <time>2015-03-31T10:18:59.000Z</time>
      </trkpt>
      <trkpt lat="45.15215" lon="5.69086">
        <ele>242.19999694824</ele>
        <time>2015-03-31T10:19:01.000Z</time>
      </trkpt>
      <trkpt lat="45.15211" lon="5.69082">
        <ele>242.39999389648</ele>
        <time>2015-03-31T10:19:03.000Z</time>
      </trkpt>
      <trkpt lat="45.15206" lon="5.69076">
        <ele>242.80000305176</ele>
        <time>2015-03-31T10:19:05.000Z</time>
      </trkpt>
      <trkpt lat="45.15202" lon="5.69071">
        <ele>243</ele>
        <time>2015-03-31T10:19:07.000Z</time>
      </trkpt>
      <trkpt lat="45.15198" lon="5.69066">
        <ele>243.19999694824</ele>
        <time>2015-03-31T10:19:09.000Z</time>
      </trkpt>
      <trkpt lat="45.15194" lon="5.69061">
        <ele>243.39999389648</ele>
        <time>2015-03-31T10:19:11.000Z</time>
      </trkpt>
      <trkpt lat="45.15189" lon="5.69056">
        <ele>243.60000610352</ele>
        <time>2015-03-31T10:19:13.000Z</time>
      </trkpt>
      <trkpt lat="45.15185" lon="5.69051">
        <ele>243.80000305176</ele>
        <time>2015-03-31T10:19:15.000Z</time>
      </trkpt>
      <trkpt lat="45.15181" lon="5.69046">
        <ele>243.80000305176</ele>
        <time>2015-03-31T10:19:17.000Z</time>
      </trkpt>
      <trkpt lat="45.15177" lon="5.69042">
        <ele>244</ele>
        <time>2015-03-31T10:19:19.000Z</time>
      </trkpt>
      <trkpt lat="45.15173" lon="5.69037">
        <ele>244.19999694824</ele>
        <time>2015-03-31T10:19:21.000Z</time>
      </trkpt>
      <trkpt lat="45.15169" lon="5.69032">
        <ele>244.60000610352</ele>
        <time>2015-03-31T10:19:23.000Z</time>
      </trkpt>
      <trkpt lat="45.15165" lon="5.69028">
        <ele>245</ele>
        <time>2015-03-31T10:19:25.000Z</time>
      </trkpt>
      <trkpt lat="45.15162" lon="5.69023">
        <ele>245.19999694824</ele>
        <time>2015-03-31T10:19:27.000Z</time>
      </trkpt>
      <trkpt lat="45.15158" lon="5.69017">
        <ele>245.39999389648</ele>
        <time>2015-03-31T10:19:29.000Z</time>
      </trkpt>
      <trkpt lat="45.15155" lon="5.69016">
        <ele>245.60000610352</ele>
        <time>2015-03-31T10:19:30.000Z</time>
      </trkpt>
      <trkpt lat="45.15149" lon="5.69008">
        <ele>245.80000305176</ele>
        <time>2015-03-31T10:19:33.000Z</time>
      </trkpt>
      <trkpt lat="45.15145" lon="5.69003">
        <ele>246</ele>
        <time>2015-03-31T10:19:35.000Z</time>
      </trkpt>
      <trkpt lat="45.1514" lon="5.68999">
        <ele>246</ele>
        <time>2015-03-31T10:19:37.000Z</time>
      </trkpt>
      <trkpt lat="45.15136" lon="5.68994">
        <ele>246</ele>
        <time>2015-03-31T10:19:39.000Z</time>
      </trkpt>
      <trkpt lat="45.15132" lon="5.6899">
        <ele>246.19999694824</ele>
        <time>2015-03-31T10:19:41.000Z</time>
      </trkpt>
      <trkpt lat="45.15128" lon="5.68985">
        <ele>246.19999694824</ele>
        <time>2015-03-31T10:19:43.000Z</time>
      </trkpt>
      <trkpt lat="45.15124" lon="5.6898">
        <ele>246.60000610352</ele>
        <time>2015-03-31T10:19:45.000Z</time>
      </trkpt>
      <trkpt lat="45.15119" lon="5.68975">
        <ele>247</ele>
        <time>2015-03-31T10:19:47.000Z</time>
      </trkpt>
      <trkpt lat="45.15115" lon="5.68971">
        <ele>247.19999694824</ele>
        <time>2015-03-31T10:19:49.000Z</time>
      </trkpt>
      <trkpt lat="45.1511" lon="5.68967">
        <ele>247.39999389648</ele>
        <time>2015-03-31T10:19:51.000Z</time>
      </trkpt>
      <trkpt lat="45.15103" lon="5.68959">
        <ele>247.80000305176</ele>
        <time>2015-03-31T10:19:54.000Z</time>
      </trkpt>
      <trkpt lat="45.15097" lon="5.68953">
        <ele>248</ele>
        <time>2015-03-31T10:19:57.000Z</time>
      </trkpt>
      <trkpt lat="45.15092" lon="5.68949">
        <ele>248</ele>
        <time>2015-03-31T10:19:59.000Z</time>
      </trkpt>
      <trkpt lat="45.15087" lon="5.68946">
        <ele>248.19999694824</ele>
        <time>2015-03-31T10:20:01.000Z</time>
      </trkpt>
      <trkpt lat="45.15082" lon="5.68943">
        <ele>248.19999694824</ele>
        <time>2015-03-31T10:20:03.000Z</time>
      </trkpt>
      <trkpt lat="45.15076" lon="5.68938">
        <ele>248.39999389648</ele>
        <time>2015-03-31T10:20:05.000Z</time>
      </trkpt>
      <trkpt lat="45.15072" lon="5.68934">
        <ele>248.80000305176</ele>
        <time>2015-03-31T10:20:07.000Z</time>
      </trkpt>
      <trkpt lat="45.15067" lon="5.68932">
        <ele>249.19999694824</ele>
        <time>2015-03-31T10:20:09.000Z</time>
      </trkpt>
      <trkpt lat="45.15061" lon="5.6893">
        <ele>249.39999389648</ele>
        <time>2015-03-31T10:20:11.000Z</time>
      </trkpt>
      <trkpt lat="45.15056" lon="5.68927">
        <ele>249.60000610352</ele>
        <time>2015-03-31T10:20:13.000Z</time>
      </trkpt>
      <trkpt lat="45.15051" lon="5.68924">
        <ele>249.80000305176</ele>
        <time>2015-03-31T10:20:15.000Z</time>
      </trkpt>
      <trkpt lat="45.15046" lon="5.6892">
        <ele>250</ele>
        <time>2015-03-31T10:20:17.000Z</time>
      </trkpt>
      <trkpt lat="45.15042" lon="5.68917">
        <ele>250</ele>
        <time>2015-03-31T10:20:19.000Z</time>
      </trkpt>
      <trkpt lat="45.15037" lon="5.68914">
        <ele>250.19999694824</ele>
        <time>2015-03-31T10:20:21.000Z</time>
      </trkpt>
      <trkpt lat="45.15032" lon="5.6891">
        <ele>250.19999694824</ele>
        <time>2015-03-31T10:20:23.000Z</time>
      </trkpt>
      <trkpt lat="45.15027" lon="5.689">
        <ele>250.39999389648</ele>
        <time>2015-03-31T10:20:26.000Z</time>
      </trkpt>
      <trkpt lat="45.15024" lon="5.68894">
        <ele>250.39999389648</ele>
        <time>2015-03-31T10:20:28.000Z</time>
      </trkpt>
      <trkpt lat="45.15023" lon="5.68892">
        <ele>250.39999389648</ele>
        <time>2015-03-31T10:20:29.000Z</time>
      </trkpt>
      <trkpt lat="45.15021" lon="5.68882">
        <ele>250.39999389648</ele>
        <time>2015-03-31T10:20:33.000Z</time>
      </trkpt>
      <trkpt lat="45.15021" lon="5.6888">
        <ele>250.60000610352</ele>
        <time>2015-03-31T10:20:34.000Z</time>
      </trkpt>
      <trkpt lat="45.15025" lon="5.68873">
        <ele>251.19999694824</ele>
        <time>2015-03-31T10:20:37.000Z</time>
      </trkpt>
      <trkpt lat="45.15026" lon="5.68871">
        <ele>251.39999389648</ele>
        <time>2015-03-31T10:20:38.000Z</time>
      </trkpt>
      <trkpt lat="45.15028" lon="5.68871">
        <ele>251.39999389648</ele>
        <time>2015-03-31T10:20:39.000Z</time>
      </trkpt>
      <trkpt lat="45.15033" lon="5.68873">
        <ele>251.80000305176</ele>
        <time>2015-03-31T10:20:42.000Z</time>
      </trkpt>
      <trkpt lat="45.15038" lon="5.68876">
        <ele>252</ele>
        <time>2015-03-31T10:20:45.000Z</time>
      </trkpt>
      <trkpt lat="45.15043" lon="5.68878">
        <ele>252</ele>
        <time>2015-03-31T10:20:47.000Z</time>
      </trkpt>
      <trkpt lat="45.15047" lon="5.6888">
        <ele>252.19999694824</ele>
        <time>2015-03-31T10:20:49.000Z</time>
      </trkpt>
      <trkpt lat="45.1505" lon="5.68882">
        <ele>252.19999694824</ele>
        <time>2015-03-31T10:20:51.000Z</time>
      </trkpt>
      <trkpt lat="45.15056" lon="5.68885">
        <ele>252.39999389648</ele>
        <time>2015-03-31T10:20:54.000Z</time>
      </trkpt>
      <trkpt lat="45.15062" lon="5.68887">
        <ele>252.39999389648</ele>
        <time>2015-03-31T10:20:57.000Z</time>
      </trkpt>
      <trkpt lat="45.15064" lon="5.68888">
        <ele>252.39999389648</ele>
        <time>2015-03-31T10:20:58.000Z</time>
      </trkpt>
      <trkpt lat="45.15072" lon="5.68893">
        <ele>252.39999389648</ele>
        <time>2015-03-31T10:21:02.000Z</time>
      </trkpt>
      <trkpt lat="45.15074" lon="5.68894">
        <ele>252.39999389648</ele>
        <time>2015-03-31T10:21:03.000Z</time>
      </trkpt>
      <trkpt lat="45.15076" lon="5.68896">
        <ele>252.39999389648</ele>
        <time>2015-03-31T10:21:04.000Z</time>
      </trkpt>
      <trkpt lat="45.15085" lon="5.689">
        <ele>252.60000610352</ele>
        <time>2015-03-31T10:21:08.000Z</time>
      </trkpt>
      <trkpt lat="45.15091" lon="5.689">
        <ele>252.60000610352</ele>
        <time>2015-03-31T10:21:11.000Z</time>
      </trkpt>
      <trkpt lat="45.15097" lon="5.68899">
        <ele>252.60000610352</ele>
        <time>2015-03-31T10:21:14.000Z</time>
      </trkpt>
      <trkpt lat="45.15102" lon="5.689">
        <ele>252.60000610352</ele>
        <time>2015-03-31T10:21:16.000Z</time>
      </trkpt>
      <trkpt lat="45.15104" lon="5.68901">
        <ele>252.60000610352</ele>
        <time>2015-03-31T10:21:17.000Z</time>
      </trkpt>
      <trkpt lat="45.1511" lon="5.68901">
        <ele>252.60000610352</ele>
        <time>2015-03-31T10:21:20.000Z</time>
      </trkpt>
      <trkpt lat="45.15111" lon="5.68901">
        <ele>252.60000610352</ele>
        <time>2015-03-31T10:21:21.000Z</time>
      </trkpt>
      <trkpt lat="45.15118" lon="5.68904">
        <ele>252.60000610352</ele>
        <time>2015-03-31T10:21:25.000Z</time>
      </trkpt>
      <trkpt lat="45.15124" lon="5.68906">
        <ele>252.60000610352</ele>
        <time>2015-03-31T10:21:28.000Z</time>
      </trkpt>
      <trkpt lat="45.15125" lon="5.68907">
        <ele>252.60000610352</ele>
        <time>2015-03-31T10:21:29.000Z</time>
      </trkpt>
      <trkpt lat="45.15132" lon="5.68911">
        <ele>252.60000610352</ele>
        <time>2015-03-31T10:21:33.000Z</time>
      </trkpt>
      <trkpt lat="45.15139" lon="5.68911">
        <ele>253.19999694824</ele>
        <time>2015-03-31T10:21:36.000Z</time>
      </trkpt>
      <trkpt lat="45.1514" lon="5.68911">
        <ele>253.19999694824</ele>
        <time>2015-03-31T10:21:37.000Z</time>
      </trkpt>
      <trkpt lat="45.15147" lon="5.6891">
        <ele>253.80000305176</ele>
        <time>2015-03-31T10:21:41.000Z</time>
      </trkpt>
      <trkpt lat="45.15149" lon="5.68909">
        <ele>253.80000305176</ele>
        <time>2015-03-31T10:21:42.000Z</time>
      </trkpt>
      <trkpt lat="45.15156" lon="5.68905">
        <ele>254</ele>
        <time>2015-03-31T10:21:46.000Z</time>
      </trkpt>
      <trkpt lat="45.15162" lon="5.68901">
        <ele>254.19999694824</ele>
        <time>2015-03-31T10:21:49.000Z</time>
      </trkpt>
      <trkpt lat="45.15166" lon="5.68899">
        <ele>254.60000610352</ele>
        <time>2015-03-31T10:21:51.000Z</time>
      </trkpt>
      <trkpt lat="45.1517" lon="5.68892">
        <ele>255.39999389648</ele>
        <time>2015-03-31T10:21:55.000Z</time>
      </trkpt>
      <trkpt lat="45.15177" lon="5.68889">
        <ele>255.60000610352</ele>
        <time>2015-03-31T10:21:58.000Z</time>
      </trkpt>
      <trkpt lat="45.15183" lon="5.68886">
        <ele>256</ele>
        <time>2015-03-31T10:22:01.000Z</time>
      </trkpt>
      <trkpt lat="45.15185" lon="5.68886">
        <ele>256.20001220703</ele>
        <time>2015-03-31T10:22:02.000Z</time>
      </trkpt>
      <trkpt lat="45.15192" lon="5.68888">
        <ele>256.79998779297</ele>
        <time>2015-03-31T10:22:05.000Z</time>
      </trkpt>
      <trkpt lat="45.15197" lon="5.6889">
        <ele>257.20001220703</ele>
        <time>2015-03-31T10:22:07.000Z</time>
      </trkpt>
      <trkpt lat="45.15202" lon="5.68892">
        <ele>257.60000610352</ele>
        <time>2015-03-31T10:22:09.000Z</time>
      </trkpt>
      <trkpt lat="45.15207" lon="5.68894">
        <ele>257.79998779297</ele>
        <time>2015-03-31T10:22:11.000Z</time>
      </trkpt>
      <trkpt lat="45.15212" lon="5.68897">
        <ele>258.20001220703</ele>
        <time>2015-03-31T10:22:13.000Z</time>
      </trkpt>
      <trkpt lat="45.15218" lon="5.68901">
        <ele>259</ele>
        <time>2015-03-31T10:22:16.000Z</time>
      </trkpt>
      <trkpt lat="45.15223" lon="5.68903">
        <ele>259.20001220703</ele>
        <time>2015-03-31T10:22:18.000Z</time>
      </trkpt>
      <trkpt lat="45.15228" lon="5.68906">
        <ele>259.60000610352</ele>
        <time>2015-03-31T10:22:20.000Z</time>
      </trkpt>
      <trkpt lat="45.15232" lon="5.68908">
        <ele>259.79998779297</ele>
        <time>2015-03-31T10:22:22.000Z</time>
      </trkpt>
      <trkpt lat="45.15236" lon="5.68911">
        <ele>260</ele>
        <time>2015-03-31T10:22:24.000Z</time>
      </trkpt>
      <trkpt lat="45.15241" lon="5.68914">
        <ele>260.39999389648</ele>
        <time>2015-03-31T10:22:26.000Z</time>
      </trkpt>
      <trkpt lat="45.15246" lon="5.68917">
        <ele>261</ele>
        <time>2015-03-31T10:22:28.000Z</time>
      </trkpt>
      <trkpt lat="45.1525" lon="5.68919">
        <ele>261.39999389648</ele>
        <time>2015-03-31T10:22:30.000Z</time>
      </trkpt>
      <trkpt lat="45.15255" lon="5.68921">
        <ele>261.60000610352</ele>
        <time>2015-03-31T10:22:32.000Z</time>
      </trkpt>
      <trkpt lat="45.15259" lon="5.68925">
        <ele>262</ele>
        <time>2015-03-31T10:22:34.000Z</time>
      </trkpt>
      <trkpt lat="45.15265" lon="5.68929">
        <ele>262.20001220703</ele>
        <time>2015-03-31T10:22:37.000Z</time>
      </trkpt>
      <trkpt lat="45.15267" lon="5.68931">
        <ele>262.20001220703</ele>
        <time>2015-03-31T10:22:38.000Z</time>
      </trkpt>
      <trkpt lat="45.15275" lon="5.68932">
        <ele>263</ele>
        <time>2015-03-31T10:22:42.000Z</time>
      </trkpt>
      <trkpt lat="45.15281" lon="5.68931">
        <ele>263.60000610352</ele>
        <time>2015-03-31T10:22:45.000Z</time>
      </trkpt>
      <trkpt lat="45.15286" lon="5.68928">
        <ele>263.79998779297</ele>
        <time>2015-03-31T10:22:47.000Z</time>
      </trkpt>
      <trkpt lat="45.15291" lon="5.68922">
        <ele>264.20001220703</ele>
        <time>2015-03-31T10:22:50.000Z</time>
      </trkpt>
      <trkpt lat="45.15294" lon="5.68918">
        <ele>264.20001220703</ele>
        <time>2015-03-31T10:22:52.000Z</time>
      </trkpt>
      <trkpt lat="45.15298" lon="5.68913">
        <ele>265</ele>
        <time>2015-03-31T10:22:54.000Z</time>
      </trkpt>
      <trkpt lat="45.15303" lon="5.68907">
        <ele>265.60000610352</ele>
        <time>2015-03-31T10:22:57.000Z</time>
      </trkpt>
      <trkpt lat="45.15309" lon="5.68901">
        <ele>266</ele>
        <time>2015-03-31T10:23:00.000Z</time>
      </trkpt>
      <trkpt lat="45.15314" lon="5.68895">
        <ele>266.79998779297</ele>
        <time>2015-03-31T10:23:03.000Z</time>
      </trkpt>
      <trkpt lat="45.15319" lon="5.6889">
        <ele>267.39999389648</ele>
        <time>2015-03-31T10:23:06.000Z</time>
      </trkpt>
      <trkpt lat="45.15324" lon="5.68886">
        <ele>268</ele>
        <time>2015-03-31T10:23:09.000Z</time>
      </trkpt>
      <trkpt lat="45.15329" lon="5.68882">
        <ele>268.39999389648</ele>
        <time>2015-03-31T10:23:12.000Z</time>
      </trkpt>
      <trkpt lat="45.15334" lon="5.6888">
        <ele>269</ele>
        <time>2015-03-31T10:23:14.000Z</time>
      </trkpt>
      <trkpt lat="45.15339" lon="5.68877">
        <ele>269.60000610352</ele>
        <time>2015-03-31T10:23:17.000Z</time>
      </trkpt>
      <trkpt lat="45.15341" lon="5.68875">
        <ele>269.79998779297</ele>
        <time>2015-03-31T10:23:18.000Z</time>
      </trkpt>
      <trkpt lat="45.15345" lon="5.6887">
        <ele>270.20001220703</ele>
        <time>2015-03-31T10:23:21.000Z</time>
      </trkpt>
      <trkpt lat="45.15351" lon="5.68867">
        <ele>271</ele>
        <time>2015-03-31T10:23:24.000Z</time>
      </trkpt>
      <trkpt lat="45.15355" lon="5.68865">
        <ele>271.60000610352</ele>
        <time>2015-03-31T10:23:27.000Z</time>
      </trkpt>
      <trkpt lat="45.1536" lon="5.68862">
        <ele>272.20001220703</ele>
        <time>2015-03-31T10:23:30.000Z</time>
      </trkpt>
      <trkpt lat="45.15364" lon="5.68858">
        <ele>272.79998779297</ele>
        <time>2015-03-31T10:23:33.000Z</time>
      </trkpt>
      <trkpt lat="45.15365" lon="5.68857">
        <ele>273</ele>
        <time>2015-03-31T10:23:34.000Z</time>
      </trkpt>
      <trkpt lat="45.15367" lon="5.68855">
        <ele>273.60000610352</ele>
        <time>2015-03-31T10:23:36.000Z</time>
      </trkpt>
      <trkpt lat="45.15373" lon="5.68855">
        <ele>274.39999389648</ele>
        <time>2015-03-31T10:23:40.000Z</time>
      </trkpt>
      <trkpt lat="45.15376" lon="5.68854">
        <ele>274.79998779297</ele>
        <time>2015-03-31T10:23:42.000Z</time>
      </trkpt>
      <trkpt lat="45.1538" lon="5.68853">
        <ele>275.39999389648</ele>
        <time>2015-03-31T10:23:44.000Z</time>
      </trkpt>
      <trkpt lat="45.15388" lon="5.68849">
        <ele>276.20001220703</ele>
        <time>2015-03-31T10:23:48.000Z</time>
      </trkpt>
      <trkpt lat="45.15393" lon="5.68846">
        <ele>276.79998779297</ele>
        <time>2015-03-31T10:23:51.000Z</time>
      </trkpt>
      <trkpt lat="45.154" lon="5.68843">
        <ele>277.79998779297</ele>
        <time>2015-03-31T10:23:54.000Z</time>
      </trkpt>
      <trkpt lat="45.15402" lon="5.68842">
        <ele>278</ele>
        <time>2015-03-31T10:23:55.000Z</time>
      </trkpt>
      <trkpt lat="45.15407" lon="5.68842">
        <ele>278.39999389648</ele>
        <time>2015-03-31T10:23:58.000Z</time>
      </trkpt>
      <trkpt lat="45.15413" lon="5.68839">
        <ele>279.39999389648</ele>
        <time>2015-03-31T10:24:01.000Z</time>
      </trkpt>
      <trkpt lat="45.15416" lon="5.68833">
        <ele>280</ele>
        <time>2015-03-31T10:24:04.000Z</time>
      </trkpt>
      <trkpt lat="45.1542" lon="5.68826">
        <ele>280.60000610352</ele>
        <time>2015-03-31T10:24:07.000Z</time>
      </trkpt>
      <trkpt lat="45.15422" lon="5.68824">
        <ele>281</ele>
        <time>2015-03-31T10:24:08.000Z</time>
      </trkpt>
      <trkpt lat="45.15424" lon="5.68816">
        <ele>282</ele>
        <time>2015-03-31T10:24:12.000Z</time>
      </trkpt>
      <trkpt lat="45.15424" lon="5.68811">
        <ele>282.60000610352</ele>
        <time>2015-03-31T10:24:15.000Z</time>
      </trkpt>
      <trkpt lat="45.15427" lon="5.68807">
        <ele>283.20001220703</ele>
        <time>2015-03-31T10:24:19.000Z</time>
      </trkpt>
      <trkpt lat="45.15428" lon="5.688">
        <ele>284.20001220703</ele>
        <time>2015-03-31T10:24:23.000Z</time>
      </trkpt>
      <trkpt lat="45.1543" lon="5.68795">
        <ele>284.79998779297</ele>
        <time>2015-03-31T10:24:26.000Z</time>
      </trkpt>
      <trkpt lat="45.1543" lon="5.68792">
        <ele>285</ele>
        <time>2015-03-31T10:24:27.000Z</time>
      </trkpt>
      <trkpt lat="45.15432" lon="5.68786">
        <ele>285.20001220703</ele>
        <time>2015-03-31T10:24:30.000Z</time>
      </trkpt>
      <trkpt lat="45.15433" lon="5.68783">
        <ele>285.39999389648</ele>
        <time>2015-03-31T10:24:32.000Z</time>
      </trkpt>
      <trkpt lat="45.15437" lon="5.68773">
        <ele>285.79998779297</ele>
        <time>2015-03-31T10:24:36.000Z</time>
      </trkpt>
      <trkpt lat="45.15438" lon="5.6877">
        <ele>285.79998779297</ele>
        <time>2015-03-31T10:24:37.000Z</time>
      </trkpt>
      <trkpt lat="45.15439" lon="5.68763">
        <ele>286</ele>
        <time>2015-03-31T10:24:40.000Z</time>
      </trkpt>
      <trkpt lat="45.15439" lon="5.6876">
        <ele>286.20001220703</ele>
        <time>2015-03-31T10:24:41.000Z</time>
      </trkpt>
      <trkpt lat="45.15437" lon="5.68756">
        <ele>286.60000610352</ele>
        <time>2015-03-31T10:24:43.000Z</time>
      </trkpt>
      <trkpt lat="45.15433" lon="5.68755">
        <ele>287</ele>
        <time>2015-03-31T10:24:46.000Z</time>
      </trkpt>
      <trkpt lat="45.15431" lon="5.68759">
        <ele>287.39999389648</ele>
        <time>2015-03-31T10:24:49.000Z</time>
      </trkpt>
      <trkpt lat="45.15431" lon="5.6876">
        <ele>287.39999389648</ele>
        <time>2015-03-31T10:24:51.000Z</time>
      </trkpt>
      <trkpt lat="45.15429" lon="5.68762">
        <ele>287.60000610352</ele>
        <time>2015-03-31T10:24:53.000Z</time>
      </trkpt>
      <trkpt lat="45.15427" lon="5.68764">
        <ele>288</ele>
        <time>2015-03-31T10:24:58.000Z</time>
      </trkpt>
      <trkpt lat="45.15421" lon="5.68762">
        <ele>288</ele>
        <time>2015-03-31T10:25:02.000Z</time>
      </trkpt>
      <trkpt lat="45.15417" lon="5.6876">
        <ele>288.20001220703</ele>
        <time>2015-03-31T10:25:05.000Z</time>
      </trkpt>
      <trkpt lat="45.15414" lon="5.68758">
        <ele>288.20001220703</ele>
        <time>2015-03-31T10:25:07.000Z</time>
      </trkpt>
      <trkpt lat="45.15409" lon="5.68758">
        <ele>288.60000610352</ele>
        <time>2015-03-31T10:25:11.000Z</time>
      </trkpt>
      <trkpt lat="45.15407" lon="5.68753">
        <ele>289.20001220703</ele>
        <time>2015-03-31T10:25:15.000Z</time>
      </trkpt>
      <trkpt lat="45.15407" lon="5.68751">
        <ele>289.39999389648</ele>
        <time>2015-03-31T10:25:16.000Z</time>
      </trkpt>
      <trkpt lat="45.15407" lon="5.68748">
        <ele>289.60000610352</ele>
        <time>2015-03-31T10:25:18.000Z</time>
      </trkpt>
      <trkpt lat="45.15407" lon="5.68744">
        <ele>289.60000610352</ele>
        <time>2015-03-31T10:25:20.000Z</time>
      </trkpt>
      <trkpt lat="45.15408" lon="5.68742">
        <ele>289.79998779297</ele>
        <time>2015-03-31T10:25:21.000Z</time>
      </trkpt>
      <trkpt lat="45.15409" lon="5.68737">
        <ele>289.79998779297</ele>
        <time>2015-03-31T10:25:24.000Z</time>
      </trkpt>
      <trkpt lat="45.15409" lon="5.68733">
        <ele>290</ele>
        <time>2015-03-31T10:25:26.000Z</time>
      </trkpt>
      <trkpt lat="45.15409" lon="5.68728">
        <ele>290</ele>
        <time>2015-03-31T10:25:29.000Z</time>
      </trkpt>
      <trkpt lat="45.15409" lon="5.68722">
        <ele>290.20001220703</ele>
        <time>2015-03-31T10:25:33.000Z</time>
      </trkpt>
      <trkpt lat="45.15409" lon="5.68717">
        <ele>291</ele>
        <time>2015-03-31T10:25:37.000Z</time>
      </trkpt>
      <trkpt lat="45.15409" lon="5.68714">
        <ele>291.20001220703</ele>
        <time>2015-03-31T10:25:39.000Z</time>
      </trkpt>
      <trkpt lat="45.15408" lon="5.6871">
        <ele>291.60000610352</ele>
        <time>2015-03-31T10:25:43.000Z</time>
      </trkpt>
      <trkpt lat="45.15406" lon="5.68704">
        <ele>292</ele>
        <time>2015-03-31T10:25:47.000Z</time>
      </trkpt>
      <trkpt lat="45.15407" lon="5.68702">
        <ele>292.39999389648</ele>
        <time>2015-03-31T10:25:49.000Z</time>
      </trkpt>
      <trkpt lat="45.15407" lon="5.68696">
        <ele>293.20001220703</ele>
        <time>2015-03-31T10:25:53.000Z</time>
      </trkpt>
      <trkpt lat="45.15406" lon="5.68689">
        <ele>293.79998779297</ele>
        <time>2015-03-31T10:25:57.000Z</time>
      </trkpt>
      <trkpt lat="45.15406" lon="5.68688">
        <ele>294</ele>
        <time>2015-03-31T10:25:58.000Z</time>
      </trkpt>
      <trkpt lat="45.15406" lon="5.68683">
        <ele>294.79998779297</ele>
        <time>2015-03-31T10:26:02.000Z</time>
      </trkpt>
      <trkpt lat="45.15407" lon="5.68682">
        <ele>295</ele>
        <time>2015-03-31T10:26:03.000Z</time>
      </trkpt>
      <trkpt lat="45.15407" lon="5.68677">
        <ele>295.39999389648</ele>
        <time>2015-03-31T10:26:06.000Z</time>
      </trkpt>
      <trkpt lat="45.15409" lon="5.6867">
        <ele>296.60000610352</ele>
        <time>2015-03-31T10:26:10.000Z</time>
      </trkpt>
      <trkpt lat="45.15409" lon="5.68665">
        <ele>297.20001220703</ele>
        <time>2015-03-31T10:26:14.000Z</time>
      </trkpt>
      <trkpt lat="45.15409" lon="5.6866">
        <ele>298.20001220703</ele>
        <time>2015-03-31T10:26:18.000Z</time>
      </trkpt>
      <trkpt lat="45.15408" lon="5.68655">
        <ele>299</ele>
        <time>2015-03-31T10:26:22.000Z</time>
      </trkpt>
      <trkpt lat="45.15407" lon="5.68654">
        <ele>299.20001220703</ele>
        <time>2015-03-31T10:26:23.000Z</time>
      </trkpt>
      <trkpt lat="45.15406" lon="5.68651">
        <ele>299.60000610352</ele>
        <time>2015-03-31T10:26:25.000Z</time>
      </trkpt>
      <trkpt lat="45.15405" lon="5.68644">
        <ele>300.60000610352</ele>
        <time>2015-03-31T10:26:29.000Z</time>
      </trkpt>
      <trkpt lat="45.15405" lon="5.68639">
        <ele>301.39999389648</ele>
        <time>2015-03-31T10:26:33.000Z</time>
      </trkpt>
      <trkpt lat="45.15404" lon="5.68635">
        <ele>302.20001220703</ele>
        <time>2015-03-31T10:26:37.000Z</time>
      </trkpt>
      <trkpt lat="45.15401" lon="5.68631">
        <ele>303</ele>
        <time>2015-03-31T10:26:40.000Z</time>
      </trkpt>
      <trkpt lat="45.15399" lon="5.68628">
        <ele>303.39999389648</ele>
        <time>2015-03-31T10:26:43.000Z</time>
      </trkpt>
      <trkpt lat="45.15396" lon="5.68623">
        <ele>303.79998779297</ele>
        <time>2015-03-31T10:26:46.000Z</time>
      </trkpt>
      <trkpt lat="45.15396" lon="5.68619">
        <ele>304.20001220703</ele>
        <time>2015-03-31T10:26:48.000Z</time>
      </trkpt>
      <trkpt lat="45.15395" lon="5.68609">
        <ele>305.20001220703</ele>
        <time>2015-03-31T10:26:52.000Z</time>
      </trkpt>
      <trkpt lat="45.15392" lon="5.68601">
        <ele>305.79998779297</ele>
        <time>2015-03-31T10:26:55.000Z</time>
      </trkpt>
      <trkpt lat="45.15388" lon="5.68595">
        <ele>306.60000610352</ele>
        <time>2015-03-31T10:26:58.000Z</time>
      </trkpt>
      <trkpt lat="45.15384" lon="5.6859">
        <ele>307.39999389648</ele>
        <time>2015-03-31T10:27:01.000Z</time>
      </trkpt>
      <trkpt lat="45.1538" lon="5.68584">
        <ele>308.20001220703</ele>
        <time>2015-03-31T10:27:04.000Z</time>
      </trkpt>
      <trkpt lat="45.15375" lon="5.6858">
        <ele>309.20001220703</ele>
        <time>2015-03-31T10:27:07.000Z</time>
      </trkpt>
      <trkpt lat="45.1537" lon="5.68576">
        <ele>310.20001220703</ele>
        <time>2015-03-31T10:27:10.000Z</time>
      </trkpt>
      <trkpt lat="45.15364" lon="5.68574">
        <ele>311</ele>
        <time>2015-03-31T10:27:13.000Z</time>
      </trkpt>
      <trkpt lat="45.15359" lon="5.68573">
        <ele>312</ele>
        <time>2015-03-31T10:27:16.000Z</time>
      </trkpt>
      <trkpt lat="45.15357" lon="5.68573">
        <ele>312.39999389648</ele>
        <time>2015-03-31T10:27:17.000Z</time>
      </trkpt>
      <trkpt lat="45.1535" lon="5.68576">
        <ele>313.60000610352</ele>
        <time>2015-03-31T10:27:21.000Z</time>
      </trkpt>
      <trkpt lat="45.15348" lon="5.68576">
        <ele>313.79998779297</ele>
        <time>2015-03-31T10:27:22.000Z</time>
      </trkpt>
      <trkpt lat="45.15345" lon="5.68577">
        <ele>314.20001220703</ele>
        <time>2015-03-31T10:27:23.000Z</time>
      </trkpt>
      <trkpt lat="45.15341" lon="5.68582">
        <ele>315.20001220703</ele>
        <time>2015-03-31T10:27:26.000Z</time>
      </trkpt>
      <trkpt lat="45.15336" lon="5.68589">
        <ele>315.79998779297</ele>
        <time>2015-03-31T10:27:29.000Z</time>
      </trkpt>
      <trkpt lat="45.15333" lon="5.68595">
        <ele>316.79998779297</ele>
        <time>2015-03-31T10:27:32.000Z</time>
      </trkpt>
      <trkpt lat="45.1533" lon="5.686">
        <ele>317.39999389648</ele>
        <time>2015-03-31T10:27:34.000Z</time>
      </trkpt>
      <trkpt lat="45.15326" lon="5.68609">
        <ele>318</ele>
        <time>2015-03-31T10:27:36.000Z</time>
      </trkpt>
      <trkpt lat="45.15323" lon="5.68616">
        <ele>318.39999389648</ele>
        <time>2015-03-31T10:27:38.000Z</time>
      </trkpt>
      <trkpt lat="45.15319" lon="5.68623">
        <ele>318.60000610352</ele>
        <time>2015-03-31T10:27:40.000Z</time>
      </trkpt>
      <trkpt lat="45.15315" lon="5.68629">
        <ele>319.20001220703</ele>
        <time>2015-03-31T10:27:42.000Z</time>
      </trkpt>
      <trkpt lat="45.15311" lon="5.68633">
        <ele>319.79998779297</ele>
        <time>2015-03-31T10:27:44.000Z</time>
      </trkpt>
      <trkpt lat="45.15306" lon="5.68637">
        <ele>320.20001220703</ele>
        <time>2015-03-31T10:27:46.000Z</time>
      </trkpt>
      <trkpt lat="45.15301" lon="5.6864">
        <ele>320.79998779297</ele>
        <time>2015-03-31T10:27:49.000Z</time>
      </trkpt>
      <trkpt lat="45.15298" lon="5.6864">
        <ele>321</ele>
        <time>2015-03-31T10:27:51.000Z</time>
      </trkpt>
      <trkpt lat="45.15292" lon="5.68638">
        <ele>321.39999389648</ele>
        <time>2015-03-31T10:27:54.000Z</time>
      </trkpt>
      <trkpt lat="45.15288" lon="5.68637">
        <ele>322.20001220703</ele>
        <time>2015-03-31T10:27:57.000Z</time>
      </trkpt>
      <trkpt lat="45.15283" lon="5.68636">
        <ele>322.79998779297</ele>
        <time>2015-03-31T10:28:00.000Z</time>
      </trkpt>
      <trkpt lat="45.15278" lon="5.68634">
        <ele>323.20001220703</ele>
        <time>2015-03-31T10:28:03.000Z</time>
      </trkpt>
      <trkpt lat="45.15274" lon="5.68632">
        <ele>323.79998779297</ele>
        <time>2015-03-31T10:28:06.000Z</time>
      </trkpt>
      <trkpt lat="45.15273" lon="5.68632">
        <ele>324</ele>
        <time>2015-03-31T10:28:07.000Z</time>
      </trkpt>
      <trkpt lat="45.15268" lon="5.68636">
        <ele>324.79998779297</ele>
        <time>2015-03-31T10:28:11.000Z</time>
      </trkpt>
      <trkpt lat="45.15266" lon="5.68643">
        <ele>325.20001220703</ele>
        <time>2015-03-31T10:28:14.000Z</time>
      </trkpt>
      <trkpt lat="45.15263" lon="5.68647">
        <ele>325.60000610352</ele>
        <time>2015-03-31T10:28:17.000Z</time>
      </trkpt>
      <trkpt lat="45.1526" lon="5.68647">
        <ele>325.79998779297</ele>
        <time>2015-03-31T10:28:20.000Z</time>
      </trkpt>
      <trkpt lat="45.15256" lon="5.68649">
        <ele>326</ele>
        <time>2015-03-31T10:28:23.000Z</time>
      </trkpt>
      <trkpt lat="45.15251" lon="5.6865">
        <ele>326</ele>
        <time>2015-03-31T10:28:26.000Z</time>
      </trkpt>
      <trkpt lat="45.15248" lon="5.68648">
        <ele>326.60000610352</ele>
        <time>2015-03-31T10:28:29.000Z</time>
      </trkpt>
      <trkpt lat="45.15246" lon="5.68645">
        <ele>327</ele>
        <time>2015-03-31T10:28:32.000Z</time>
      </trkpt>
      <trkpt lat="45.15244" lon="5.68639">
        <ele>327.60000610352</ele>
        <time>2015-03-31T10:28:36.000Z</time>
      </trkpt>
      <trkpt lat="45.15244" lon="5.68638">
        <ele>327.60000610352</ele>
        <time>2015-03-31T10:28:37.000Z</time>
      </trkpt>
      <trkpt lat="45.15242" lon="5.68636">
        <ele>327.79998779297</ele>
        <time>2015-03-31T10:28:39.000Z</time>
      </trkpt>
      <trkpt lat="45.15239" lon="5.68634">
        <ele>328</ele>
        <time>2015-03-31T10:28:44.000Z</time>
      </trkpt>
      <trkpt lat="45.15238" lon="5.68634">
        <ele>328</ele>
        <time>2015-03-31T10:28:45.000Z</time>
      </trkpt>
      <trkpt lat="45.15236" lon="5.68627">
        <ele>328.20001220703</ele>
        <time>2015-03-31T10:28:50.000Z</time>
      </trkpt>
      <trkpt lat="45.15234" lon="5.68622">
        <ele>328.20001220703</ele>
        <time>2015-03-31T10:28:53.000Z</time>
      </trkpt>
      <trkpt lat="45.15234" lon="5.68622">
        <ele>328.39999389648</ele>
        <time>2015-03-31T10:28:54.000Z</time>
      </trkpt>
      <trkpt lat="45.15234" lon="5.6862">
        <ele>328.79998779297</ele>
        <time>2015-03-31T10:28:56.000Z</time>
      </trkpt>
      <trkpt lat="45.15233" lon="5.68614">
        <ele>329.60000610352</ele>
        <time>2015-03-31T10:29:03.000Z</time>
      </trkpt>
      <trkpt lat="45.15232" lon="5.6861">
        <ele>330</ele>
        <time>2015-03-31T10:29:08.000Z</time>
      </trkpt>
      <trkpt lat="45.15228" lon="5.68606">
        <ele>330.20001220703</ele>
        <time>2015-03-31T10:29:13.000Z</time>
      </trkpt>
      <trkpt lat="45.15227" lon="5.68602">
        <ele>330.20001220703</ele>
        <time>2015-03-31T10:29:16.000Z</time>
      </trkpt>
      <trkpt lat="45.15224" lon="5.68603">
        <ele>331.39999389648</ele>
        <time>2015-03-31T10:29:22.000Z</time>
      </trkpt>
      <trkpt lat="45.15222" lon="5.686">
        <ele>332.20001220703</ele>
        <time>2015-03-31T10:29:30.000Z</time>
      </trkpt>
      <trkpt lat="45.15224" lon="5.68595">
        <ele>332.79998779297</ele>
        <time>2015-03-31T10:29:33.000Z</time>
      </trkpt>
      <trkpt lat="45.15228" lon="5.68591">
        <ele>333.39999389648</ele>
        <time>2015-03-31T10:29:36.000Z</time>
      </trkpt>
      <trkpt lat="45.15232" lon="5.68582">
        <ele>334.20001220703</ele>
        <time>2015-03-31T10:29:41.000Z</time>
      </trkpt>
      <trkpt lat="45.15235" lon="5.68577">
        <ele>334.79998779297</ele>
        <time>2015-03-31T10:29:44.000Z</time>
      </trkpt>
      <trkpt lat="45.15237" lon="5.68573">
        <ele>335.20001220703</ele>
        <time>2015-03-31T10:29:46.000Z</time>
      </trkpt>
      <trkpt lat="45.15239" lon="5.68565">
        <ele>335.79998779297</ele>
        <time>2015-03-31T10:29:50.000Z</time>
      </trkpt>
      <trkpt lat="45.15242" lon="5.68559">
        <ele>336.39999389648</ele>
        <time>2015-03-31T10:29:53.000Z</time>
      </trkpt>
      <trkpt lat="45.15245" lon="5.68554">
        <ele>337</ele>
        <time>2015-03-31T10:29:56.000Z</time>
      </trkpt>
      <trkpt lat="45.15249" lon="5.68547">
        <ele>337.60000610352</ele>
        <time>2015-03-31T10:30:00.000Z</time>
      </trkpt>
      <trkpt lat="45.15253" lon="5.68543">
        <ele>337.79998779297</ele>
        <time>2015-03-31T10:30:02.000Z</time>
      </trkpt>
      <trkpt lat="45.15259" lon="5.68531">
        <ele>339</ele>
        <time>2015-03-31T10:30:06.000Z</time>
      </trkpt>
      <trkpt lat="45.1526" lon="5.68529">
        <ele>339.20001220703</ele>
        <time>2015-03-31T10:30:07.000Z</time>
      </trkpt>
      <trkpt lat="45.15265" lon="5.68521">
        <ele>339.79998779297</ele>
        <time>2015-03-31T10:30:11.000Z</time>
      </trkpt>
      <trkpt lat="45.15265" lon="5.68518">
        <ele>340</ele>
        <time>2015-03-31T10:30:12.000Z</time>
      </trkpt>
      <trkpt lat="45.15267" lon="5.6851">
        <ele>340.20001220703</ele>
        <time>2015-03-31T10:30:16.000Z</time>
      </trkpt>
      <trkpt lat="45.15268" lon="5.68503">
        <ele>340.79998779297</ele>
        <time>2015-03-31T10:30:19.000Z</time>
      </trkpt>
      <trkpt lat="45.15268" lon="5.68501">
        <ele>341.20001220703</ele>
        <time>2015-03-31T10:30:20.000Z</time>
      </trkpt>
      <trkpt lat="45.1527" lon="5.68493">
        <ele>341.79998779297</ele>
        <time>2015-03-31T10:30:24.000Z</time>
      </trkpt>
      <trkpt lat="45.15271" lon="5.68486">
        <ele>342.20001220703</ele>
        <time>2015-03-31T10:30:27.000Z</time>
      </trkpt>
      <trkpt lat="45.15273" lon="5.68481">
        <ele>342.39999389648</ele>
        <time>2015-03-31T10:30:30.000Z</time>
      </trkpt>
      <trkpt lat="45.15274" lon="5.68479">
        <ele>342.60000610352</ele>
        <time>2015-03-31T10:30:31.000Z</time>
      </trkpt>
      <trkpt lat="45.15275" lon="5.68476">
        <ele>342.60000610352</ele>
        <time>2015-03-31T10:30:33.000Z</time>
      </trkpt>
      <trkpt lat="45.15275" lon="5.68469">
        <ele>342.79998779297</ele>
        <time>2015-03-31T10:30:36.000Z</time>
      </trkpt>
      <trkpt lat="45.15274" lon="5.68465">
        <ele>343</ele>
        <time>2015-03-31T10:30:38.000Z</time>
      </trkpt>
      <trkpt lat="45.15276" lon="5.68458">
        <ele>344</ele>
        <time>2015-03-31T10:30:43.000Z</time>
      </trkpt>
      <trkpt lat="45.15276" lon="5.68456">
        <ele>344</ele>
        <time>2015-03-31T10:30:44.000Z</time>
      </trkpt>
      <trkpt lat="45.15277" lon="5.68455">
        <ele>344.20001220703</ele>
        <time>2015-03-31T10:30:45.000Z</time>
      </trkpt>
      <trkpt lat="45.15279" lon="5.6845">
        <ele>344.60000610352</ele>
        <time>2015-03-31T10:30:50.000Z</time>
      </trkpt>
      <trkpt lat="45.15275" lon="5.68448">
        <ele>345.20001220703</ele>
        <time>2015-03-31T10:30:54.000Z</time>
      </trkpt>
      <trkpt lat="45.15271" lon="5.68446">
        <ele>345.79998779297</ele>
        <time>2015-03-31T10:30:57.000Z</time>
      </trkpt>
      <trkpt lat="45.15268" lon="5.68443">
        <ele>346.20001220703</ele>
        <time>2015-03-31T10:31:00.000Z</time>
      </trkpt>
      <trkpt lat="45.15264" lon="5.68442">
        <ele>347.20001220703</ele>
        <time>2015-03-31T10:31:04.000Z</time>
      </trkpt>
      <trkpt lat="45.15262" lon="5.6844">
        <ele>347.79998779297</ele>
        <time>2015-03-31T10:31:07.000Z</time>
      </trkpt>
      <trkpt lat="45.15259" lon="5.68439">
        <ele>348.39999389648</ele>
        <time>2015-03-31T10:31:10.000Z</time>
      </trkpt>
      <trkpt lat="45.15258" lon="5.68439">
        <ele>349</ele>
        <time>2015-03-31T10:31:12.000Z</time>
      </trkpt>
      <trkpt lat="45.15256" lon="5.68439">
        <ele>349.60000610352</ele>
        <time>2015-03-31T10:31:14.000Z</time>
      </trkpt>
      <trkpt lat="45.15253" lon="5.68438">
        <ele>350.79998779297</ele>
        <time>2015-03-31T10:31:19.000Z</time>
      </trkpt>
      <trkpt lat="45.15251" lon="5.68441">
        <ele>352.20001220703</ele>
        <time>2015-03-31T10:31:25.000Z</time>
      </trkpt>
      <trkpt lat="45.15248" lon="5.68446">
        <ele>353.79998779297</ele>
        <time>2015-03-31T10:31:30.000Z</time>
      </trkpt>
      <trkpt lat="45.15246" lon="5.6845">
        <ele>354.60000610352</ele>
        <time>2015-03-31T10:31:33.000Z</time>
      </trkpt>
      <trkpt lat="45.15245" lon="5.68451">
        <ele>355</ele>
        <time>2015-03-31T10:31:34.000Z</time>
      </trkpt>
      <trkpt lat="45.15245" lon="5.68456">
        <ele>355.79998779297</ele>
        <time>2015-03-31T10:31:37.000Z</time>
      </trkpt>
      <trkpt lat="45.15242" lon="5.6846">
        <ele>357.20001220703</ele>
        <time>2015-03-31T10:31:41.000Z</time>
      </trkpt>
      <trkpt lat="45.15238" lon="5.68466">
        <ele>358.20001220703</ele>
        <time>2015-03-31T10:31:45.000Z</time>
      </trkpt>
      <trkpt lat="45.15234" lon="5.68472">
        <ele>360</ele>
        <time>2015-03-31T10:31:50.000Z</time>
      </trkpt>
      <trkpt lat="45.15232" lon="5.68476">
        <ele>360.79998779297</ele>
        <time>2015-03-31T10:31:53.000Z</time>
      </trkpt>
      <trkpt lat="45.15229" lon="5.68481">
        <ele>362</ele>
        <time>2015-03-31T10:31:58.000Z</time>
      </trkpt>
      <trkpt lat="45.15226" lon="5.68489">
        <ele>363.39999389648</ele>
        <time>2015-03-31T10:32:01.000Z</time>
      </trkpt>
      <trkpt lat="45.15223" lon="5.68493">
        <ele>364.20001220703</ele>
        <time>2015-03-31T10:32:04.000Z</time>
      </trkpt>
      <trkpt lat="45.15222" lon="5.68494">
        <ele>364.60000610352</ele>
        <time>2015-03-31T10:32:05.000Z</time>
      </trkpt>
      <trkpt lat="45.15218" lon="5.68498">
        <ele>365.39999389648</ele>
        <time>2015-03-31T10:32:08.000Z</time>
      </trkpt>
      <trkpt lat="45.15217" lon="5.685">
        <ele>365.60000610352</ele>
        <time>2015-03-31T10:32:09.000Z</time>
      </trkpt>
      <trkpt lat="45.15211" lon="5.68509">
        <ele>366.79998779297</ele>
        <time>2015-03-31T10:32:13.000Z</time>
      </trkpt>
      <trkpt lat="45.15207" lon="5.68513">
        <ele>367.60000610352</ele>
        <time>2015-03-31T10:32:16.000Z</time>
      </trkpt>
      <trkpt lat="45.15203" lon="5.68517">
        <ele>368.39999389648</ele>
        <time>2015-03-31T10:32:19.000Z</time>
      </trkpt>
      <trkpt lat="45.15199" lon="5.6852">
        <ele>369.20001220703</ele>
        <time>2015-03-31T10:32:22.000Z</time>
      </trkpt>
      <trkpt lat="45.15197" lon="5.68523">
        <ele>369.60000610352</ele>
        <time>2015-03-31T10:32:24.000Z</time>
      </trkpt>
      <trkpt lat="45.15193" lon="5.68529">
        <ele>370.79998779297</ele>
        <time>2015-03-31T10:32:28.000Z</time>
      </trkpt>
      <trkpt lat="45.15191" lon="5.68532">
        <ele>371.20001220703</ele>
        <time>2015-03-31T10:32:30.000Z</time>
      </trkpt>
      <trkpt lat="45.15188" lon="5.68535">
        <ele>371.79998779297</ele>
        <time>2015-03-31T10:32:32.000Z</time>
      </trkpt>
      <trkpt lat="45.15183" lon="5.68542">
        <ele>373.20001220703</ele>
        <time>2015-03-31T10:32:37.000Z</time>
      </trkpt>
      <trkpt lat="45.15179" lon="5.6855">
        <ele>374</ele>
        <time>2015-03-31T10:32:40.000Z</time>
      </trkpt>
      <trkpt lat="45.15177" lon="5.68552">
        <ele>374.20001220703</ele>
        <time>2015-03-31T10:32:41.000Z</time>
      </trkpt>
      <trkpt lat="45.15173" lon="5.68563">
        <ele>375.39999389648</ele>
        <time>2015-03-31T10:32:45.000Z</time>
      </trkpt>
      <trkpt lat="45.15168" lon="5.68572">
        <ele>376</ele>
        <time>2015-03-31T10:32:49.000Z</time>
      </trkpt>
      <trkpt lat="45.15166" lon="5.68573">
        <ele>376.39999389648</ele>
        <time>2015-03-31T10:32:50.000Z</time>
      </trkpt>
      <trkpt lat="45.1516" lon="5.68577">
        <ele>377.20001220703</ele>
        <time>2015-03-31T10:32:53.000Z</time>
      </trkpt>
      <trkpt lat="45.15157" lon="5.68578">
        <ele>377.39999389648</ele>
        <time>2015-03-31T10:32:54.000Z</time>
      </trkpt>
      <trkpt lat="45.15148" lon="5.68583">
        <ele>378</ele>
        <time>2015-03-31T10:32:57.000Z</time>
      </trkpt>
      <trkpt lat="45.15142" lon="5.68585">
        <ele>378.20001220703</ele>
        <time>2015-03-31T10:32:59.000Z</time>
      </trkpt>
      <trkpt lat="45.15135" lon="5.68588">
        <ele>379</ele>
        <time>2015-03-31T10:33:02.000Z</time>
      </trkpt>
      <trkpt lat="45.15129" lon="5.68592">
        <ele>379.60000610352</ele>
        <time>2015-03-31T10:33:05.000Z</time>
      </trkpt>
      <trkpt lat="45.15125" lon="5.68598">
        <ele>380</ele>
        <time>2015-03-31T10:33:07.000Z</time>
      </trkpt>
      <trkpt lat="45.15122" lon="5.68604">
        <ele>380.20001220703</ele>
        <time>2015-03-31T10:33:09.000Z</time>
      </trkpt>
      <trkpt lat="45.15118" lon="5.68608">
        <ele>380.39999389648</ele>
        <time>2015-03-31T10:33:11.000Z</time>
      </trkpt>
      <trkpt lat="45.1511" lon="5.68611">
        <ele>380.79998779297</ele>
        <time>2015-03-31T10:33:14.000Z</time>
      </trkpt>
      <trkpt lat="45.15105" lon="5.68612">
        <ele>380.79998779297</ele>
        <time>2015-03-31T10:33:16.000Z</time>
      </trkpt>
      <trkpt lat="45.15099" lon="5.68613">
        <ele>381.39999389648</ele>
        <time>2015-03-31T10:33:18.000Z</time>
      </trkpt>
      <trkpt lat="45.15094" lon="5.68616">
        <ele>381.79998779297</ele>
        <time>2015-03-31T10:33:20.000Z</time>
      </trkpt>
      <trkpt lat="45.15089" lon="5.6862">
        <ele>382.20001220703</ele>
        <time>2015-03-31T10:33:22.000Z</time>
      </trkpt>
      <trkpt lat="45.15084" lon="5.68625">
        <ele>382.39999389648</ele>
        <time>2015-03-31T10:33:24.000Z</time>
      </trkpt>
      <trkpt lat="45.15078" lon="5.68629">
        <ele>382.60000610352</ele>
        <time>2015-03-31T10:33:27.000Z</time>
      </trkpt>
      <trkpt lat="45.15075" lon="5.68631">
        <ele>382.79998779297</ele>
        <time>2015-03-31T10:33:28.000Z</time>
      </trkpt>
      <trkpt lat="45.15067" lon="5.68632">
        <ele>383</ele>
        <time>2015-03-31T10:33:31.000Z</time>
      </trkpt>
      <trkpt lat="45.15061" lon="5.68635">
        <ele>383</ele>
        <time>2015-03-31T10:33:34.000Z</time>
      </trkpt>
      <trkpt lat="45.15058" lon="5.68636">
        <ele>383.20001220703</ele>
        <time>2015-03-31T10:33:35.000Z</time>
      </trkpt>
      <trkpt lat="45.15052" lon="5.6864">
        <ele>383.20001220703</ele>
        <time>2015-03-31T10:33:38.000Z</time>
      </trkpt>
      <trkpt lat="45.15048" lon="5.68645">
        <ele>383.20001220703</ele>
        <time>2015-03-31T10:33:40.000Z</time>
      </trkpt>
      <trkpt lat="45.15043" lon="5.6865">
        <ele>383.39999389648</ele>
        <time>2015-03-31T10:33:42.000Z</time>
      </trkpt>
      <trkpt lat="45.15037" lon="5.68655">
        <ele>383.39999389648</ele>
        <time>2015-03-31T10:33:44.000Z</time>
      </trkpt>
      <trkpt lat="45.15031" lon="5.68657">
        <ele>383.39999389648</ele>
        <time>2015-03-31T10:33:46.000Z</time>
      </trkpt>
      <trkpt lat="45.15026" lon="5.68656">
        <ele>383.39999389648</ele>
        <time>2015-03-31T10:33:48.000Z</time>
      </trkpt>
      <trkpt lat="45.15019" lon="5.68651">
        <ele>383.39999389648</ele>
        <time>2015-03-31T10:33:51.000Z</time>
      </trkpt>
      <trkpt lat="45.15015" lon="5.68649">
        <ele>383.39999389648</ele>
        <time>2015-03-31T10:33:53.000Z</time>
      </trkpt>
      <trkpt lat="45.15006" lon="5.68644">
        <ele>383.39999389648</ele>
        <time>2015-03-31T10:33:56.000Z</time>
      </trkpt>
      <trkpt lat="45.15001" lon="5.68641">
        <ele>383.39999389648</ele>
        <time>2015-03-31T10:33:58.000Z</time>
      </trkpt>
      <trkpt lat="45.14994" lon="5.68639">
        <ele>383.39999389648</ele>
        <time>2015-03-31T10:34:01.000Z</time>
      </trkpt>
      <trkpt lat="45.14989" lon="5.68637">
        <ele>383.39999389648</ele>
        <time>2015-03-31T10:34:03.000Z</time>
      </trkpt>
      <trkpt lat="45.14983" lon="5.68636">
        <ele>383.39999389648</ele>
        <time>2015-03-31T10:34:06.000Z</time>
      </trkpt>
      <trkpt lat="45.14976" lon="5.68638">
        <ele>383.39999389648</ele>
        <time>2015-03-31T10:34:09.000Z</time>
      </trkpt>
      <trkpt lat="45.14971" lon="5.68639">
        <ele>383.39999389648</ele>
        <time>2015-03-31T10:34:11.000Z</time>
      </trkpt>
      <trkpt lat="45.14965" lon="5.68639">
        <ele>383.39999389648</ele>
        <time>2015-03-31T10:34:13.000Z</time>
      </trkpt>
      <trkpt lat="45.1496" lon="5.6864">
        <ele>383.39999389648</ele>
        <time>2015-03-31T10:34:15.000Z</time>
      </trkpt>
      <trkpt lat="45.14953" lon="5.68643">
        <ele>383.39999389648</ele>
        <time>2015-03-31T10:34:18.000Z</time>
      </trkpt>
      <trkpt lat="45.14948" lon="5.68644">
        <ele>383.39999389648</ele>
        <time>2015-03-31T10:34:20.000Z</time>
      </trkpt>
      <trkpt lat="45.14941" lon="5.68646">
        <ele>383.39999389648</ele>
        <time>2015-03-31T10:34:23.000Z</time>
      </trkpt>
      <trkpt lat="45.14936" lon="5.68649">
        <ele>383.39999389648</ele>
        <time>2015-03-31T10:34:25.000Z</time>
      </trkpt>
      <trkpt lat="45.1493" lon="5.68651">
        <ele>383.39999389648</ele>
        <time>2015-03-31T10:34:28.000Z</time>
      </trkpt>
      <trkpt lat="45.14924" lon="5.68651">
        <ele>383.39999389648</ele>
        <time>2015-03-31T10:34:31.000Z</time>
      </trkpt>
      <trkpt lat="45.14918" lon="5.68653">
        <ele>383.39999389648</ele>
        <time>2015-03-31T10:34:34.000Z</time>
      </trkpt>
      <trkpt lat="45.14912" lon="5.68653">
        <ele>383.39999389648</ele>
        <time>2015-03-31T10:34:37.000Z</time>
      </trkpt>
      <trkpt lat="45.14908" lon="5.68653">
        <ele>383.39999389648</ele>
        <time>2015-03-31T10:34:39.000Z</time>
      </trkpt>
      <trkpt lat="45.14906" lon="5.68652">
        <ele>383.39999389648</ele>
        <time>2015-03-31T10:34:40.000Z</time>
      </trkpt>
      <trkpt lat="45.14899" lon="5.68649">
        <ele>383.39999389648</ele>
        <time>2015-03-31T10:34:43.000Z</time>
      </trkpt>
      <trkpt lat="45.14897" lon="5.68648">
        <ele>383.39999389648</ele>
        <time>2015-03-31T10:34:44.000Z</time>
      </trkpt>
      <trkpt lat="45.14889" lon="5.68644">
        <ele>383.39999389648</ele>
        <time>2015-03-31T10:34:48.000Z</time>
      </trkpt>
      <trkpt lat="45.14886" lon="5.68642">
        <ele>383.39999389648</ele>
        <time>2015-03-31T10:34:50.000Z</time>
      </trkpt>
      <trkpt lat="45.14877" lon="5.68645">
        <ele>383.20001220703</ele>
        <time>2015-03-31T10:34:54.000Z</time>
      </trkpt>
      <trkpt lat="45.14871" lon="5.68644">
        <ele>382.60000610352</ele>
        <time>2015-03-31T10:34:57.000Z</time>
      </trkpt>
      <trkpt lat="45.14864" lon="5.68645">
        <ele>382.39999389648</ele>
        <time>2015-03-31T10:35:00.000Z</time>
      </trkpt>
      <trkpt lat="45.14862" lon="5.68644">
        <ele>382.20001220703</ele>
        <time>2015-03-31T10:35:01.000Z</time>
      </trkpt>
      <trkpt lat="45.14856" lon="5.68641">
        <ele>382</ele>
        <time>2015-03-31T10:35:04.000Z</time>
      </trkpt>
      <trkpt lat="45.1485" lon="5.6864">
        <ele>381.79998779297</ele>
        <time>2015-03-31T10:35:07.000Z</time>
      </trkpt>
      <trkpt lat="45.14849" lon="5.68639">
        <ele>381.79998779297</ele>
        <time>2015-03-31T10:35:08.000Z</time>
      </trkpt>
      <trkpt lat="45.14845" lon="5.68633">
        <ele>381.79998779297</ele>
        <time>2015-03-31T10:35:12.000Z</time>
      </trkpt>
      <trkpt lat="45.14841" lon="5.68628">
        <ele>381.60000610352</ele>
        <time>2015-03-31T10:35:16.000Z</time>
      </trkpt>
      <trkpt lat="45.14836" lon="5.68622">
        <ele>381.60000610352</ele>
        <time>2015-03-31T10:35:19.000Z</time>
      </trkpt>
      <trkpt lat="45.14832" lon="5.68627">
        <ele>381.60000610352</ele>
        <time>2015-03-31T10:35:22.000Z</time>
      </trkpt>
      <trkpt lat="45.1483" lon="5.68629">
        <ele>381.60000610352</ele>
        <time>2015-03-31T10:35:23.000Z</time>
      </trkpt>
      <trkpt lat="45.14822" lon="5.68636">
        <ele>381.60000610352</ele>
        <time>2015-03-31T10:35:27.000Z</time>
      </trkpt>
      <trkpt lat="45.14817" lon="5.6864">
        <ele>381.60000610352</ele>
        <time>2015-03-31T10:35:29.000Z</time>
      </trkpt>
      <trkpt lat="45.14812" lon="5.68641">
        <ele>381.60000610352</ele>
        <time>2015-03-31T10:35:31.000Z</time>
      </trkpt>
      <trkpt lat="45.14808" lon="5.68641">
        <ele>381.39999389648</ele>
        <time>2015-03-31T10:35:33.000Z</time>
      </trkpt>
      <trkpt lat="45.14801" lon="5.68641">
        <ele>381.39999389648</ele>
        <time>2015-03-31T10:35:36.000Z</time>
      </trkpt>
      <trkpt lat="45.14797" lon="5.68641">
        <ele>381.39999389648</ele>
        <time>2015-03-31T10:35:38.000Z</time>
      </trkpt>
      <trkpt lat="45.14792" lon="5.68642">
        <ele>381.39999389648</ele>
        <time>2015-03-31T10:35:40.000Z</time>
      </trkpt>
      <trkpt lat="45.14786" lon="5.68643">
        <ele>381.39999389648</ele>
        <time>2015-03-31T10:35:43.000Z</time>
      </trkpt>
      <trkpt lat="45.1478" lon="5.68643">
        <ele>381.39999389648</ele>
        <time>2015-03-31T10:35:46.000Z</time>
      </trkpt>
      <trkpt lat="45.14774" lon="5.68646">
        <ele>381.39999389648</ele>
        <time>2015-03-31T10:35:49.000Z</time>
      </trkpt>
      <trkpt lat="45.14769" lon="5.68648">
        <ele>381.39999389648</ele>
        <time>2015-03-31T10:35:52.000Z</time>
      </trkpt>
      <trkpt lat="45.14763" lon="5.68648">
        <ele>381.39999389648</ele>
        <time>2015-03-31T10:35:55.000Z</time>
      </trkpt>
      <trkpt lat="45.14761" lon="5.68648">
        <ele>381.39999389648</ele>
        <time>2015-03-31T10:35:56.000Z</time>
      </trkpt>
      <trkpt lat="45.14755" lon="5.6864">
        <ele>381.39999389648</ele>
        <time>2015-03-31T10:36:00.000Z</time>
      </trkpt>
      <trkpt lat="45.14751" lon="5.68633">
        <ele>381.79998779297</ele>
        <time>2015-03-31T10:36:03.000Z</time>
      </trkpt>
      <trkpt lat="45.14748" lon="5.68629">
        <ele>382.20001220703</ele>
        <time>2015-03-31T10:36:05.000Z</time>
      </trkpt>
      <trkpt lat="45.14744" lon="5.68625">
        <ele>382.39999389648</ele>
        <time>2015-03-31T10:36:07.000Z</time>
      </trkpt>
      <trkpt lat="45.14741" lon="5.68622">
        <ele>382.60000610352</ele>
        <time>2015-03-31T10:36:09.000Z</time>
      </trkpt>
      <trkpt lat="45.14736" lon="5.68617">
        <ele>382.79998779297</ele>
        <time>2015-03-31T10:36:11.000Z</time>
      </trkpt>
      <trkpt lat="45.14731" lon="5.68611">
        <ele>383</ele>
        <time>2015-03-31T10:36:14.000Z</time>
      </trkpt>
      <trkpt lat="45.14725" lon="5.68607">
        <ele>383.20001220703</ele>
        <time>2015-03-31T10:36:17.000Z</time>
      </trkpt>
      <trkpt lat="45.14722" lon="5.68603">
        <ele>383.20001220703</ele>
        <time>2015-03-31T10:36:19.000Z</time>
      </trkpt>
      <trkpt lat="45.14717" lon="5.68599">
        <ele>383.60000610352</ele>
        <time>2015-03-31T10:36:22.000Z</time>
      </trkpt>
      <trkpt lat="45.14711" lon="5.68596">
        <ele>384.20001220703</ele>
        <time>2015-03-31T10:36:25.000Z</time>
      </trkpt>
      <trkpt lat="45.14707" lon="5.68595">
        <ele>384.39999389648</ele>
        <time>2015-03-31T10:36:27.000Z</time>
      </trkpt>
      <trkpt lat="45.14701" lon="5.68594">
        <ele>384.79998779297</ele>
        <time>2015-03-31T10:36:30.000Z</time>
      </trkpt>
      <trkpt lat="45.14696" lon="5.68594">
        <ele>385</ele>
        <time>2015-03-31T10:36:33.000Z</time>
      </trkpt>
      <trkpt lat="45.14692" lon="5.68593">
        <ele>385</ele>
        <time>2015-03-31T10:36:35.000Z</time>
      </trkpt>
      <trkpt lat="45.14686" lon="5.68594">
        <ele>385.20001220703</ele>
        <time>2015-03-31T10:36:39.000Z</time>
      </trkpt>
      <trkpt lat="45.1468" lon="5.68594">
        <ele>385.60000610352</ele>
        <time>2015-03-31T10:36:42.000Z</time>
      </trkpt>
      <trkpt lat="45.14676" lon="5.68592">
        <ele>386</ele>
        <time>2015-03-31T10:36:44.000Z</time>
      </trkpt>
      <trkpt lat="45.1467" lon="5.68589">
        <ele>386.39999389648</ele>
        <time>2015-03-31T10:36:47.000Z</time>
      </trkpt>
      <trkpt lat="45.14668" lon="5.68588">
        <ele>386.39999389648</ele>
        <time>2015-03-31T10:36:48.000Z</time>
      </trkpt>
      <trkpt lat="45.14661" lon="5.68585">
        <ele>386.79998779297</ele>
        <time>2015-03-31T10:36:52.000Z</time>
      </trkpt>
      <trkpt lat="45.14654" lon="5.68582">
        <ele>387</ele>
        <time>2015-03-31T10:36:55.000Z</time>
      </trkpt>
      <trkpt lat="45.14649" lon="5.6858">
        <ele>387.20001220703</ele>
        <time>2015-03-31T10:36:57.000Z</time>
      </trkpt>
      <trkpt lat="45.14644" lon="5.68578">
        <ele>387.20001220703</ele>
        <time>2015-03-31T10:36:59.000Z</time>
      </trkpt>
      <trkpt lat="45.1464" lon="5.68574">
        <ele>387.39999389648</ele>
        <time>2015-03-31T10:37:01.000Z</time>
      </trkpt>
      <trkpt lat="45.14634" lon="5.68569">
        <ele>387.39999389648</ele>
        <time>2015-03-31T10:37:04.000Z</time>
      </trkpt>
      <trkpt lat="45.14629" lon="5.68567">
        <ele>387.39999389648</ele>
        <time>2015-03-31T10:37:06.000Z</time>
      </trkpt>
      <trkpt lat="45.14624" lon="5.68563">
        <ele>387.60000610352</ele>
        <time>2015-03-31T10:37:08.000Z</time>
      </trkpt>
      <trkpt lat="45.1462" lon="5.6856">
        <ele>388</ele>
        <time>2015-03-31T10:37:10.000Z</time>
      </trkpt>
      <trkpt lat="45.14616" lon="5.68556">
        <ele>388.39999389648</ele>
        <time>2015-03-31T10:37:12.000Z</time>
      </trkpt>
      <trkpt lat="45.14612" lon="5.68552">
        <ele>388.60000610352</ele>
        <time>2015-03-31T10:37:14.000Z</time>
      </trkpt>
      <trkpt lat="45.14606" lon="5.6855">
        <ele>388.79998779297</ele>
        <time>2015-03-31T10:37:17.000Z</time>
      </trkpt>
      <trkpt lat="45.14601" lon="5.68548">
        <ele>389</ele>
        <time>2015-03-31T10:37:19.000Z</time>
      </trkpt>
      <trkpt lat="45.14596" lon="5.68545">
        <ele>389.20001220703</ele>
        <time>2015-03-31T10:37:22.000Z</time>
      </trkpt>
      <trkpt lat="45.14592" lon="5.68541">
        <ele>389.20001220703</ele>
        <time>2015-03-31T10:37:24.000Z</time>
      </trkpt>
      <trkpt lat="45.14591" lon="5.68541">
        <ele>389.39999389648</ele>
        <time>2015-03-31T10:37:25.000Z</time>
      </trkpt>
      <trkpt lat="45.14586" lon="5.68536">
        <ele>389.39999389648</ele>
        <time>2015-03-31T10:37:29.000Z</time>
      </trkpt>
      <trkpt lat="45.14583" lon="5.68534">
        <ele>389.39999389648</ele>
        <time>2015-03-31T10:37:32.000Z</time>
      </trkpt>
      <trkpt lat="45.14579" lon="5.6853">
        <ele>389.60000610352</ele>
        <time>2015-03-31T10:37:35.000Z</time>
      </trkpt>
      <trkpt lat="45.14575" lon="5.68528">
        <ele>389.60000610352</ele>
        <time>2015-03-31T10:37:38.000Z</time>
      </trkpt>
      <trkpt lat="45.14573" lon="5.68527">
        <ele>389.60000610352</ele>
        <time>2015-03-31T10:37:39.000Z</time>
      </trkpt>
      <trkpt lat="45.1457" lon="5.68525">
        <ele>389.79998779297</ele>
        <time>2015-03-31T10:37:41.000Z</time>
      </trkpt>
      <trkpt lat="45.14564" lon="5.6852">
        <ele>390.39999389648</ele>
        <time>2015-03-31T10:37:45.000Z</time>
      </trkpt>
      <trkpt lat="45.14563" lon="5.68519">
        <ele>390.60000610352</ele>
        <time>2015-03-31T10:37:46.000Z</time>
      </trkpt>
      <trkpt lat="45.14558" lon="5.68518">
        <ele>390.79998779297</ele>
        <time>2015-03-31T10:37:49.000Z</time>
      </trkpt>
      <trkpt lat="45.14554" lon="5.68517">
        <ele>391</ele>
        <time>2015-03-31T10:37:52.000Z</time>
      </trkpt>
      <trkpt lat="45.14553" lon="5.68517">
        <ele>391.20001220703</ele>
        <time>2015-03-31T10:37:53.000Z</time>
      </trkpt>
      <trkpt lat="45.14547" lon="5.68514">
        <ele>391.39999389648</ele>
        <time>2015-03-31T10:37:57.000Z</time>
      </trkpt>
      <trkpt lat="45.14544" lon="5.68513">
        <ele>391.60000610352</ele>
        <time>2015-03-31T10:38:00.000Z</time>
      </trkpt>
      <trkpt lat="45.14542" lon="5.68513">
        <ele>391.79998779297</ele>
        <time>2015-03-31T10:38:01.000Z</time>
      </trkpt>
      <trkpt lat="45.14538" lon="5.68512">
        <ele>392.39999389648</ele>
        <time>2015-03-31T10:38:04.000Z</time>
      </trkpt>
      <trkpt lat="45.14536" lon="5.68513">
        <ele>392.60000610352</ele>
        <time>2015-03-31T10:38:06.000Z</time>
      </trkpt>
      <trkpt lat="45.14531" lon="5.68512">
        <ele>393</ele>
        <time>2015-03-31T10:38:10.000Z</time>
      </trkpt>
      <trkpt lat="45.14527" lon="5.68511">
        <ele>393.39999389648</ele>
        <time>2015-03-31T10:38:13.000Z</time>
      </trkpt>
      <trkpt lat="45.14526" lon="5.68511">
        <ele>393.79998779297</ele>
        <time>2015-03-31T10:38:15.000Z</time>
      </trkpt>
      <trkpt lat="45.14521" lon="5.68509">
        <ele>394.60000610352</ele>
        <time>2015-03-31T10:38:19.000Z</time>
      </trkpt>
      <trkpt lat="45.14519" lon="5.68508">
        <ele>394.79998779297</ele>
        <time>2015-03-31T10:38:21.000Z</time>
      </trkpt>
      <trkpt lat="45.14515" lon="5.68507">
        <ele>395.79998779297</ele>
        <time>2015-03-31T10:38:26.000Z</time>
      </trkpt>
      <trkpt lat="45.14512" lon="5.68507">
        <ele>396.39999389648</ele>
        <time>2015-03-31T10:38:29.000Z</time>
      </trkpt>
      <trkpt lat="45.14506" lon="5.68508">
        <ele>397.20001220703</ele>
        <time>2015-03-31T10:38:34.000Z</time>
      </trkpt>
      <trkpt lat="45.14503" lon="5.68507">
        <ele>398</ele>
        <time>2015-03-31T10:38:37.000Z</time>
      </trkpt>
      <trkpt lat="45.14501" lon="5.68505">
        <ele>398.39999389648</ele>
        <time>2015-03-31T10:38:39.000Z</time>
      </trkpt>
      <trkpt lat="45.14496" lon="5.68504">
        <ele>399.20001220703</ele>
        <time>2015-03-31T10:38:43.000Z</time>
      </trkpt>
      <trkpt lat="45.14495" lon="5.68504">
        <ele>399.60000610352</ele>
        <time>2015-03-31T10:38:44.000Z</time>
      </trkpt>
      <trkpt lat="45.14494" lon="5.68504">
        <ele>399.79998779297</ele>
        <time>2015-03-31T10:38:45.000Z</time>
      </trkpt>
      <trkpt lat="45.1449" lon="5.68501">
        <ele>400.79998779297</ele>
        <time>2015-03-31T10:38:50.000Z</time>
      </trkpt>
      <trkpt lat="45.14487" lon="5.68499">
        <ele>401.60000610352</ele>
        <time>2015-03-31T10:38:53.000Z</time>
      </trkpt>
      <trkpt lat="45.14486" lon="5.68498">
        <ele>401.79998779297</ele>
        <time>2015-03-31T10:38:54.000Z</time>
      </trkpt>
      <trkpt lat="45.1448" lon="5.68499">
        <ele>402.79998779297</ele>
        <time>2015-03-31T10:38:58.000Z</time>
      </trkpt>
      <trkpt lat="45.14476" lon="5.68496">
        <ele>403.20001220703</ele>
        <time>2015-03-31T10:39:01.000Z</time>
      </trkpt>
      <trkpt lat="45.14475" lon="5.68496">
        <ele>403.39999389648</ele>
        <time>2015-03-31T10:39:02.000Z</time>
      </trkpt>
      <trkpt lat="45.14469" lon="5.68496">
        <ele>404.60000610352</ele>
        <time>2015-03-31T10:39:07.000Z</time>
      </trkpt>
      <trkpt lat="45.14465" lon="5.68494">
        <ele>405.20001220703</ele>
        <time>2015-03-31T10:39:10.000Z</time>
      </trkpt>
      <trkpt lat="45.1446" lon="5.68494">
        <ele>406</ele>
        <time>2015-03-31T10:39:14.000Z</time>
      </trkpt>
      <trkpt lat="45.14458" lon="5.68492">
        <ele>406.79998779297</ele>
        <time>2015-03-31T10:39:17.000Z</time>
      </trkpt>
      <trkpt lat="45.14457" lon="5.68492">
        <ele>407</ele>
        <time>2015-03-31T10:39:18.000Z</time>
      </trkpt>
      <trkpt lat="45.14456" lon="5.68492">
        <ele>407.20001220703</ele>
        <time>2015-03-31T10:39:19.000Z</time>
      </trkpt>
      <trkpt lat="45.14453" lon="5.68494">
        <ele>407.60000610352</ele>
        <time>2015-03-31T10:39:22.000Z</time>
      </trkpt>
      <trkpt lat="45.14448" lon="5.68495">
        <ele>408.79998779297</ele>
        <time>2015-03-31T10:39:27.000Z</time>
      </trkpt>
      <trkpt lat="45.14447" lon="5.68495">
        <ele>409</ele>
        <time>2015-03-31T10:39:28.000Z</time>
      </trkpt>
      <trkpt lat="45.14442" lon="5.68496">
        <ele>410.20001220703</ele>
        <time>2015-03-31T10:39:33.000Z</time>
      </trkpt>
      <trkpt lat="45.14438" lon="5.68497">
        <ele>411.20001220703</ele>
        <time>2015-03-31T10:39:37.000Z</time>
      </trkpt>
      <trkpt lat="45.14435" lon="5.68496">
        <ele>411.79998779297</ele>
        <time>2015-03-31T10:39:40.000Z</time>
      </trkpt>
      <trkpt lat="45.14434" lon="5.68496">
        <ele>412.60000610352</ele>
        <time>2015-03-31T10:39:43.000Z</time>
      </trkpt>
      <trkpt lat="45.1443" lon="5.68492">
        <ele>413.79998779297</ele>
        <time>2015-03-31T10:39:48.000Z</time>
      </trkpt>
      <trkpt lat="45.14426" lon="5.6849">
        <ele>415.39999389648</ele>
        <time>2015-03-31T10:39:54.000Z</time>
      </trkpt>
      <trkpt lat="45.14424" lon="5.68488">
        <ele>417</ele>
        <time>2015-03-31T10:39:59.000Z</time>
      </trkpt>
      <trkpt lat="45.14422" lon="5.68485">
        <ele>418</ele>
        <time>2015-03-31T10:40:03.000Z</time>
      </trkpt>
      <trkpt lat="45.14422" lon="5.68481">
        <ele>419.79998779297</ele>
        <time>2015-03-31T10:40:09.000Z</time>
      </trkpt>
      <trkpt lat="45.14426" lon="5.68478">
        <ele>421.60000610352</ele>
        <time>2015-03-31T10:40:15.000Z</time>
      </trkpt>
      <trkpt lat="45.14431" lon="5.68476">
        <ele>423.39999389648</ele>
        <time>2015-03-31T10:40:21.000Z</time>
      </trkpt>
      <trkpt lat="45.14428" lon="5.68472">
        <ele>425.20001220703</ele>
        <time>2015-03-31T10:40:26.000Z</time>
      </trkpt>
      <trkpt lat="45.14427" lon="5.68466">
        <ele>426</ele>
        <time>2015-03-31T10:40:29.000Z</time>
      </trkpt>
      <trkpt lat="45.14426" lon="5.68465">
        <ele>426.39999389648</ele>
        <time>2015-03-31T10:40:30.000Z</time>
      </trkpt>
      <trkpt lat="45.14425" lon="5.68463">
        <ele>427.60000610352</ele>
        <time>2015-03-31T10:40:34.000Z</time>
      </trkpt>
      <trkpt lat="45.14422" lon="5.68453">
        <ele>430.60000610352</ele>
        <time>2015-03-31T10:40:45.000Z</time>
      </trkpt>
      <trkpt lat="45.14421" lon="5.6845">
        <ele>431.60000610352</ele>
        <time>2015-03-31T10:40:48.000Z</time>
      </trkpt>
      <trkpt lat="45.14424" lon="5.68447">
        <ele>433.60000610352</ele>
        <time>2015-03-31T10:40:56.000Z</time>
      </trkpt>
      <trkpt lat="45.14428" lon="5.68447">
        <ele>434.20001220703</ele>
        <time>2015-03-31T10:40:58.000Z</time>
      </trkpt>
      <trkpt lat="45.14431" lon="5.68445">
        <ele>435</ele>
        <time>2015-03-31T10:41:02.000Z</time>
      </trkpt>
      <trkpt lat="45.14435" lon="5.6845">
        <ele>436.39999389648</ele>
        <time>2015-03-31T10:41:07.000Z</time>
      </trkpt>
      <trkpt lat="45.14437" lon="5.6845">
        <ele>437</ele>
        <time>2015-03-31T10:41:09.000Z</time>
      </trkpt>
      <trkpt lat="45.14437" lon="5.68447">
        <ele>438.60000610352</ele>
        <time>2015-03-31T10:41:15.000Z</time>
      </trkpt>
      <trkpt lat="45.14435" lon="5.68443">
        <ele>439.79998779297</ele>
        <time>2015-03-31T10:41:19.000Z</time>
      </trkpt>
      <trkpt lat="45.14435" lon="5.68442">
        <ele>440.20001220703</ele>
        <time>2015-03-31T10:41:20.000Z</time>
      </trkpt>
      <trkpt lat="45.14434" lon="5.68437">
        <ele>442.20001220703</ele>
        <time>2015-03-31T10:41:26.000Z</time>
      </trkpt>
      <trkpt lat="45.14433" lon="5.68435">
        <ele>442.39999389648</ele>
        <time>2015-03-31T10:41:27.000Z</time>
      </trkpt>
      <trkpt lat="45.14431" lon="5.6843">
        <ele>443.60000610352</ele>
        <time>2015-03-31T10:41:31.000Z</time>
      </trkpt>
      <trkpt lat="45.14428" lon="5.68424">
        <ele>445.79998779297</ele>
        <time>2015-03-31T10:41:38.000Z</time>
      </trkpt>
      <trkpt lat="45.14428" lon="5.68423">
        <ele>446</ele>
        <time>2015-03-31T10:41:39.000Z</time>
      </trkpt>
      <trkpt lat="45.14425" lon="5.68419">
        <ele>447.20001220703</ele>
        <time>2015-03-31T10:41:43.000Z</time>
      </trkpt>
      <trkpt lat="45.14423" lon="5.68417">
        <ele>447.79998779297</ele>
        <time>2015-03-31T10:41:45.000Z</time>
      </trkpt>
      <trkpt lat="45.1442" lon="5.68415">
        <ele>448.79998779297</ele>
        <time>2015-03-31T10:41:48.000Z</time>
      </trkpt>
      <trkpt lat="45.14419" lon="5.68409">
        <ele>450</ele>
        <time>2015-03-31T10:41:53.000Z</time>
      </trkpt>
      <trkpt lat="45.14418" lon="5.68409">
        <ele>450.20001220703</ele>
        <time>2015-03-31T10:41:54.000Z</time>
      </trkpt>
      <trkpt lat="45.14417" lon="5.68408">
        <ele>451</ele>
        <time>2015-03-31T10:41:56.000Z</time>
      </trkpt>
      <trkpt lat="45.14414" lon="5.68405">
        <ele>452</ele>
        <time>2015-03-31T10:42:00.000Z</time>
      </trkpt>
      <trkpt lat="45.14412" lon="5.68403">
        <ele>452.39999389648</ele>
        <time>2015-03-31T10:42:02.000Z</time>
      </trkpt>
      <trkpt lat="45.14408" lon="5.684">
        <ele>453.79998779297</ele>
        <time>2015-03-31T10:42:06.000Z</time>
      </trkpt>
      <trkpt lat="45.14404" lon="5.68397">
        <ele>454.60000610352</ele>
        <time>2015-03-31T10:42:10.000Z</time>
      </trkpt>
      <trkpt lat="45.14401" lon="5.68394">
        <ele>456</ele>
        <time>2015-03-31T10:42:14.000Z</time>
      </trkpt>
      <trkpt lat="45.14398" lon="5.68391">
        <ele>457</ele>
        <time>2015-03-31T10:42:18.000Z</time>
      </trkpt>
      <trkpt lat="45.14398" lon="5.68387">
        <ele>458.39999389648</ele>
        <time>2015-03-31T10:42:22.000Z</time>
      </trkpt>
      <trkpt lat="45.14398" lon="5.68386">
        <ele>458.60000610352</ele>
        <time>2015-03-31T10:42:23.000Z</time>
      </trkpt>
      <trkpt lat="45.14401" lon="5.68381">
        <ele>460.60000610352</ele>
        <time>2015-03-31T10:42:29.000Z</time>
      </trkpt>
      <trkpt lat="45.14401" lon="5.68379">
        <ele>460.79998779297</ele>
        <time>2015-03-31T10:42:30.000Z</time>
      </trkpt>
      <trkpt lat="45.144" lon="5.68378">
        <ele>461.60000610352</ele>
        <time>2015-03-31T10:42:32.000Z</time>
      </trkpt>
      <trkpt lat="45.14398" lon="5.68379">
        <ele>470.60000610352</ele>
        <time>2015-03-31T10:42:53.000Z</time>
      </trkpt>
      <trkpt lat="45.14391" lon="5.68374">
        <ele>479.39999389648</ele>
        <time>2015-03-31T10:43:13.000Z</time>
      </trkpt>
      <trkpt lat="45.14387" lon="5.6837">
        <ele>480.60000610352</ele>
        <time>2015-03-31T10:43:16.000Z</time>
      </trkpt>
      <trkpt lat="45.14383" lon="5.68366">
        <ele>481.60000610352</ele>
        <time>2015-03-31T10:43:19.000Z</time>
      </trkpt>
      <trkpt lat="45.14381" lon="5.68364">
        <ele>482.20001220703</ele>
        <time>2015-03-31T10:43:21.000Z</time>
      </trkpt>
      <trkpt lat="45.14374" lon="5.68359">
        <ele>484</ele>
        <time>2015-03-31T10:43:25.000Z</time>
      </trkpt>
      <trkpt lat="45.14372" lon="5.68358">
        <ele>484.20001220703</ele>
        <time>2015-03-31T10:43:26.000Z</time>
      </trkpt>
      <trkpt lat="45.14367" lon="5.68354">
        <ele>485.39999389648</ele>
        <time>2015-03-31T10:43:29.000Z</time>
      </trkpt>
      <trkpt lat="45.14362" lon="5.6835">
        <ele>486.39999389648</ele>
        <time>2015-03-31T10:43:32.000Z</time>
      </trkpt>
      <trkpt lat="45.14358" lon="5.68347">
        <ele>487</ele>
        <time>2015-03-31T10:43:34.000Z</time>
      </trkpt>
      <trkpt lat="45.14354" lon="5.68345">
        <ele>487.79998779297</ele>
        <time>2015-03-31T10:43:36.000Z</time>
      </trkpt>
      <trkpt lat="45.14349" lon="5.68344">
        <ele>488.39999389648</ele>
        <time>2015-03-31T10:43:38.000Z</time>
      </trkpt>
      <trkpt lat="45.14344" lon="5.68343">
        <ele>489</ele>
        <time>2015-03-31T10:43:40.000Z</time>
      </trkpt>
      <trkpt lat="45.1434" lon="5.68343">
        <ele>489.60000610352</ele>
        <time>2015-03-31T10:43:42.000Z</time>
      </trkpt>
      <trkpt lat="45.14335" lon="5.68342">
        <ele>490.20001220703</ele>
        <time>2015-03-31T10:43:44.000Z</time>
      </trkpt>
      <trkpt lat="45.1433" lon="5.68341">
        <ele>490.79998779297</ele>
        <time>2015-03-31T10:43:46.000Z</time>
      </trkpt>
      <trkpt lat="45.14326" lon="5.6834">
        <ele>491.39999389648</ele>
        <time>2015-03-31T10:43:48.000Z</time>
      </trkpt>
      <trkpt lat="45.1432" lon="5.68338">
        <ele>491.60000610352</ele>
        <time>2015-03-31T10:43:50.000Z</time>
      </trkpt>
      <trkpt lat="45.14315" lon="5.68337">
        <ele>492.20001220703</ele>
        <time>2015-03-31T10:43:52.000Z</time>
      </trkpt>
      <trkpt lat="45.1431" lon="5.68337">
        <ele>492.79998779297</ele>
        <time>2015-03-31T10:43:54.000Z</time>
      </trkpt>
      <trkpt lat="45.14305" lon="5.68335">
        <ele>493.20001220703</ele>
        <time>2015-03-31T10:43:56.000Z</time>
      </trkpt>
      <trkpt lat="45.14301" lon="5.68333">
        <ele>493.60000610352</ele>
        <time>2015-03-31T10:43:58.000Z</time>
      </trkpt>
      <trkpt lat="45.14295" lon="5.68331">
        <ele>494</ele>
        <time>2015-03-31T10:44:00.000Z</time>
      </trkpt>
      <trkpt lat="45.1429" lon="5.68329">
        <ele>494.20001220703</ele>
        <time>2015-03-31T10:44:02.000Z</time>
      </trkpt>
      <trkpt lat="45.14285" lon="5.68327">
        <ele>494.79998779297</ele>
        <time>2015-03-31T10:44:04.000Z</time>
      </trkpt>
      <trkpt lat="45.14281" lon="5.68324">
        <ele>495.39999389648</ele>
        <time>2015-03-31T10:44:06.000Z</time>
      </trkpt>
      <trkpt lat="45.14276" lon="5.6832">
        <ele>495.79998779297</ele>
        <time>2015-03-31T10:44:09.000Z</time>
      </trkpt>
      <trkpt lat="45.1427" lon="5.68315">
        <ele>496.20001220703</ele>
        <time>2015-03-31T10:44:12.000Z</time>
      </trkpt>
      <trkpt lat="45.14266" lon="5.68312">
        <ele>496.39999389648</ele>
        <time>2015-03-31T10:44:14.000Z</time>
      </trkpt>
      <trkpt lat="45.14262" lon="5.68308">
        <ele>497.20001220703</ele>
        <time>2015-03-31T10:44:17.000Z</time>
      </trkpt>
      <trkpt lat="45.14262" lon="5.68308">
        <ele>497.60000610352</ele>
        <time>2015-03-31T10:44:18.000Z</time>
      </trkpt>
      <trkpt lat="45.14256" lon="5.68305">
        <ele>498</ele>
        <time>2015-03-31T10:44:21.000Z</time>
      </trkpt>
      <trkpt lat="45.1425" lon="5.68302">
        <ele>498.39999389648</ele>
        <time>2015-03-31T10:44:23.000Z</time>
      </trkpt>
      <trkpt lat="45.14245" lon="5.68299">
        <ele>498.60000610352</ele>
        <time>2015-03-31T10:44:25.000Z</time>
      </trkpt>
      <trkpt lat="45.14241" lon="5.68296">
        <ele>498.79998779297</ele>
        <time>2015-03-31T10:44:27.000Z</time>
      </trkpt>
      <trkpt lat="45.14237" lon="5.68293">
        <ele>498.79998779297</ele>
        <time>2015-03-31T10:44:29.000Z</time>
      </trkpt>
      <trkpt lat="45.14232" lon="5.68291">
        <ele>499.39999389648</ele>
        <time>2015-03-31T10:44:31.000Z</time>
      </trkpt>
      <trkpt lat="45.14226" lon="5.68286">
        <ele>500</ele>
        <time>2015-03-31T10:44:34.000Z</time>
      </trkpt>
      <trkpt lat="45.14222" lon="5.68283">
        <ele>500.20001220703</ele>
        <time>2015-03-31T10:44:36.000Z</time>
      </trkpt>
      <trkpt lat="45.14218" lon="5.68279">
        <ele>500.60000610352</ele>
        <time>2015-03-31T10:44:38.000Z</time>
      </trkpt>
      <trkpt lat="45.14214" lon="5.68274">
        <ele>500.79998779297</ele>
        <time>2015-03-31T10:44:40.000Z</time>
      </trkpt>
      <trkpt lat="45.14211" lon="5.68269">
        <ele>500.79998779297</ele>
        <time>2015-03-31T10:44:42.000Z</time>
      </trkpt>
      <trkpt lat="45.14205" lon="5.68264">
        <ele>501.39999389648</ele>
        <time>2015-03-31T10:44:45.000Z</time>
      </trkpt>
      <trkpt lat="45.14201" lon="5.68263">
        <ele>501.79998779297</ele>
        <time>2015-03-31T10:44:47.000Z</time>
      </trkpt>
      <trkpt lat="45.14194" lon="5.6826">
        <ele>502.39999389648</ele>
        <time>2015-03-31T10:44:50.000Z</time>
      </trkpt>
      <trkpt lat="45.1419" lon="5.68258">
        <ele>502.60000610352</ele>
        <time>2015-03-31T10:44:52.000Z</time>
      </trkpt>
      <trkpt lat="45.14185" lon="5.68255">
        <ele>502.79998779297</ele>
        <time>2015-03-31T10:44:54.000Z</time>
      </trkpt>
      <trkpt lat="45.1418" lon="5.68252">
        <ele>503</ele>
        <time>2015-03-31T10:44:56.000Z</time>
      </trkpt>
      <trkpt lat="45.14175" lon="5.68249">
        <ele>503.20001220703</ele>
        <time>2015-03-31T10:44:58.000Z</time>
      </trkpt>
      <trkpt lat="45.1417" lon="5.68246">
        <ele>503.20001220703</ele>
        <time>2015-03-31T10:45:00.000Z</time>
      </trkpt>
      <trkpt lat="45.14164" lon="5.68243">
        <ele>503.39999389648</ele>
        <time>2015-03-31T10:45:03.000Z</time>
      </trkpt>
      <trkpt lat="45.1416" lon="5.68241">
        <ele>503.39999389648</ele>
        <time>2015-03-31T10:45:05.000Z</time>
      </trkpt>
      <trkpt lat="45.14155" lon="5.68239">
        <ele>503.39999389648</ele>
        <time>2015-03-31T10:45:07.000Z</time>
      </trkpt>
      <trkpt lat="45.14148" lon="5.68235">
        <ele>503.60000610352</ele>
        <time>2015-03-31T10:45:10.000Z</time>
      </trkpt>
      <trkpt lat="45.14143" lon="5.68232">
        <ele>503.60000610352</ele>
        <time>2015-03-31T10:45:12.000Z</time>
      </trkpt>
      <trkpt lat="45.14138" lon="5.6823">
        <ele>503.60000610352</ele>
        <time>2015-03-31T10:45:14.000Z</time>
      </trkpt>
      <trkpt lat="45.14134" lon="5.68228">
        <ele>503.60000610352</ele>
        <time>2015-03-31T10:45:16.000Z</time>
      </trkpt>
      <trkpt lat="45.14132" lon="5.6822">
        <ele>503.60000610352</ele>
        <time>2015-03-31T10:45:20.000Z</time>
      </trkpt>
      <trkpt lat="45.14131" lon="5.68219">
        <ele>503.60000610352</ele>
        <time>2015-03-31T10:45:21.000Z</time>
      </trkpt>
      <trkpt lat="45.14127" lon="5.68215">
        <ele>503.60000610352</ele>
        <time>2015-03-31T10:45:23.000Z</time>
      </trkpt>
      <trkpt lat="45.14125" lon="5.68211">
        <ele>503.60000610352</ele>
        <time>2015-03-31T10:45:25.000Z</time>
      </trkpt>
      <trkpt lat="45.14123" lon="5.68199">
        <ele>503.60000610352</ele>
        <time>2015-03-31T10:45:29.000Z</time>
      </trkpt>
      <trkpt lat="45.14122" lon="5.68192">
        <ele>503.60000610352</ele>
        <time>2015-03-31T10:45:32.000Z</time>
      </trkpt>
      <trkpt lat="45.1412" lon="5.68184">
        <ele>503.60000610352</ele>
        <time>2015-03-31T10:45:35.000Z</time>
      </trkpt>
      <trkpt lat="45.14118" lon="5.68178">
        <ele>503.60000610352</ele>
        <time>2015-03-31T10:45:38.000Z</time>
      </trkpt>
      <trkpt lat="45.14117" lon="5.68177">
        <ele>503.60000610352</ele>
        <time>2015-03-31T10:45:39.000Z</time>
      </trkpt>
      <trkpt lat="45.14116" lon="5.6817">
        <ele>503.60000610352</ele>
        <time>2015-03-31T10:45:42.000Z</time>
      </trkpt>
      <trkpt lat="45.14112" lon="5.68162">
        <ele>503.60000610352</ele>
        <time>2015-03-31T10:45:45.000Z</time>
      </trkpt>
      <trkpt lat="45.14109" lon="5.68155">
        <ele>503.60000610352</ele>
        <time>2015-03-31T10:45:47.000Z</time>
      </trkpt>
      <trkpt lat="45.14108" lon="5.68152">
        <ele>503.60000610352</ele>
        <time>2015-03-31T10:45:48.000Z</time>
      </trkpt>
      <trkpt lat="45.14104" lon="5.68143">
        <ele>503.60000610352</ele>
        <time>2015-03-31T10:45:51.000Z</time>
      </trkpt>
      <trkpt lat="45.14101" lon="5.68137">
        <ele>503.60000610352</ele>
        <time>2015-03-31T10:45:53.000Z</time>
      </trkpt>
      <trkpt lat="45.14097" lon="5.68131">
        <ele>503.60000610352</ele>
        <time>2015-03-31T10:45:55.000Z</time>
      </trkpt>
      <trkpt lat="45.14093" lon="5.68126">
        <ele>503.79998779297</ele>
        <time>2015-03-31T10:45:57.000Z</time>
      </trkpt>
      <trkpt lat="45.1409" lon="5.6812">
        <ele>503.79998779297</ele>
        <time>2015-03-31T10:45:59.000Z</time>
      </trkpt>
      <trkpt lat="45.14086" lon="5.68115">
        <ele>503.79998779297</ele>
        <time>2015-03-31T10:46:01.000Z</time>
      </trkpt>
      <trkpt lat="45.14083" lon="5.6811">
        <ele>503.39999389648</ele>
        <time>2015-03-31T10:46:03.000Z</time>
      </trkpt>
      <trkpt lat="45.14079" lon="5.68105">
        <ele>503</ele>
        <time>2015-03-31T10:46:05.000Z</time>
      </trkpt>
      <trkpt lat="45.14074" lon="5.681">
        <ele>502.79998779297</ele>
        <time>2015-03-31T10:46:07.000Z</time>
      </trkpt>
      <trkpt lat="45.1407" lon="5.68097">
        <ele>502.60000610352</ele>
        <time>2015-03-31T10:46:09.000Z</time>
      </trkpt>
      <trkpt lat="45.14066" lon="5.68093">
        <ele>502.39999389648</ele>
        <time>2015-03-31T10:46:11.000Z</time>
      </trkpt>
      <trkpt lat="45.14062" lon="5.68084">
        <ele>502.20001220703</ele>
        <time>2015-03-31T10:46:14.000Z</time>
      </trkpt>
      <trkpt lat="45.14058" lon="5.68077">
        <ele>501.79998779297</ele>
        <time>2015-03-31T10:46:16.000Z</time>
      </trkpt>
      <trkpt lat="45.14054" lon="5.68072">
        <ele>501.39999389648</ele>
        <time>2015-03-31T10:46:18.000Z</time>
      </trkpt>
      <trkpt lat="45.14051" lon="5.68068">
        <ele>501</ele>
        <time>2015-03-31T10:46:20.000Z</time>
      </trkpt>
      <trkpt lat="45.14046" lon="5.68064">
        <ele>500.79998779297</ele>
        <time>2015-03-31T10:46:22.000Z</time>
      </trkpt>
      <trkpt lat="45.14042" lon="5.68058">
        <ele>500.60000610352</ele>
        <time>2015-03-31T10:46:24.000Z</time>
      </trkpt>
      <trkpt lat="45.14038" lon="5.68053">
        <ele>500.39999389648</ele>
        <time>2015-03-31T10:46:26.000Z</time>
      </trkpt>
      <trkpt lat="45.14034" lon="5.68048">
        <ele>499.79998779297</ele>
        <time>2015-03-31T10:46:28.000Z</time>
      </trkpt>
      <trkpt lat="45.1403" lon="5.68043">
        <ele>499.39999389648</ele>
        <time>2015-03-31T10:46:30.000Z</time>
      </trkpt>
      <trkpt lat="45.14026" lon="5.68038">
        <ele>499</ele>
        <time>2015-03-31T10:46:32.000Z</time>
      </trkpt>
      <trkpt lat="45.14021" lon="5.68033">
        <ele>498.79998779297</ele>
        <time>2015-03-31T10:46:34.000Z</time>
      </trkpt>
      <trkpt lat="45.14018" lon="5.68028">
        <ele>498.60000610352</ele>
        <time>2015-03-31T10:46:36.000Z</time>
      </trkpt>
      <trkpt lat="45.14013" lon="5.68021">
        <ele>498.39999389648</ele>
        <time>2015-03-31T10:46:38.000Z</time>
      </trkpt>
      <trkpt lat="45.14009" lon="5.68016">
        <ele>498.20001220703</ele>
        <time>2015-03-31T10:46:40.000Z</time>
      </trkpt>
      <trkpt lat="45.14005" lon="5.68011">
        <ele>498</ele>
        <time>2015-03-31T10:46:42.000Z</time>
      </trkpt>
      <trkpt lat="45.14001" lon="5.68005">
        <ele>497.79998779297</ele>
        <time>2015-03-31T10:46:44.000Z</time>
      </trkpt>
      <trkpt lat="45.13996" lon="5.68">
        <ele>497.39999389648</ele>
        <time>2015-03-31T10:46:46.000Z</time>
      </trkpt>
      <trkpt lat="45.13992" lon="5.67995">
        <ele>497</ele>
        <time>2015-03-31T10:46:48.000Z</time>
      </trkpt>
      <trkpt lat="45.13988" lon="5.6799">
        <ele>496.79998779297</ele>
        <time>2015-03-31T10:46:50.000Z</time>
      </trkpt>
      <trkpt lat="45.13983" lon="5.67984">
        <ele>496.39999389648</ele>
        <time>2015-03-31T10:46:53.000Z</time>
      </trkpt>
      <trkpt lat="45.1398" lon="5.67979">
        <ele>496.20001220703</ele>
        <time>2015-03-31T10:46:55.000Z</time>
      </trkpt>
      <trkpt lat="45.13975" lon="5.67973">
        <ele>496</ele>
        <time>2015-03-31T10:46:57.000Z</time>
      </trkpt>
      <trkpt lat="45.1397" lon="5.67968">
        <ele>496</ele>
        <time>2015-03-31T10:46:59.000Z</time>
      </trkpt>
      <trkpt lat="45.13966" lon="5.67963">
        <ele>495.60000610352</ele>
        <time>2015-03-31T10:47:01.000Z</time>
      </trkpt>
      <trkpt lat="45.13961" lon="5.67957">
        <ele>495.20001220703</ele>
        <time>2015-03-31T10:47:03.000Z</time>
      </trkpt>
      <trkpt lat="45.13957" lon="5.6795">
        <ele>495</ele>
        <time>2015-03-31T10:47:05.000Z</time>
      </trkpt>
      <trkpt lat="45.13953" lon="5.67945">
        <ele>494.60000610352</ele>
        <time>2015-03-31T10:47:07.000Z</time>
      </trkpt>
      <trkpt lat="45.13949" lon="5.67939">
        <ele>494.39999389648</ele>
        <time>2015-03-31T10:47:09.000Z</time>
      </trkpt>
      <trkpt lat="45.13946" lon="5.67933">
        <ele>494.20001220703</ele>
        <time>2015-03-31T10:47:11.000Z</time>
      </trkpt>
      <trkpt lat="45.13942" lon="5.67927">
        <ele>493.79998779297</ele>
        <time>2015-03-31T10:47:13.000Z</time>
      </trkpt>
      <trkpt lat="45.13937" lon="5.67922">
        <ele>493.20001220703</ele>
        <time>2015-03-31T10:47:15.000Z</time>
      </trkpt>
      <trkpt lat="45.13933" lon="5.67918">
        <ele>493</ele>
        <time>2015-03-31T10:47:17.000Z</time>
      </trkpt>
      <trkpt lat="45.13929" lon="5.67912">
        <ele>492.60000610352</ele>
        <time>2015-03-31T10:47:19.000Z</time>
      </trkpt>
      <trkpt lat="45.13925" lon="5.67907">
        <ele>492.39999389648</ele>
        <time>2015-03-31T10:47:21.000Z</time>
      </trkpt>
      <trkpt lat="45.13922" lon="5.67902">
        <ele>492.20001220703</ele>
        <time>2015-03-31T10:47:23.000Z</time>
      </trkpt>
      <trkpt lat="45.13918" lon="5.67896">
        <ele>492</ele>
        <time>2015-03-31T10:47:25.000Z</time>
      </trkpt>
      <trkpt lat="45.13916" lon="5.67891">
        <ele>492</ele>
        <time>2015-03-31T10:47:27.000Z</time>
      </trkpt>
      <trkpt lat="45.13913" lon="5.67884">
        <ele>491.79998779297</ele>
        <time>2015-03-31T10:47:29.000Z</time>
      </trkpt>
      <trkpt lat="45.1391" lon="5.67879">
        <ele>491.60000610352</ele>
        <time>2015-03-31T10:47:31.000Z</time>
      </trkpt>
      <trkpt lat="45.13907" lon="5.67873">
        <ele>491.20001220703</ele>
        <time>2015-03-31T10:47:33.000Z</time>
      </trkpt>
      <trkpt lat="45.13903" lon="5.67867">
        <ele>490.79998779297</ele>
        <time>2015-03-31T10:47:35.000Z</time>
      </trkpt>
      <trkpt lat="45.139" lon="5.67861">
        <ele>490.60000610352</ele>
        <time>2015-03-31T10:47:37.000Z</time>
      </trkpt>
      <trkpt lat="45.13898" lon="5.67853">
        <ele>490.39999389648</ele>
        <time>2015-03-31T10:47:39.000Z</time>
      </trkpt>
      <trkpt lat="45.13894" lon="5.67847">
        <ele>490.20001220703</ele>
        <time>2015-03-31T10:47:41.000Z</time>
      </trkpt>
      <trkpt lat="45.13891" lon="5.67837">
        <ele>490</ele>
        <time>2015-03-31T10:47:44.000Z</time>
      </trkpt>
      <trkpt lat="45.1389" lon="5.67831">
        <ele>489.79998779297</ele>
        <time>2015-03-31T10:47:46.000Z</time>
      </trkpt>
      <trkpt lat="45.13891" lon="5.67819">
        <ele>489.20001220703</ele>
        <time>2015-03-31T10:47:50.000Z</time>
      </trkpt>
      <trkpt lat="45.13893" lon="5.67813">
        <ele>488.79998779297</ele>
        <time>2015-03-31T10:47:53.000Z</time>
      </trkpt>
      <trkpt lat="45.13893" lon="5.67806">
        <ele>488.39999389648</ele>
        <time>2015-03-31T10:47:56.000Z</time>
      </trkpt>
      <trkpt lat="45.13892" lon="5.67804">
        <ele>488.20001220703</ele>
        <time>2015-03-31T10:47:57.000Z</time>
      </trkpt>
      <trkpt lat="45.13886" lon="5.67793">
        <ele>488</ele>
        <time>2015-03-31T10:48:01.000Z</time>
      </trkpt>
      <trkpt lat="45.13882" lon="5.67785">
        <ele>487.79998779297</ele>
        <time>2015-03-31T10:48:04.000Z</time>
      </trkpt>
      <trkpt lat="45.13878" lon="5.67776">
        <ele>487.60000610352</ele>
        <time>2015-03-31T10:48:07.000Z</time>
      </trkpt>
      <trkpt lat="45.13874" lon="5.67769">
        <ele>487.60000610352</ele>
        <time>2015-03-31T10:48:11.000Z</time>
      </trkpt>
      <trkpt lat="45.13872" lon="5.67762">
        <ele>487.39999389648</ele>
        <time>2015-03-31T10:48:12.000Z</time>
      </trkpt>
      <trkpt lat="45.13869" lon="5.67751">
        <ele>486.79998779297</ele>
        <time>2015-03-31T10:48:15.000Z</time>
      </trkpt>
      <trkpt lat="45.13867" lon="5.6774">
        <ele>486.39999389648</ele>
        <time>2015-03-31T10:48:18.000Z</time>
      </trkpt>
      <trkpt lat="45.13866" lon="5.67732">
        <ele>486.20001220703</ele>
        <time>2015-03-31T10:48:20.000Z</time>
      </trkpt>
      <trkpt lat="45.13864" lon="5.67725">
        <ele>486</ele>
        <time>2015-03-31T10:48:22.000Z</time>
      </trkpt>
      <trkpt lat="45.13864" lon="5.67716">
        <ele>485.79998779297</ele>
        <time>2015-03-31T10:48:24.000Z</time>
      </trkpt>
      <trkpt lat="45.13863" lon="5.67709">
        <ele>485.79998779297</ele>
        <time>2015-03-31T10:48:26.000Z</time>
      </trkpt>
      <trkpt lat="45.13863" lon="5.67702">
        <ele>485.60000610352</ele>
        <time>2015-03-31T10:48:28.000Z</time>
      </trkpt>
      <trkpt lat="45.13864" lon="5.67694">
        <ele>485.60000610352</ele>
        <time>2015-03-31T10:48:30.000Z</time>
      </trkpt>
      <trkpt lat="45.13865" lon="5.67686">
        <ele>485.60000610352</ele>
        <time>2015-03-31T10:48:32.000Z</time>
      </trkpt>
      <trkpt lat="45.13864" lon="5.67674">
        <ele>485.60000610352</ele>
        <time>2015-03-31T10:48:35.000Z</time>
      </trkpt>
      <trkpt lat="45.13864" lon="5.6767">
        <ele>485.39999389648</ele>
        <time>2015-03-31T10:48:36.000Z</time>
      </trkpt>
      <trkpt lat="45.13861" lon="5.67659">
        <ele>485.39999389648</ele>
        <time>2015-03-31T10:48:39.000Z</time>
      </trkpt>
      <trkpt lat="45.13859" lon="5.67651">
        <ele>485.20001220703</ele>
        <time>2015-03-31T10:48:41.000Z</time>
      </trkpt>
      <trkpt lat="45.13856" lon="5.67644">
        <ele>484.79998779297</ele>
        <time>2015-03-31T10:48:43.000Z</time>
      </trkpt>
      <trkpt lat="45.13855" lon="5.6764">
        <ele>484.60000610352</ele>
        <time>2015-03-31T10:48:45.000Z</time>
      </trkpt>
      <trkpt lat="45.13854" lon="5.67629">
        <ele>484.20001220703</ele>
        <time>2015-03-31T10:48:47.000Z</time>
      </trkpt>
      <trkpt lat="45.13853" lon="5.67618">
        <ele>484</ele>
        <time>2015-03-31T10:48:51.000Z</time>
      </trkpt>
      <trkpt lat="45.13851" lon="5.67611">
        <ele>483.79998779297</ele>
        <time>2015-03-31T10:48:52.000Z</time>
      </trkpt>
      <trkpt lat="45.13851" lon="5.676">
        <ele>483.60000610352</ele>
        <time>2015-03-31T10:48:55.000Z</time>
      </trkpt>
      <trkpt lat="45.13852" lon="5.67587">
        <ele>483.20001220703</ele>
        <time>2015-03-31T10:48:57.000Z</time>
      </trkpt>
      <trkpt lat="45.13852" lon="5.67575">
        <ele>482.79998779297</ele>
        <time>2015-03-31T10:49:00.000Z</time>
      </trkpt>
      <trkpt lat="45.13851" lon="5.67563">
        <ele>482.39999389648</ele>
        <time>2015-03-31T10:49:02.000Z</time>
      </trkpt>
      <trkpt lat="45.13851" lon="5.67553">
        <ele>482.20001220703</ele>
        <time>2015-03-31T10:49:03.000Z</time>
      </trkpt>
      <trkpt lat="45.1385" lon="5.67542">
        <ele>482</ele>
        <time>2015-03-31T10:49:07.000Z</time>
      </trkpt>
      <trkpt lat="45.13848" lon="5.67534">
        <ele>481.39999389648</ele>
        <time>2015-03-31T10:49:09.000Z</time>
      </trkpt>
      <trkpt lat="45.13846" lon="5.67526">
        <ele>481</ele>
        <time>2015-03-31T10:49:11.000Z</time>
      </trkpt>
      <trkpt lat="45.13845" lon="5.67516">
        <ele>480.60000610352</ele>
        <time>2015-03-31T10:49:12.000Z</time>
      </trkpt>
      <trkpt lat="45.13844" lon="5.67508">
        <ele>480.39999389648</ele>
        <time>2015-03-31T10:49:15.000Z</time>
      </trkpt>
      <trkpt lat="45.13841" lon="5.67498">
        <ele>480</ele>
        <time>2015-03-31T10:49:17.000Z</time>
      </trkpt>
      <trkpt lat="45.13839" lon="5.67487">
        <ele>479.20001220703</ele>
        <time>2015-03-31T10:49:21.000Z</time>
      </trkpt>
      <trkpt lat="45.13839" lon="5.67475">
        <ele>478.60000610352</ele>
        <time>2015-03-31T10:49:24.000Z</time>
      </trkpt>
      <trkpt lat="45.13837" lon="5.67471">
        <ele>478.39999389648</ele>
        <time>2015-03-31T10:49:25.000Z</time>
      </trkpt>
      <trkpt lat="45.13831" lon="5.6746">
        <ele>478</ele>
        <time>2015-03-31T10:49:27.000Z</time>
      </trkpt>
      <trkpt lat="45.13825" lon="5.67452">
        <ele>477.39999389648</ele>
        <time>2015-03-31T10:49:30.000Z</time>
      </trkpt>
      <trkpt lat="45.1382" lon="5.67447">
        <ele>477</ele>
        <time>2015-03-31T10:49:32.000Z</time>
      </trkpt>
      <trkpt lat="45.13815" lon="5.67441">
        <ele>476.60000610352</ele>
        <time>2015-03-31T10:49:33.000Z</time>
      </trkpt>
      <trkpt lat="45.13809" lon="5.67434">
        <ele>476.20001220703</ele>
        <time>2015-03-31T10:49:36.000Z</time>
      </trkpt>
      <trkpt lat="45.13804" lon="5.67428">
        <ele>476</ele>
        <time>2015-03-31T10:49:37.000Z</time>
      </trkpt>
      <trkpt lat="45.13798" lon="5.67423">
        <ele>475.60000610352</ele>
        <time>2015-03-31T10:49:39.000Z</time>
      </trkpt>
      <trkpt lat="45.13793" lon="5.67419">
        <ele>475</ele>
        <time>2015-03-31T10:49:42.000Z</time>
      </trkpt>
      <trkpt lat="45.13787" lon="5.67415">
        <ele>474.60000610352</ele>
        <time>2015-03-31T10:49:44.000Z</time>
      </trkpt>
      <trkpt lat="45.13783" lon="5.67411">
        <ele>474.20001220703</ele>
        <time>2015-03-31T10:49:45.000Z</time>
      </trkpt>
      <trkpt lat="45.13777" lon="5.67408">
        <ele>474</ele>
        <time>2015-03-31T10:49:48.000Z</time>
      </trkpt>
      <trkpt lat="45.13772" lon="5.67405">
        <ele>473.79998779297</ele>
        <time>2015-03-31T10:49:50.000Z</time>
      </trkpt>
      <trkpt lat="45.13766" lon="5.67402">
        <ele>473.39999389648</ele>
        <time>2015-03-31T10:49:51.000Z</time>
      </trkpt>
      <trkpt lat="45.1376" lon="5.67398">
        <ele>472.79998779297</ele>
        <time>2015-03-31T10:49:54.000Z</time>
      </trkpt>
      <trkpt lat="45.13755" lon="5.67395">
        <ele>472.39999389648</ele>
        <time>2015-03-31T10:49:56.000Z</time>
      </trkpt>
      <trkpt lat="45.13751" lon="5.67392">
        <ele>472.20001220703</ele>
        <time>2015-03-31T10:49:57.000Z</time>
      </trkpt>
      <trkpt lat="45.13747" lon="5.6739">
        <ele>472</ele>
        <time>2015-03-31T10:49:58.000Z</time>
      </trkpt>
      <trkpt lat="45.13736" lon="5.67389">
        <ele>471.39999389648</ele>
        <time>2015-03-31T10:50:02.000Z</time>
      </trkpt>
      <trkpt lat="45.13731" lon="5.67387">
        <ele>470.79998779297</ele>
        <time>2015-03-31T10:50:03.000Z</time>
      </trkpt>
      <trkpt lat="45.13727" lon="5.67385">
        <ele>470.60000610352</ele>
        <time>2015-03-31T10:50:05.000Z</time>
      </trkpt>
      <trkpt lat="45.13721" lon="5.67383">
        <ele>470.20001220703</ele>
        <time>2015-03-31T10:50:07.000Z</time>
      </trkpt>
      <trkpt lat="45.13716" lon="5.6738">
        <ele>470</ele>
        <time>2015-03-31T10:50:09.000Z</time>
      </trkpt>
      <trkpt lat="45.1371" lon="5.67378">
        <ele>469.39999389648</ele>
        <time>2015-03-31T10:50:11.000Z</time>
      </trkpt>
      <trkpt lat="45.13705" lon="5.67374">
        <ele>468.79998779297</ele>
        <time>2015-03-31T10:50:12.000Z</time>
      </trkpt>
      <trkpt lat="45.13703" lon="5.67372">
        <ele>468.60000610352</ele>
        <time>2015-03-31T10:50:14.000Z</time>
      </trkpt>
      <trkpt lat="45.13694" lon="5.6737">
        <ele>468</ele>
        <time>2015-03-31T10:50:17.000Z</time>
      </trkpt>
      <trkpt lat="45.13687" lon="5.67368">
        <ele>467.39999389648</ele>
        <time>2015-03-31T10:50:19.000Z</time>
      </trkpt>
      <trkpt lat="45.13684" lon="5.67366">
        <ele>467</ele>
        <time>2015-03-31T10:50:20.000Z</time>
      </trkpt>
      <trkpt lat="45.13678" lon="5.67363">
        <ele>466.60000610352</ele>
        <time>2015-03-31T10:50:21.000Z</time>
      </trkpt>
      <trkpt lat="45.13673" lon="5.67359">
        <ele>466.20001220703</ele>
        <time>2015-03-31T10:50:24.000Z</time>
      </trkpt>
      <trkpt lat="45.13667" lon="5.67358">
        <ele>465.79998779297</ele>
        <time>2015-03-31T10:50:26.000Z</time>
      </trkpt>
      <trkpt lat="45.13664" lon="5.67357">
        <ele>465.79998779297</ele>
        <time>2015-03-31T10:50:27.000Z</time>
      </trkpt>
      <trkpt lat="45.13656" lon="5.67351">
        <ele>464.79998779297</ele>
        <time>2015-03-31T10:50:30.000Z</time>
      </trkpt>
      <trkpt lat="45.13651" lon="5.67349">
        <ele>464.39999389648</ele>
        <time>2015-03-31T10:50:32.000Z</time>
      </trkpt>
      <trkpt lat="45.13644" lon="5.67348">
        <ele>464</ele>
        <time>2015-03-31T10:50:33.000Z</time>
      </trkpt>
      <trkpt lat="45.13638" lon="5.67347">
        <ele>463.60000610352</ele>
        <time>2015-03-31T10:50:36.000Z</time>
      </trkpt>
      <trkpt lat="45.13632" lon="5.67344">
        <ele>463.39999389648</ele>
        <time>2015-03-31T10:50:37.000Z</time>
      </trkpt>
      <trkpt lat="45.13626" lon="5.67342">
        <ele>462.79998779297</ele>
        <time>2015-03-31T10:50:40.000Z</time>
      </trkpt>
      <trkpt lat="45.1362" lon="5.67339">
        <ele>462.39999389648</ele>
        <time>2015-03-31T10:50:42.000Z</time>
      </trkpt>
      <trkpt lat="45.13615" lon="5.67337">
        <ele>462</ele>
        <time>2015-03-31T10:50:44.000Z</time>
      </trkpt>
      <trkpt lat="45.1361" lon="5.67335">
        <ele>461.60000610352</ele>
        <time>2015-03-31T10:50:46.000Z</time>
      </trkpt>
      <trkpt lat="45.13608" lon="5.67334">
        <ele>461.39999389648</ele>
        <time>2015-03-31T10:50:47.000Z</time>
      </trkpt>
      <trkpt lat="45.13604" lon="5.67337">
        <ele>460.39999389648</ele>
        <time>2015-03-31T10:50:50.000Z</time>
      </trkpt>
      <trkpt lat="45.13602" lon="5.67343">
        <ele>459.79998779297</ele>
        <time>2015-03-31T10:50:54.000Z</time>
      </trkpt>
      <trkpt lat="45.13601" lon="5.67347">
        <ele>458.60000610352</ele>
        <time>2015-03-31T10:50:57.000Z</time>
      </trkpt>
      <trkpt lat="45.13598" lon="5.6735">
        <ele>458</ele>
        <time>2015-03-31T10:51:01.000Z</time>
      </trkpt>
      <trkpt lat="45.13596" lon="5.67352">
        <ele>457.79998779297</ele>
        <time>2015-03-31T10:51:02.000Z</time>
      </trkpt>
      <trkpt lat="45.13596" lon="5.67354">
        <ele>457.60000610352</ele>
        <time>2015-03-31T10:51:03.000Z</time>
      </trkpt>
      <trkpt lat="45.13595" lon="5.67359">
        <ele>456.79998779297</ele>
        <time>2015-03-31T10:51:06.000Z</time>
      </trkpt>
      <trkpt lat="45.13594" lon="5.67363">
        <ele>456</ele>
        <time>2015-03-31T10:51:09.000Z</time>
      </trkpt>
      <trkpt lat="45.13588" lon="5.67368">
        <ele>455.60000610352</ele>
        <time>2015-03-31T10:51:12.000Z</time>
      </trkpt>
      <trkpt lat="45.13582" lon="5.67373">
        <ele>455.20001220703</ele>
        <time>2015-03-31T10:51:15.000Z</time>
      </trkpt>
      <trkpt lat="45.13575" lon="5.67376">
        <ele>454.20001220703</ele>
        <time>2015-03-31T10:51:18.000Z</time>
      </trkpt>
      <trkpt lat="45.13571" lon="5.67379">
        <ele>453.79998779297</ele>
        <time>2015-03-31T10:51:20.000Z</time>
      </trkpt>
      <trkpt lat="45.13568" lon="5.67381">
        <ele>453.60000610352</ele>
        <time>2015-03-31T10:51:21.000Z</time>
      </trkpt>
      <trkpt lat="45.13564" lon="5.67385">
        <ele>453.39999389648</ele>
        <time>2015-03-31T10:51:23.000Z</time>
      </trkpt>
      <trkpt lat="45.13559" lon="5.67393">
        <ele>452.79998779297</ele>
        <time>2015-03-31T10:51:26.000Z</time>
      </trkpt>
      <trkpt lat="45.13554" lon="5.67397">
        <ele>452.20001220703</ele>
        <time>2015-03-31T10:51:27.000Z</time>
      </trkpt>
      <trkpt lat="45.13549" lon="5.67402">
        <ele>451.60000610352</ele>
        <time>2015-03-31T10:51:31.000Z</time>
      </trkpt>
      <trkpt lat="45.13548" lon="5.67404">
        <ele>451.39999389648</ele>
        <time>2015-03-31T10:51:32.000Z</time>
      </trkpt>
      <trkpt lat="45.13547" lon="5.67411">
        <ele>450.79998779297</ele>
        <time>2015-03-31T10:51:35.000Z</time>
      </trkpt>
      <trkpt lat="45.13547" lon="5.67413">
        <ele>450.79998779297</ele>
        <time>2015-03-31T10:51:36.000Z</time>
      </trkpt>
      <trkpt lat="45.13545" lon="5.67416">
        <ele>450.20001220703</ele>
        <time>2015-03-31T10:51:38.000Z</time>
      </trkpt>
      <trkpt lat="45.13543" lon="5.67424">
        <ele>449.20001220703</ele>
        <time>2015-03-31T10:51:42.000Z</time>
      </trkpt>
      <trkpt lat="45.13541" lon="5.67425">
        <ele>449.20001220703</ele>
        <time>2015-03-31T10:51:43.000Z</time>
      </trkpt>
      <trkpt lat="45.13534" lon="5.6743">
        <ele>448.79998779297</ele>
        <time>2015-03-31T10:51:46.000Z</time>
      </trkpt>
      <trkpt lat="45.1353" lon="5.67434">
        <ele>448.60000610352</ele>
        <time>2015-03-31T10:51:48.000Z</time>
      </trkpt>
      <trkpt lat="45.13529" lon="5.67437">
        <ele>448.39999389648</ele>
        <time>2015-03-31T10:51:49.000Z</time>
      </trkpt>
      <trkpt lat="45.13527" lon="5.67445">
        <ele>447.20001220703</ele>
        <time>2015-03-31T10:51:55.000Z</time>
      </trkpt>
      <trkpt lat="45.13525" lon="5.67451">
        <ele>446.60000610352</ele>
        <time>2015-03-31T10:51:59.000Z</time>
      </trkpt>
      <trkpt lat="45.13523" lon="5.67455">
        <ele>446.20001220703</ele>
        <time>2015-03-31T10:52:02.000Z</time>
      </trkpt>
      <trkpt lat="45.13522" lon="5.67461">
        <ele>446</ele>
        <time>2015-03-31T10:52:06.000Z</time>
      </trkpt>
      <trkpt lat="45.13522" lon="5.67462">
        <ele>446</ele>
        <time>2015-03-31T10:52:07.000Z</time>
      </trkpt>
      <trkpt lat="45.13521" lon="5.67464">
        <ele>445.79998779297</ele>
        <time>2015-03-31T10:52:09.000Z</time>
      </trkpt>
      <trkpt lat="45.13519" lon="5.67469">
        <ele>445.79998779297</ele>
        <time>2015-03-31T10:52:13.000Z</time>
      </trkpt>
      <trkpt lat="45.13517" lon="5.67475">
        <ele>445.60000610352</ele>
        <time>2015-03-31T10:52:17.000Z</time>
      </trkpt>
      <trkpt lat="45.13516" lon="5.6748">
        <ele>445.60000610352</ele>
        <time>2015-03-31T10:52:21.000Z</time>
      </trkpt>
      <trkpt lat="45.13516" lon="5.67481">
        <ele>445.60000610352</ele>
        <time>2015-03-31T10:52:22.000Z</time>
      </trkpt>
      <trkpt lat="45.13515" lon="5.67483">
        <ele>445.60000610352</ele>
        <time>2015-03-31T10:52:24.000Z</time>
      </trkpt>
      <trkpt lat="45.13513" lon="5.6749">
        <ele>445.60000610352</ele>
        <time>2015-03-31T10:52:29.000Z</time>
      </trkpt>
      <trkpt lat="45.1351" lon="5.67493">
        <ele>445.60000610352</ele>
        <time>2015-03-31T10:52:34.000Z</time>
      </trkpt>
      <trkpt lat="45.13509" lon="5.67495">
        <ele>445.60000610352</ele>
        <time>2015-03-31T10:52:37.000Z</time>
      </trkpt>
      <trkpt lat="45.13506" lon="5.675">
        <ele>445.60000610352</ele>
        <time>2015-03-31T10:52:42.000Z</time>
      </trkpt>
      <trkpt lat="45.13505" lon="5.67502">
        <ele>445.60000610352</ele>
        <time>2015-03-31T10:52:44.000Z</time>
      </trkpt>
      <trkpt lat="45.13502" lon="5.67507">
        <ele>445.39999389648</ele>
        <time>2015-03-31T10:52:50.000Z</time>
      </trkpt>
      <trkpt lat="45.135" lon="5.67512">
        <ele>445.39999389648</ele>
        <time>2015-03-31T10:52:55.000Z</time>
      </trkpt>
      <trkpt lat="45.13499" lon="5.67514">
        <ele>445.39999389648</ele>
        <time>2015-03-31T10:52:57.000Z</time>
      </trkpt>
      <trkpt lat="45.13497" lon="5.67516">
        <ele>445.39999389648</ele>
        <time>2015-03-31T10:53:00.000Z</time>
      </trkpt>
      <trkpt lat="45.13496" lon="5.67521">
        <ele>445.39999389648</ele>
        <time>2015-03-31T10:53:03.000Z</time>
      </trkpt>
      <trkpt lat="45.13497" lon="5.67528">
        <ele>445.39999389648</ele>
        <time>2015-03-31T10:53:08.000Z</time>
      </trkpt>
      <trkpt lat="45.13497" lon="5.67529">
        <ele>445.39999389648</ele>
        <time>2015-03-31T10:53:09.000Z</time>
      </trkpt>
      <trkpt lat="45.13499" lon="5.67534">
        <ele>445.39999389648</ele>
        <time>2015-03-31T10:53:14.000Z</time>
      </trkpt>
      <trkpt lat="45.13499" lon="5.67535">
        <ele>445.39999389648</ele>
        <time>2015-03-31T10:53:15.000Z</time>
      </trkpt>
      <trkpt lat="45.13499" lon="5.67536">
        <ele>445.39999389648</ele>
        <time>2015-03-31T10:53:16.000Z</time>
      </trkpt>
      <trkpt lat="45.13497" lon="5.67541">
        <ele>446</ele>
        <time>2015-03-31T10:53:20.000Z</time>
      </trkpt>
      <trkpt lat="45.13497" lon="5.67542">
        <ele>446</ele>
        <time>2015-03-31T10:53:21.000Z</time>
      </trkpt>
      <trkpt lat="45.13495" lon="5.67546">
        <ele>446.60000610352</ele>
        <time>2015-03-31T10:53:25.000Z</time>
      </trkpt>
      <trkpt lat="45.13496" lon="5.67551">
        <ele>447.39999389648</ele>
        <time>2015-03-31T10:53:31.000Z</time>
      </trkpt>
      <trkpt lat="45.13494" lon="5.67555">
        <ele>448.20001220703</ele>
        <time>2015-03-31T10:53:35.000Z</time>
      </trkpt>
      <trkpt lat="45.13496" lon="5.67558">
        <ele>448.39999389648</ele>
        <time>2015-03-31T10:53:36.000Z</time>
      </trkpt>
      <trkpt lat="45.13497" lon="5.67561">
        <ele>448.79998779297</ele>
        <time>2015-03-31T10:53:39.000Z</time>
      </trkpt>
      <trkpt lat="45.13497" lon="5.67566">
        <ele>450.20001220703</ele>
        <time>2015-03-31T10:53:45.000Z</time>
      </trkpt>
      <trkpt lat="45.13497" lon="5.67571">
        <ele>450.79998779297</ele>
        <time>2015-03-31T10:53:49.000Z</time>
      </trkpt>
      <trkpt lat="45.13496" lon="5.67575">
        <ele>451.79998779297</ele>
        <time>2015-03-31T10:53:55.000Z</time>
      </trkpt>
      <trkpt lat="45.13494" lon="5.67578">
        <ele>452.60000610352</ele>
        <time>2015-03-31T10:54:00.000Z</time>
      </trkpt>
      <trkpt lat="45.13496" lon="5.67584">
        <ele>453.39999389648</ele>
        <time>2015-03-31T10:54:04.000Z</time>
      </trkpt>
      <trkpt lat="45.13497" lon="5.67589">
        <ele>454.39999389648</ele>
        <time>2015-03-31T10:54:09.000Z</time>
      </trkpt>
      <trkpt lat="45.13496" lon="5.6759">
        <ele>454.60000610352</ele>
        <time>2015-03-31T10:54:10.000Z</time>
      </trkpt>
      <trkpt lat="45.13496" lon="5.67592">
        <ele>455</ele>
        <time>2015-03-31T10:54:13.000Z</time>
      </trkpt>
      <trkpt lat="45.13497" lon="5.67597">
        <ele>456.39999389648</ele>
        <time>2015-03-31T10:54:19.000Z</time>
      </trkpt>
      <trkpt lat="45.135" lon="5.67601">
        <ele>457.20001220703</ele>
        <time>2015-03-31T10:54:23.000Z</time>
      </trkpt>
      <trkpt lat="45.13501" lon="5.67606">
        <ele>458.39999389648</ele>
        <time>2015-03-31T10:54:29.000Z</time>
      </trkpt>
      <trkpt lat="45.13504" lon="5.67609">
        <ele>459.79998779297</ele>
        <time>2015-03-31T10:54:35.000Z</time>
      </trkpt>
      <trkpt lat="45.13504" lon="5.67613">
        <ele>460.60000610352</ele>
        <time>2015-03-31T10:54:39.000Z</time>
      </trkpt>
      <trkpt lat="45.13503" lon="5.67617">
        <ele>461</ele>
        <time>2015-03-31T10:54:41.000Z</time>
      </trkpt>
      <trkpt lat="45.13502" lon="5.67624">
        <ele>462</ele>
        <time>2015-03-31T10:54:46.000Z</time>
      </trkpt>
      <trkpt lat="45.13502" lon="5.6763">
        <ele>462.79998779297</ele>
        <time>2015-03-31T10:54:50.000Z</time>
      </trkpt>
      <trkpt lat="45.13503" lon="5.67632">
        <ele>463</ele>
        <time>2015-03-31T10:54:52.000Z</time>
      </trkpt>
      <trkpt lat="45.13505" lon="5.67632">
        <ele>463.79998779297</ele>
        <time>2015-03-31T10:54:54.000Z</time>
      </trkpt>
      <trkpt lat="45.13508" lon="5.67633">
        <ele>464.20001220703</ele>
        <time>2015-03-31T10:54:56.000Z</time>
      </trkpt>
      <trkpt lat="45.1351" lon="5.67638">
        <ele>465.20001220703</ele>
        <time>2015-03-31T10:55:01.000Z</time>
      </trkpt>
      <trkpt lat="45.13511" lon="5.67639">
        <ele>465.60000610352</ele>
        <time>2015-03-31T10:55:02.000Z</time>
      </trkpt>
      <trkpt lat="45.13513" lon="5.67638">
        <ele>466.39999389648</ele>
        <time>2015-03-31T10:55:05.000Z</time>
      </trkpt>
      <trkpt lat="45.13516" lon="5.6764">
        <ele>467.20001220703</ele>
        <time>2015-03-31T10:55:09.000Z</time>
      </trkpt>
      <trkpt lat="45.13517" lon="5.67646">
        <ele>468.39999389648</ele>
        <time>2015-03-31T10:55:13.000Z</time>
      </trkpt>
      <trkpt lat="45.13517" lon="5.67652">
        <ele>469.20001220703</ele>
        <time>2015-03-31T10:55:17.000Z</time>
      </trkpt>
      <trkpt lat="45.13518" lon="5.67653">
        <ele>469.60000610352</ele>
        <time>2015-03-31T10:55:18.000Z</time>
      </trkpt>
      <trkpt lat="45.1352" lon="5.67658">
        <ele>471</ele>
        <time>2015-03-31T10:55:23.000Z</time>
      </trkpt>
      <trkpt lat="45.13523" lon="5.67664">
        <ele>472.20001220703</ele>
        <time>2015-03-31T10:55:27.000Z</time>
      </trkpt>
      <trkpt lat="45.13523" lon="5.67664">
        <ele>472.39999389648</ele>
        <time>2015-03-31T10:55:28.000Z</time>
      </trkpt>
      <trkpt lat="45.13523" lon="5.6767">
        <ele>473.39999389648</ele>
        <time>2015-03-31T10:55:32.000Z</time>
      </trkpt>
      <trkpt lat="45.13525" lon="5.67673">
        <ele>474.20001220703</ele>
        <time>2015-03-31T10:55:35.000Z</time>
      </trkpt>
      <trkpt lat="45.13527" lon="5.67681">
        <ele>475.20001220703</ele>
        <time>2015-03-31T10:55:39.000Z</time>
      </trkpt>
      <trkpt lat="45.13527" lon="5.67683">
        <ele>475.39999389648</ele>
        <time>2015-03-31T10:55:40.000Z</time>
      </trkpt>
      <trkpt lat="45.13529" lon="5.67688">
        <ele>476.39999389648</ele>
        <time>2015-03-31T10:55:43.000Z</time>
      </trkpt>
      <trkpt lat="45.13529" lon="5.6769">
        <ele>476.79998779297</ele>
        <time>2015-03-31T10:55:44.000Z</time>
      </trkpt>
      <trkpt lat="45.13527" lon="5.67695">
        <ele>477.39999389648</ele>
        <time>2015-03-31T10:55:47.000Z</time>
      </trkpt>
      <trkpt lat="45.13524" lon="5.677">
        <ele>478.39999389648</ele>
        <time>2015-03-31T10:55:50.000Z</time>
      </trkpt>
      <trkpt lat="45.13522" lon="5.67701">
        <ele>478.79998779297</ele>
        <time>2015-03-31T10:55:51.000Z</time>
      </trkpt>
      <trkpt lat="45.13518" lon="5.67704">
        <ele>479.20001220703</ele>
        <time>2015-03-31T10:55:53.000Z</time>
      </trkpt>
      <trkpt lat="45.13517" lon="5.67711">
        <ele>480</ele>
        <time>2015-03-31T10:55:56.000Z</time>
      </trkpt>
      <trkpt lat="45.13518" lon="5.6772">
        <ele>481.20001220703</ele>
        <time>2015-03-31T10:55:59.000Z</time>
      </trkpt>
      <trkpt lat="45.13519" lon="5.67722">
        <ele>481.39999389648</ele>
        <time>2015-03-31T10:56:01.000Z</time>
      </trkpt>
      <trkpt lat="45.13518" lon="5.67729">
        <ele>482.39999389648</ele>
        <time>2015-03-31T10:56:05.000Z</time>
      </trkpt>
      <trkpt lat="45.13518" lon="5.6773">
        <ele>482.79998779297</ele>
        <time>2015-03-31T10:56:06.000Z</time>
      </trkpt>
      <trkpt lat="45.13517" lon="5.67732">
        <ele>483.39999389648</ele>
        <time>2015-03-31T10:56:08.000Z</time>
      </trkpt>
      <trkpt lat="45.13513" lon="5.67733">
        <ele>484</ele>
        <time>2015-03-31T10:56:11.000Z</time>
      </trkpt>
      <trkpt lat="45.13508" lon="5.67732">
        <ele>485</ele>
        <time>2015-03-31T10:56:14.000Z</time>
      </trkpt>
      <trkpt lat="45.13505" lon="5.67731">
        <ele>485.79998779297</ele>
        <time>2015-03-31T10:56:17.000Z</time>
      </trkpt>
      <trkpt lat="45.13503" lon="5.67732">
        <ele>486</ele>
        <time>2015-03-31T10:56:18.000Z</time>
      </trkpt>
      <trkpt lat="45.13501" lon="5.6773">
        <ele>487</ele>
        <time>2015-03-31T10:56:21.000Z</time>
      </trkpt>
      <trkpt lat="45.13497" lon="5.6773">
        <ele>487.79998779297</ele>
        <time>2015-03-31T10:56:24.000Z</time>
      </trkpt>
      <trkpt lat="45.13495" lon="5.6773">
        <ele>488.20001220703</ele>
        <time>2015-03-31T10:56:26.000Z</time>
      </trkpt>
      <trkpt lat="45.1349" lon="5.6773">
        <ele>489.60000610352</ele>
        <time>2015-03-31T10:56:30.000Z</time>
      </trkpt>
      <trkpt lat="45.13489" lon="5.6773">
        <ele>489.79998779297</ele>
        <time>2015-03-31T10:56:31.000Z</time>
      </trkpt>
      <trkpt lat="45.13484" lon="5.67729">
        <ele>490.60000610352</ele>
        <time>2015-03-31T10:56:34.000Z</time>
      </trkpt>
      <trkpt lat="45.13478" lon="5.67729">
        <ele>491.60000610352</ele>
        <time>2015-03-31T10:56:37.000Z</time>
      </trkpt>
      <trkpt lat="45.13472" lon="5.67729">
        <ele>492.39999389648</ele>
        <time>2015-03-31T10:56:40.000Z</time>
      </trkpt>
      <trkpt lat="45.13471" lon="5.67731">
        <ele>492.79998779297</ele>
        <time>2015-03-31T10:56:41.000Z</time>
      </trkpt>
      <trkpt lat="45.13469" lon="5.67735">
        <ele>493.79998779297</ele>
        <time>2015-03-31T10:56:44.000Z</time>
      </trkpt>
      <trkpt lat="45.13471" lon="5.67737">
        <ele>495</ele>
        <time>2015-03-31T10:56:48.000Z</time>
      </trkpt>
      <trkpt lat="45.13473" lon="5.67739">
        <ele>496.20001220703</ele>
        <time>2015-03-31T10:56:52.000Z</time>
      </trkpt>
      <trkpt lat="45.13475" lon="5.67741">
        <ele>497</ele>
        <time>2015-03-31T10:56:55.000Z</time>
      </trkpt>
      <trkpt lat="45.13475" lon="5.67746">
        <ele>498.20001220703</ele>
        <time>2015-03-31T10:56:59.000Z</time>
      </trkpt>
      <trkpt lat="45.13476" lon="5.67753">
        <ele>499.79998779297</ele>
        <time>2015-03-31T10:57:04.000Z</time>
      </trkpt>
      <trkpt lat="45.13477" lon="5.67758">
        <ele>500.79998779297</ele>
        <time>2015-03-31T10:57:08.000Z</time>
      </trkpt>
      <trkpt lat="45.13476" lon="5.67757">
        <ele>501.20001220703</ele>
        <time>2015-03-31T10:57:09.000Z</time>
      </trkpt>
      <trkpt lat="45.13473" lon="5.67757">
        <ele>502.20001220703</ele>
        <time>2015-03-31T10:57:12.000Z</time>
      </trkpt>
      <trkpt lat="45.13471" lon="5.67762">
        <ele>503.20001220703</ele>
        <time>2015-03-31T10:57:16.000Z</time>
      </trkpt>
      <trkpt lat="45.13472" lon="5.6777">
        <ele>504.20001220703</ele>
        <time>2015-03-31T10:57:19.000Z</time>
      </trkpt>
      <trkpt lat="45.13472" lon="5.67772">
        <ele>504.39999389648</ele>
        <time>2015-03-31T10:57:20.000Z</time>
      </trkpt>
      <trkpt lat="45.13473" lon="5.67775">
        <ele>505</ele>
        <time>2015-03-31T10:57:22.000Z</time>
      </trkpt>
      <trkpt lat="45.13475" lon="5.67778">
        <ele>505.39999389648</ele>
        <time>2015-03-31T10:57:24.000Z</time>
      </trkpt>
      <trkpt lat="45.13477" lon="5.67781">
        <ele>506.60000610352</ele>
        <time>2015-03-31T10:57:27.000Z</time>
      </trkpt>
      <trkpt lat="45.13475" lon="5.67783">
        <ele>511</ele>
        <time>2015-03-31T10:57:42.000Z</time>
      </trkpt>
      <trkpt lat="45.13477" lon="5.67786">
        <ele>517.20001220703</ele>
        <time>2015-03-31T10:58:01.000Z</time>
      </trkpt>
      <trkpt lat="45.13478" lon="5.67786">
        <ele>521</ele>
        <time>2015-03-31T10:58:15.000Z</time>
      </trkpt>
      <trkpt lat="45.13481" lon="5.67788">
        <ele>522.79998779297</ele>
        <time>2015-03-31T10:58:23.000Z</time>
      </trkpt>
      <trkpt lat="45.13481" lon="5.67784">
        <ele>523.59997558594</ele>
        <time>2015-03-31T10:58:27.000Z</time>
      </trkpt>
      <trkpt lat="45.1348" lon="5.67781">
        <ele>524.20001220703</ele>
        <time>2015-03-31T10:58:29.000Z</time>
      </trkpt>
      <trkpt lat="45.13481" lon="5.67778">
        <ele>524.79998779297</ele>
        <time>2015-03-31T10:58:32.000Z</time>
      </trkpt>
      <trkpt lat="45.13488" lon="5.67781">
        <ele>525.20001220703</ele>
        <time>2015-03-31T10:58:35.000Z</time>
      </trkpt>
      <trkpt lat="45.13493" lon="5.67784">
        <ele>525.40002441406</ele>
        <time>2015-03-31T10:58:37.000Z</time>
      </trkpt>
      <trkpt lat="45.13498" lon="5.67786">
        <ele>525.59997558594</ele>
        <time>2015-03-31T10:58:39.000Z</time>
      </trkpt>
      <trkpt lat="45.13503" lon="5.67794">
        <ele>525.59997558594</ele>
        <time>2015-03-31T10:58:41.000Z</time>
      </trkpt>
      <trkpt lat="45.13505" lon="5.67795">
        <ele>525.79998779297</ele>
        <time>2015-03-31T10:58:42.000Z</time>
      </trkpt>
      <trkpt lat="45.13512" lon="5.67795">
        <ele>526</ele>
        <time>2015-03-31T10:58:45.000Z</time>
      </trkpt>
      <trkpt lat="45.13515" lon="5.67796">
        <ele>526</ele>
        <time>2015-03-31T10:58:46.000Z</time>
      </trkpt>
      <trkpt lat="45.13522" lon="5.67797">
        <ele>526</ele>
        <time>2015-03-31T10:58:49.000Z</time>
      </trkpt>
      <trkpt lat="45.13526" lon="5.678">
        <ele>526.20001220703</ele>
        <time>2015-03-31T10:58:50.000Z</time>
      </trkpt>
      <trkpt lat="45.13528" lon="5.67803">
        <ele>526.20001220703</ele>
        <time>2015-03-31T10:58:51.000Z</time>
      </trkpt>
      <trkpt lat="45.13532" lon="5.67813">
        <ele>526.20001220703</ele>
        <time>2015-03-31T10:58:55.000Z</time>
      </trkpt>
      <trkpt lat="45.13533" lon="5.67819">
        <ele>526.20001220703</ele>
        <time>2015-03-31T10:58:57.000Z</time>
      </trkpt>
      <trkpt lat="45.13538" lon="5.67825">
        <ele>526.20001220703</ele>
        <time>2015-03-31T10:59:00.000Z</time>
      </trkpt>
      <trkpt lat="45.13543" lon="5.67828">
        <ele>526.20001220703</ele>
        <time>2015-03-31T10:59:03.000Z</time>
      </trkpt>
      <trkpt lat="45.13549" lon="5.67829">
        <ele>526.20001220703</ele>
        <time>2015-03-31T10:59:06.000Z</time>
      </trkpt>
      <trkpt lat="45.13551" lon="5.6783">
        <ele>526.20001220703</ele>
        <time>2015-03-31T10:59:07.000Z</time>
      </trkpt>
      <trkpt lat="45.13558" lon="5.67834">
        <ele>526.20001220703</ele>
        <time>2015-03-31T10:59:10.000Z</time>
      </trkpt>
      <trkpt lat="45.13564" lon="5.67838">
        <ele>526.40002441406</ele>
        <time>2015-03-31T10:59:13.000Z</time>
      </trkpt>
      <trkpt lat="45.13569" lon="5.6784">
        <ele>526.40002441406</ele>
        <time>2015-03-31T10:59:16.000Z</time>
      </trkpt>
      <trkpt lat="45.13571" lon="5.67841">
        <ele>526.40002441406</ele>
        <time>2015-03-31T10:59:17.000Z</time>
      </trkpt>
      <trkpt lat="45.13579" lon="5.67838">
        <ele>526.40002441406</ele>
        <time>2015-03-31T10:59:20.000Z</time>
      </trkpt>
      <trkpt lat="45.1359" lon="5.67831">
        <ele>526.40002441406</ele>
        <time>2015-03-31T10:59:26.000Z</time>
      </trkpt>
      <trkpt lat="45.13588" lon="5.67828">
        <ele>526.40002441406</ele>
        <time>2015-03-31T10:59:28.000Z</time>
      </trkpt>
      <trkpt lat="45.13585" lon="5.67823">
        <ele>526.40002441406</ele>
        <time>2015-03-31T10:59:30.000Z</time>
      </trkpt>
      <trkpt lat="45.13583" lon="5.67817">
        <ele>526.40002441406</ele>
        <time>2015-03-31T10:59:32.000Z</time>
      </trkpt>
      <trkpt lat="45.13584" lon="5.6781">
        <ele>526.40002441406</ele>
        <time>2015-03-31T10:59:34.000Z</time>
      </trkpt>
      <trkpt lat="45.13584" lon="5.67802">
        <ele>526.40002441406</ele>
        <time>2015-03-31T10:59:36.000Z</time>
      </trkpt>
      <trkpt lat="45.13583" lon="5.67796">
        <ele>526.40002441406</ele>
        <time>2015-03-31T10:59:38.000Z</time>
      </trkpt>
      <trkpt lat="45.1358" lon="5.67788">
        <ele>526.40002441406</ele>
        <time>2015-03-31T10:59:41.000Z</time>
      </trkpt>
      <trkpt lat="45.13578" lon="5.67782">
        <ele>526.40002441406</ele>
        <time>2015-03-31T10:59:43.000Z</time>
      </trkpt>
      <trkpt lat="45.13576" lon="5.67776">
        <ele>526.40002441406</ele>
        <time>2015-03-31T10:59:45.000Z</time>
      </trkpt>
      <trkpt lat="45.13574" lon="5.6777">
        <ele>526.40002441406</ele>
        <time>2015-03-31T10:59:47.000Z</time>
      </trkpt>
      <trkpt lat="45.13571" lon="5.67764">
        <ele>526.40002441406</ele>
        <time>2015-03-31T10:59:49.000Z</time>
      </trkpt>
      <trkpt lat="45.13567" lon="5.6776">
        <ele>526.40002441406</ele>
        <time>2015-03-31T10:59:51.000Z</time>
      </trkpt>
      <trkpt lat="45.13562" lon="5.67753">
        <ele>526.40002441406</ele>
        <time>2015-03-31T10:59:54.000Z</time>
      </trkpt>
      <trkpt lat="45.13559" lon="5.6775">
        <ele>526.40002441406</ele>
        <time>2015-03-31T10:59:55.000Z</time>
      </trkpt>
      <trkpt lat="45.13554" lon="5.67741">
        <ele>526.40002441406</ele>
        <time>2015-03-31T10:59:59.000Z</time>
      </trkpt>
      <trkpt lat="45.13551" lon="5.67735">
        <ele>526.40002441406</ele>
        <time>2015-03-31T11:00:01.000Z</time>
      </trkpt>
      <trkpt lat="45.13551" lon="5.67729">
        <ele>526.40002441406</ele>
        <time>2015-03-31T11:00:03.000Z</time>
      </trkpt>
      <trkpt lat="45.13551" lon="5.67726">
        <ele>526.40002441406</ele>
        <time>2015-03-31T11:00:04.000Z</time>
      </trkpt>
      <trkpt lat="45.13556" lon="5.67716">
        <ele>526.40002441406</ele>
        <time>2015-03-31T11:00:08.000Z</time>
      </trkpt>
      <trkpt lat="45.13559" lon="5.67709">
        <ele>526.40002441406</ele>
        <time>2015-03-31T11:00:11.000Z</time>
      </trkpt>
      <trkpt lat="45.13561" lon="5.67703">
        <ele>526.40002441406</ele>
        <time>2015-03-31T11:00:13.000Z</time>
      </trkpt>
      <trkpt lat="45.13563" lon="5.67697">
        <ele>526.40002441406</ele>
        <time>2015-03-31T11:00:15.000Z</time>
      </trkpt>
      <trkpt lat="45.13566" lon="5.67689">
        <ele>526.40002441406</ele>
        <time>2015-03-31T11:00:18.000Z</time>
      </trkpt>
      <trkpt lat="45.1357" lon="5.67682">
        <ele>526.40002441406</ele>
        <time>2015-03-31T11:00:21.000Z</time>
      </trkpt>
      <trkpt lat="45.13573" lon="5.67679">
        <ele>526.40002441406</ele>
        <time>2015-03-31T11:00:23.000Z</time>
      </trkpt>
      <trkpt lat="45.13579" lon="5.67669">
        <ele>526.40002441406</ele>
        <time>2015-03-31T11:00:27.000Z</time>
      </trkpt>
      <trkpt lat="45.13585" lon="5.67663">
        <ele>526.40002441406</ele>
        <time>2015-03-31T11:00:32.000Z</time>
      </trkpt>
      <trkpt lat="45.13589" lon="5.67657">
        <ele>526.40002441406</ele>
        <time>2015-03-31T11:00:35.000Z</time>
      </trkpt>
      <trkpt lat="45.13591" lon="5.67652">
        <ele>526.40002441406</ele>
        <time>2015-03-31T11:00:37.000Z</time>
      </trkpt>
      <trkpt lat="45.13599" lon="5.67647">
        <ele>526.40002441406</ele>
        <time>2015-03-31T11:00:41.000Z</time>
      </trkpt>
      <trkpt lat="45.13602" lon="5.67642">
        <ele>526.40002441406</ele>
        <time>2015-03-31T11:00:43.000Z</time>
      </trkpt>
      <trkpt lat="45.13604" lon="5.67638">
        <ele>526.40002441406</ele>
        <time>2015-03-31T11:00:46.000Z</time>
      </trkpt>
      <trkpt lat="45.13606" lon="5.67635">
        <ele>526.40002441406</ele>
        <time>2015-03-31T11:00:48.000Z</time>
      </trkpt>
      <trkpt lat="45.13609" lon="5.67633">
        <ele>526.40002441406</ele>
        <time>2015-03-31T11:00:52.000Z</time>
      </trkpt>
      <trkpt lat="45.1361" lon="5.67633">
        <ele>526.40002441406</ele>
        <time>2015-03-31T11:00:54.000Z</time>
      </trkpt>
      <trkpt lat="45.13613" lon="5.6763">
        <ele>526.40002441406</ele>
        <time>2015-03-31T11:00:58.000Z</time>
      </trkpt>
      <trkpt lat="45.13614" lon="5.6763">
        <ele>526.40002441406</ele>
        <time>2015-03-31T11:00:59.000Z</time>
      </trkpt>
      <trkpt lat="45.13614" lon="5.67625">
        <ele>526.40002441406</ele>
        <time>2015-03-31T11:01:01.000Z</time>
      </trkpt>
      <trkpt lat="45.13621" lon="5.67624">
        <ele>526.40002441406</ele>
        <time>2015-03-31T11:01:04.000Z</time>
      </trkpt>
      <trkpt lat="45.13626" lon="5.67619">
        <ele>526.40002441406</ele>
        <time>2015-03-31T11:01:07.000Z</time>
      </trkpt>
      <trkpt lat="45.13632" lon="5.67617">
        <ele>526.40002441406</ele>
        <time>2015-03-31T11:01:10.000Z</time>
      </trkpt>
      <trkpt lat="45.13639" lon="5.67617">
        <ele>526.40002441406</ele>
        <time>2015-03-31T11:01:13.000Z</time>
      </trkpt>
      <trkpt lat="45.13641" lon="5.6762">
        <ele>526.40002441406</ele>
        <time>2015-03-31T11:01:14.000Z</time>
      </trkpt>
      <trkpt lat="45.13646" lon="5.67626">
        <ele>526.40002441406</ele>
        <time>2015-03-31T11:01:17.000Z</time>
      </trkpt>
      <trkpt lat="45.13652" lon="5.67628">
        <ele>526.40002441406</ele>
        <time>2015-03-31T11:01:19.000Z</time>
      </trkpt>
      <trkpt lat="45.13658" lon="5.67634">
        <ele>526</ele>
        <time>2015-03-31T11:01:22.000Z</time>
      </trkpt>
      <trkpt lat="45.13663" lon="5.67641">
        <ele>525.40002441406</ele>
        <time>2015-03-31T11:01:25.000Z</time>
      </trkpt>
      <trkpt lat="45.13663" lon="5.67643">
        <ele>525.40002441406</ele>
        <time>2015-03-31T11:01:26.000Z</time>
      </trkpt>
      <trkpt lat="45.13664" lon="5.67647">
        <ele>525.20001220703</ele>
        <time>2015-03-31T11:01:28.000Z</time>
      </trkpt>
      <trkpt lat="45.13667" lon="5.67652">
        <ele>525</ele>
        <time>2015-03-31T11:01:31.000Z</time>
      </trkpt>
      <trkpt lat="45.1367" lon="5.67658">
        <ele>524.79998779297</ele>
        <time>2015-03-31T11:01:34.000Z</time>
      </trkpt>
      <trkpt lat="45.13672" lon="5.67665">
        <ele>524.59997558594</ele>
        <time>2015-03-31T11:01:36.000Z</time>
      </trkpt>
      <trkpt lat="45.13676" lon="5.67671">
        <ele>524.59997558594</ele>
        <time>2015-03-31T11:01:39.000Z</time>
      </trkpt>
      <trkpt lat="45.13679" lon="5.6768">
        <ele>524.40002441406</ele>
        <time>2015-03-31T11:01:42.000Z</time>
      </trkpt>
      <trkpt lat="45.13684" lon="5.67684">
        <ele>524.40002441406</ele>
        <time>2015-03-31T11:01:45.000Z</time>
      </trkpt>
      <trkpt lat="45.13686" lon="5.67688">
        <ele>524.40002441406</ele>
        <time>2015-03-31T11:01:47.000Z</time>
      </trkpt>
      <trkpt lat="45.13687" lon="5.67697">
        <ele>524.40002441406</ele>
        <time>2015-03-31T11:01:51.000Z</time>
      </trkpt>
      <trkpt lat="45.13691" lon="5.67702">
        <ele>524.20001220703</ele>
        <time>2015-03-31T11:01:54.000Z</time>
      </trkpt>
      <trkpt lat="45.13696" lon="5.67706">
        <ele>523.59997558594</ele>
        <time>2015-03-31T11:01:57.000Z</time>
      </trkpt>
      <trkpt lat="45.13698" lon="5.67708">
        <ele>523.40002441406</ele>
        <time>2015-03-31T11:01:58.000Z</time>
      </trkpt>
      <trkpt lat="45.13704" lon="5.6772">
        <ele>523</ele>
        <time>2015-03-31T11:02:02.000Z</time>
      </trkpt>
      <trkpt lat="45.13705" lon="5.67722">
        <ele>523</ele>
        <time>2015-03-31T11:02:03.000Z</time>
      </trkpt>
      <trkpt lat="45.13708" lon="5.6773">
        <ele>522.79998779297</ele>
        <time>2015-03-31T11:02:05.000Z</time>
      </trkpt>
      <trkpt lat="45.13712" lon="5.67737">
        <ele>522.59997558594</ele>
        <time>2015-03-31T11:02:08.000Z</time>
      </trkpt>
      <trkpt lat="45.13718" lon="5.67743">
        <ele>522.59997558594</ele>
        <time>2015-03-31T11:02:11.000Z</time>
      </trkpt>
      <trkpt lat="45.13723" lon="5.6775">
        <ele>522.40002441406</ele>
        <time>2015-03-31T11:02:14.000Z</time>
      </trkpt>
      <trkpt lat="45.13727" lon="5.67757">
        <ele>522</ele>
        <time>2015-03-31T11:02:17.000Z</time>
      </trkpt>
      <trkpt lat="45.13731" lon="5.67762">
        <ele>521.59997558594</ele>
        <time>2015-03-31T11:02:20.000Z</time>
      </trkpt>
      <trkpt lat="45.13736" lon="5.67768">
        <ele>521.20001220703</ele>
        <time>2015-03-31T11:02:23.000Z</time>
      </trkpt>
      <trkpt lat="45.13738" lon="5.6777">
        <ele>521.20001220703</ele>
        <time>2015-03-31T11:02:24.000Z</time>
      </trkpt>
      <trkpt lat="45.13745" lon="5.67779">
        <ele>520.79998779297</ele>
        <time>2015-03-31T11:02:28.000Z</time>
      </trkpt>
      <trkpt lat="45.1375" lon="5.67787">
        <ele>520.59997558594</ele>
        <time>2015-03-31T11:02:31.000Z</time>
      </trkpt>
      <trkpt lat="45.13755" lon="5.6779">
        <ele>520.59997558594</ele>
        <time>2015-03-31T11:02:34.000Z</time>
      </trkpt>
      <trkpt lat="45.13759" lon="5.6779">
        <ele>520.40002441406</ele>
        <time>2015-03-31T11:02:37.000Z</time>
      </trkpt>
      <trkpt lat="45.13762" lon="5.67788">
        <ele>520.40002441406</ele>
        <time>2015-03-31T11:02:40.000Z</time>
      </trkpt>
      <trkpt lat="45.1377" lon="5.67791">
        <ele>520.40002441406</ele>
        <time>2015-03-31T11:02:44.000Z</time>
      </trkpt>
      <trkpt lat="45.13773" lon="5.67793">
        <ele>520.40002441406</ele>
        <time>2015-03-31T11:02:46.000Z</time>
      </trkpt>
      <trkpt lat="45.1378" lon="5.67792">
        <ele>520.40002441406</ele>
        <time>2015-03-31T11:02:50.000Z</time>
      </trkpt>
      <trkpt lat="45.13783" lon="5.67795">
        <ele>520.20001220703</ele>
        <time>2015-03-31T11:02:51.000Z</time>
      </trkpt>
      <trkpt lat="45.13787" lon="5.67802">
        <ele>520.20001220703</ele>
        <time>2015-03-31T11:02:54.000Z</time>
      </trkpt>
      <trkpt lat="45.13789" lon="5.67809">
        <ele>519.79998779297</ele>
        <time>2015-03-31T11:02:57.000Z</time>
      </trkpt>
      <trkpt lat="45.13791" lon="5.67811">
        <ele>519.79998779297</ele>
        <time>2015-03-31T11:02:58.000Z</time>
      </trkpt>
      <trkpt lat="45.138" lon="5.67815">
        <ele>519.20001220703</ele>
        <time>2015-03-31T11:03:02.000Z</time>
      </trkpt>
      <trkpt lat="45.13802" lon="5.67814">
        <ele>519.20001220703</ele>
        <time>2015-03-31T11:03:03.000Z</time>
      </trkpt>
      <trkpt lat="45.13809" lon="5.67814">
        <ele>518.79998779297</ele>
        <time>2015-03-31T11:03:06.000Z</time>
      </trkpt>
      <trkpt lat="45.13811" lon="5.67814">
        <ele>518.79998779297</ele>
        <time>2015-03-31T11:03:07.000Z</time>
      </trkpt>
      <trkpt lat="45.13817" lon="5.6781">
        <ele>518.59997558594</ele>
        <time>2015-03-31T11:03:11.000Z</time>
      </trkpt>
      <trkpt lat="45.13819" lon="5.67809">
        <ele>518.59997558594</ele>
        <time>2015-03-31T11:03:12.000Z</time>
      </trkpt>
      <trkpt lat="45.13825" lon="5.67807">
        <ele>518.40002441406</ele>
        <time>2015-03-31T11:03:15.000Z</time>
      </trkpt>
      <trkpt lat="45.13831" lon="5.67808">
        <ele>518.40002441406</ele>
        <time>2015-03-31T11:03:18.000Z</time>
      </trkpt>
      <trkpt lat="45.13835" lon="5.67808">
        <ele>518</ele>
        <time>2015-03-31T11:03:21.000Z</time>
      </trkpt>
      <trkpt lat="45.13839" lon="5.67807">
        <ele>517.40002441406</ele>
        <time>2015-03-31T11:03:24.000Z</time>
      </trkpt>
      <trkpt lat="45.13843" lon="5.67806">
        <ele>517</ele>
        <time>2015-03-31T11:03:27.000Z</time>
      </trkpt>
      <trkpt lat="45.13844" lon="5.67805">
        <ele>517</ele>
        <time>2015-03-31T11:03:28.000Z</time>
      </trkpt>
      <trkpt lat="45.13847" lon="5.67803">
        <ele>516.40002441406</ele>
        <time>2015-03-31T11:03:32.000Z</time>
      </trkpt>
      <trkpt lat="45.13847" lon="5.67802">
        <ele>516.20001220703</ele>
        <time>2015-03-31T11:03:33.000Z</time>
      </trkpt>
      <trkpt lat="45.13849" lon="5.67801">
        <ele>515.59997558594</ele>
        <time>2015-03-31T11:03:36.000Z</time>
      </trkpt>
      <trkpt lat="45.13857" lon="5.67803">
        <ele>513.79998779297</ele>
        <time>2015-03-31T11:03:45.000Z</time>
      </trkpt>
      <trkpt lat="45.13865" lon="5.67804">
        <ele>513.20001220703</ele>
        <time>2015-03-31T11:03:48.000Z</time>
      </trkpt>
      <trkpt lat="45.13867" lon="5.67805">
        <ele>513</ele>
        <time>2015-03-31T11:03:49.000Z</time>
      </trkpt>
      <trkpt lat="45.13873" lon="5.67807">
        <ele>512</ele>
        <time>2015-03-31T11:03:52.000Z</time>
      </trkpt>
      <trkpt lat="45.1388" lon="5.67807">
        <ele>511.60000610352</ele>
        <time>2015-03-31T11:03:54.000Z</time>
      </trkpt>
      <trkpt lat="45.13886" lon="5.67811">
        <ele>511</ele>
        <time>2015-03-31T11:03:57.000Z</time>
      </trkpt>
      <trkpt lat="45.13887" lon="5.67811">
        <ele>510.60000610352</ele>
        <time>2015-03-31T11:03:58.000Z</time>
      </trkpt>
      <trkpt lat="45.13891" lon="5.67809">
        <ele>510</ele>
        <time>2015-03-31T11:04:00.000Z</time>
      </trkpt>
      <trkpt lat="45.13895" lon="5.67813">
        <ele>509.39999389648</ele>
        <time>2015-03-31T11:04:03.000Z</time>
      </trkpt>
      <trkpt lat="45.13898" lon="5.67821">
        <ele>508.79998779297</ele>
        <time>2015-03-31T11:04:06.000Z</time>
      </trkpt>
      <trkpt lat="45.13899" lon="5.67823">
        <ele>508.39999389648</ele>
        <time>2015-03-31T11:04:07.000Z</time>
      </trkpt>
      <trkpt lat="45.13901" lon="5.6783">
        <ele>507.60000610352</ele>
        <time>2015-03-31T11:04:10.000Z</time>
      </trkpt>
      <trkpt lat="45.13907" lon="5.67838">
        <ele>507</ele>
        <time>2015-03-31T11:04:14.000Z</time>
      </trkpt>
      <trkpt lat="45.1391" lon="5.67844">
        <ele>506.39999389648</ele>
        <time>2015-03-31T11:04:17.000Z</time>
      </trkpt>
      <trkpt lat="45.13911" lon="5.67846">
        <ele>506</ele>
        <time>2015-03-31T11:04:18.000Z</time>
      </trkpt>
      <trkpt lat="45.13915" lon="5.67852">
        <ele>505.39999389648</ele>
        <time>2015-03-31T11:04:21.000Z</time>
      </trkpt>
      <trkpt lat="45.13916" lon="5.67854">
        <ele>505.20001220703</ele>
        <time>2015-03-31T11:04:22.000Z</time>
      </trkpt>
      <trkpt lat="45.13918" lon="5.67859">
        <ele>504.60000610352</ele>
        <time>2015-03-31T11:04:25.000Z</time>
      </trkpt>
      <trkpt lat="45.13927" lon="5.67865">
        <ele>503.60000610352</ele>
        <time>2015-03-31T11:04:29.000Z</time>
      </trkpt>
      <trkpt lat="45.1393" lon="5.6787">
        <ele>503.20001220703</ele>
        <time>2015-03-31T11:04:31.000Z</time>
      </trkpt>
      <trkpt lat="45.13936" lon="5.67872">
        <ele>503</ele>
        <time>2015-03-31T11:04:33.000Z</time>
      </trkpt>
      <trkpt lat="45.13943" lon="5.67883">
        <ele>502.20001220703</ele>
        <time>2015-03-31T11:04:37.000Z</time>
      </trkpt>
      <trkpt lat="45.13946" lon="5.67888">
        <ele>501.60000610352</ele>
        <time>2015-03-31T11:04:39.000Z</time>
      </trkpt>
      <trkpt lat="45.13949" lon="5.67894">
        <ele>501</ele>
        <time>2015-03-31T11:04:42.000Z</time>
      </trkpt>
      <trkpt lat="45.13954" lon="5.67902">
        <ele>500.60000610352</ele>
        <time>2015-03-31T11:04:45.000Z</time>
      </trkpt>
      <trkpt lat="45.13956" lon="5.67904">
        <ele>500.39999389648</ele>
        <time>2015-03-31T11:04:46.000Z</time>
      </trkpt>
      <trkpt lat="45.1396" lon="5.67909">
        <ele>500</ele>
        <time>2015-03-31T11:04:48.000Z</time>
      </trkpt>
      <trkpt lat="45.13966" lon="5.67916">
        <ele>499.39999389648</ele>
        <time>2015-03-31T11:04:51.000Z</time>
      </trkpt>
      <trkpt lat="45.13969" lon="5.67922">
        <ele>499</ele>
        <time>2015-03-31T11:04:52.000Z</time>
      </trkpt>
      <trkpt lat="45.13979" lon="5.67929">
        <ele>498.39999389648</ele>
        <time>2015-03-31T11:04:57.000Z</time>
      </trkpt>
      <trkpt lat="45.13985" lon="5.67933">
        <ele>498.20001220703</ele>
        <time>2015-03-31T11:05:00.000Z</time>
      </trkpt>
      <trkpt lat="45.13992" lon="5.67935">
        <ele>497.79998779297</ele>
        <time>2015-03-31T11:05:03.000Z</time>
      </trkpt>
      <trkpt lat="45.13998" lon="5.6794">
        <ele>497</ele>
        <time>2015-03-31T11:05:06.000Z</time>
      </trkpt>
      <trkpt lat="45.14004" lon="5.67945">
        <ele>496.60000610352</ele>
        <time>2015-03-31T11:05:09.000Z</time>
      </trkpt>
      <trkpt lat="45.1401" lon="5.67949">
        <ele>496.39999389648</ele>
        <time>2015-03-31T11:05:11.000Z</time>
      </trkpt>
      <trkpt lat="45.14014" lon="5.67951">
        <ele>496.20001220703</ele>
        <time>2015-03-31T11:05:13.000Z</time>
      </trkpt>
      <trkpt lat="45.14021" lon="5.67955">
        <ele>495.79998779297</ele>
        <time>2015-03-31T11:05:17.000Z</time>
      </trkpt>
      <trkpt lat="45.14028" lon="5.67958">
        <ele>495.60000610352</ele>
        <time>2015-03-31T11:05:20.000Z</time>
      </trkpt>
      <trkpt lat="45.1403" lon="5.67959">
        <ele>495.60000610352</ele>
        <time>2015-03-31T11:05:21.000Z</time>
      </trkpt>
      <trkpt lat="45.14035" lon="5.67962">
        <ele>495.60000610352</ele>
        <time>2015-03-31T11:05:23.000Z</time>
      </trkpt>
      <trkpt lat="45.14037" lon="5.67963">
        <ele>495.60000610352</ele>
        <time>2015-03-31T11:05:24.000Z</time>
      </trkpt>
      <trkpt lat="45.14046" lon="5.67961">
        <ele>494.79998779297</ele>
        <time>2015-03-31T11:05:28.000Z</time>
      </trkpt>
      <trkpt lat="45.14051" lon="5.67961">
        <ele>494.39999389648</ele>
        <time>2015-03-31T11:05:30.000Z</time>
      </trkpt>
      <trkpt lat="45.14059" lon="5.67963">
        <ele>494</ele>
        <time>2015-03-31T11:05:34.000Z</time>
      </trkpt>
      <trkpt lat="45.14065" lon="5.67969">
        <ele>493.79998779297</ele>
        <time>2015-03-31T11:05:37.000Z</time>
      </trkpt>
      <trkpt lat="45.14074" lon="5.67974">
        <ele>493.60000610352</ele>
        <time>2015-03-31T11:05:40.000Z</time>
      </trkpt>
      <trkpt lat="45.14079" lon="5.67977">
        <ele>493.20001220703</ele>
        <time>2015-03-31T11:05:42.000Z</time>
      </trkpt>
      <trkpt lat="45.14091" lon="5.67985">
        <ele>491.60000610352</ele>
        <time>2015-03-31T11:05:53.000Z</time>
      </trkpt>
      <trkpt lat="45.14092" lon="5.67985">
        <ele>491.20001220703</ele>
        <time>2015-03-31T11:05:54.000Z</time>
      </trkpt>
      <trkpt lat="45.14097" lon="5.67984">
        <ele>490.39999389648</ele>
        <time>2015-03-31T11:05:58.000Z</time>
      </trkpt>
      <trkpt lat="45.141" lon="5.67983">
        <ele>490.39999389648</ele>
        <time>2015-03-31T11:05:59.000Z</time>
      </trkpt>
      <trkpt lat="45.14108" lon="5.67983">
        <ele>490</ele>
        <time>2015-03-31T11:06:02.000Z</time>
      </trkpt>
      <trkpt lat="45.14113" lon="5.6798">
        <ele>489.60000610352</ele>
        <time>2015-03-31T11:06:05.000Z</time>
      </trkpt>
      <trkpt lat="45.14119" lon="5.67979">
        <ele>489.39999389648</ele>
        <time>2015-03-31T11:06:08.000Z</time>
      </trkpt>
      <trkpt lat="45.14125" lon="5.67979">
        <ele>489.39999389648</ele>
        <time>2015-03-31T11:06:11.000Z</time>
      </trkpt>
      <trkpt lat="45.14131" lon="5.67976">
        <ele>489.20001220703</ele>
        <time>2015-03-31T11:06:14.000Z</time>
      </trkpt>
      <trkpt lat="45.14138" lon="5.67976">
        <ele>488.60000610352</ele>
        <time>2015-03-31T11:06:17.000Z</time>
      </trkpt>
      <trkpt lat="45.14144" lon="5.67976">
        <ele>488.20001220703</ele>
        <time>2015-03-31T11:06:20.000Z</time>
      </trkpt>
      <trkpt lat="45.1415" lon="5.67978">
        <ele>487.79998779297</ele>
        <time>2015-03-31T11:06:23.000Z</time>
      </trkpt>
      <trkpt lat="45.14156" lon="5.67981">
        <ele>487.60000610352</ele>
        <time>2015-03-31T11:06:26.000Z</time>
      </trkpt>
      <trkpt lat="45.14162" lon="5.67985">
        <ele>487.39999389648</ele>
        <time>2015-03-31T11:06:29.000Z</time>
      </trkpt>
      <trkpt lat="45.14167" lon="5.67988">
        <ele>487.39999389648</ele>
        <time>2015-03-31T11:06:31.000Z</time>
      </trkpt>
      <trkpt lat="45.14172" lon="5.67995">
        <ele>487.20001220703</ele>
        <time>2015-03-31T11:06:34.000Z</time>
      </trkpt>
      <trkpt lat="45.14177" lon="5.68001">
        <ele>487.20001220703</ele>
        <time>2015-03-31T11:06:37.000Z</time>
      </trkpt>
      <trkpt lat="45.14179" lon="5.68002">
        <ele>487.20001220703</ele>
        <time>2015-03-31T11:06:38.000Z</time>
      </trkpt>
      <trkpt lat="45.14184" lon="5.68006">
        <ele>487</ele>
        <time>2015-03-31T11:06:41.000Z</time>
      </trkpt>
      <trkpt lat="45.14189" lon="5.6801">
        <ele>487</ele>
        <time>2015-03-31T11:06:44.000Z</time>
      </trkpt>
      <trkpt lat="45.14193" lon="5.68014">
        <ele>487</ele>
        <time>2015-03-31T11:06:46.000Z</time>
      </trkpt>
      <trkpt lat="45.14199" lon="5.68019">
        <ele>487</ele>
        <time>2015-03-31T11:06:49.000Z</time>
      </trkpt>
      <trkpt lat="45.14204" lon="5.68023">
        <ele>487</ele>
        <time>2015-03-31T11:06:52.000Z</time>
      </trkpt>
      <trkpt lat="45.14211" lon="5.68027">
        <ele>487</ele>
        <time>2015-03-31T11:06:55.000Z</time>
      </trkpt>
      <trkpt lat="45.14217" lon="5.68032">
        <ele>487</ele>
        <time>2015-03-31T11:06:58.000Z</time>
      </trkpt>
      <trkpt lat="45.14219" lon="5.68035">
        <ele>487</ele>
        <time>2015-03-31T11:07:00.000Z</time>
      </trkpt>
      <trkpt lat="45.14227" lon="5.68039">
        <ele>487</ele>
        <time>2015-03-31T11:07:04.000Z</time>
      </trkpt>
      <trkpt lat="45.14234" lon="5.68041">
        <ele>487</ele>
        <time>2015-03-31T11:07:07.000Z</time>
      </trkpt>
      <trkpt lat="45.14236" lon="5.68042">
        <ele>487</ele>
        <time>2015-03-31T11:07:08.000Z</time>
      </trkpt>
      <trkpt lat="45.14244" lon="5.68045">
        <ele>487</ele>
        <time>2015-03-31T11:07:12.000Z</time>
      </trkpt>
      <trkpt lat="45.14246" lon="5.68046">
        <ele>487</ele>
        <time>2015-03-31T11:07:13.000Z</time>
      </trkpt>
      <trkpt lat="45.14248" lon="5.68048">
        <ele>487</ele>
        <time>2015-03-31T11:07:14.000Z</time>
      </trkpt>
      <trkpt lat="45.14256" lon="5.6805">
        <ele>487</ele>
        <time>2015-03-31T11:07:18.000Z</time>
      </trkpt>
      <trkpt lat="45.14261" lon="5.6805">
        <ele>487</ele>
        <time>2015-03-31T11:07:21.000Z</time>
      </trkpt>
      <trkpt lat="45.14264" lon="5.68049">
        <ele>487</ele>
        <time>2015-03-31T11:07:22.000Z</time>
      </trkpt>
      <trkpt lat="45.1427" lon="5.68049">
        <ele>487</ele>
        <time>2015-03-31T11:07:26.000Z</time>
      </trkpt>
      <trkpt lat="45.14272" lon="5.68048">
        <ele>487</ele>
        <time>2015-03-31T11:07:27.000Z</time>
      </trkpt>
      <trkpt lat="45.14275" lon="5.68051">
        <ele>487</ele>
        <time>2015-03-31T11:07:29.000Z</time>
      </trkpt>
      <trkpt lat="45.14283" lon="5.68056">
        <ele>487</ele>
        <time>2015-03-31T11:07:33.000Z</time>
      </trkpt>
      <trkpt lat="45.14288" lon="5.68062">
        <ele>487</ele>
        <time>2015-03-31T11:07:36.000Z</time>
      </trkpt>
      <trkpt lat="45.1429" lon="5.68065">
        <ele>487</ele>
        <time>2015-03-31T11:07:37.000Z</time>
      </trkpt>
      <trkpt lat="45.14292" lon="5.68066">
        <ele>487</ele>
        <time>2015-03-31T11:07:38.000Z</time>
      </trkpt>
      <trkpt lat="45.14299" lon="5.68071">
        <ele>487</ele>
        <time>2015-03-31T11:07:41.000Z</time>
      </trkpt>
      <trkpt lat="45.14307" lon="5.6807">
        <ele>487.20001220703</ele>
        <time>2015-03-31T11:07:44.000Z</time>
      </trkpt>
      <trkpt lat="45.14316" lon="5.68075">
        <ele>487.60000610352</ele>
        <time>2015-03-31T11:07:47.000Z</time>
      </trkpt>
      <trkpt lat="45.14322" lon="5.68077">
        <ele>488</ele>
        <time>2015-03-31T11:07:49.000Z</time>
      </trkpt>
      <trkpt lat="45.1433" lon="5.68083">
        <ele>488.20001220703</ele>
        <time>2015-03-31T11:07:52.000Z</time>
      </trkpt>
      <trkpt lat="45.14337" lon="5.68087">
        <ele>488.39999389648</ele>
        <time>2015-03-31T11:07:56.000Z</time>
      </trkpt>
      <trkpt lat="45.14343" lon="5.6809">
        <ele>488.60000610352</ele>
        <time>2015-03-31T11:07:59.000Z</time>
      </trkpt>
      <trkpt lat="45.14345" lon="5.68091">
        <ele>488.60000610352</ele>
        <time>2015-03-31T11:08:00.000Z</time>
      </trkpt>
      <trkpt lat="45.14353" lon="5.68095">
        <ele>488.79998779297</ele>
        <time>2015-03-31T11:08:05.000Z</time>
      </trkpt>
      <trkpt lat="45.14357" lon="5.68098">
        <ele>489.20001220703</ele>
        <time>2015-03-31T11:08:07.000Z</time>
      </trkpt>
      <trkpt lat="45.14365" lon="5.68102">
        <ele>489.79998779297</ele>
        <time>2015-03-31T11:08:11.000Z</time>
      </trkpt>
      <trkpt lat="45.14371" lon="5.68106">
        <ele>490.20001220703</ele>
        <time>2015-03-31T11:08:14.000Z</time>
      </trkpt>
      <trkpt lat="45.14377" lon="5.68113">
        <ele>490.39999389648</ele>
        <time>2015-03-31T11:08:17.000Z</time>
      </trkpt>
      <trkpt lat="45.14384" lon="5.68118">
        <ele>490.60000610352</ele>
        <time>2015-03-31T11:08:20.000Z</time>
      </trkpt>
      <trkpt lat="45.14386" lon="5.68119">
        <ele>490.60000610352</ele>
        <time>2015-03-31T11:08:21.000Z</time>
      </trkpt>
      <trkpt lat="45.14394" lon="5.68128">
        <ele>490.79998779297</ele>
        <time>2015-03-31T11:08:25.000Z</time>
      </trkpt>
      <trkpt lat="45.14396" lon="5.68129">
        <ele>490.79998779297</ele>
        <time>2015-03-31T11:08:26.000Z</time>
      </trkpt>
      <trkpt lat="45.14401" lon="5.68137">
        <ele>490.79998779297</ele>
        <time>2015-03-31T11:08:30.000Z</time>
      </trkpt>
      <trkpt lat="45.14405" lon="5.68143">
        <ele>490.79998779297</ele>
        <time>2015-03-31T11:08:32.000Z</time>
      </trkpt>
      <trkpt lat="45.14409" lon="5.6815">
        <ele>491</ele>
        <time>2015-03-31T11:08:34.000Z</time>
      </trkpt>
      <trkpt lat="45.14411" lon="5.68153">
        <ele>491</ele>
        <time>2015-03-31T11:08:35.000Z</time>
      </trkpt>
      <trkpt lat="45.14413" lon="5.68155">
        <ele>491</ele>
        <time>2015-03-31T11:08:36.000Z</time>
      </trkpt>
      <trkpt lat="45.14416" lon="5.68158">
        <ele>491</ele>
        <time>2015-03-31T11:08:37.000Z</time>
      </trkpt>
      <trkpt lat="45.14418" lon="5.68159">
        <ele>491</ele>
        <time>2015-03-31T11:08:38.000Z</time>
      </trkpt>
      <trkpt lat="45.14424" lon="5.68163">
        <ele>491</ele>
        <time>2015-03-31T11:08:41.000Z</time>
      </trkpt>
      <trkpt lat="45.14425" lon="5.68164">
        <ele>491</ele>
        <time>2015-03-31T11:08:42.000Z</time>
      </trkpt>
      <trkpt lat="45.14427" lon="5.68169">
        <ele>491</ele>
        <time>2015-03-31T11:08:45.000Z</time>
      </trkpt>
      <trkpt lat="45.14428" lon="5.6817">
        <ele>491</ele>
        <time>2015-03-31T11:08:46.000Z</time>
      </trkpt>
      <trkpt lat="45.14431" lon="5.68173">
        <ele>491</ele>
        <time>2015-03-31T11:08:47.000Z</time>
      </trkpt>
      <trkpt lat="45.14433" lon="5.68174">
        <ele>491</ele>
        <time>2015-03-31T11:08:48.000Z</time>
      </trkpt>
      <trkpt lat="45.1444" lon="5.68181">
        <ele>491</ele>
        <time>2015-03-31T11:08:52.000Z</time>
      </trkpt>
      <trkpt lat="45.14447" lon="5.68185">
        <ele>491</ele>
        <time>2015-03-31T11:08:55.000Z</time>
      </trkpt>
      <trkpt lat="45.14453" lon="5.68189">
        <ele>491</ele>
        <time>2015-03-31T11:08:58.000Z</time>
      </trkpt>
      <trkpt lat="45.14459" lon="5.68194">
        <ele>491</ele>
        <time>2015-03-31T11:09:01.000Z</time>
      </trkpt>
      <trkpt lat="45.14463" lon="5.68198">
        <ele>491</ele>
        <time>2015-03-31T11:09:03.000Z</time>
      </trkpt>
      <trkpt lat="45.1447" lon="5.68203">
        <ele>491</ele>
        <time>2015-03-31T11:09:06.000Z</time>
      </trkpt>
      <trkpt lat="45.14472" lon="5.68206">
        <ele>491</ele>
        <time>2015-03-31T11:09:07.000Z</time>
      </trkpt>
      <trkpt lat="45.14477" lon="5.68212">
        <ele>491</ele>
        <time>2015-03-31T11:09:10.000Z</time>
      </trkpt>
      <trkpt lat="45.14479" lon="5.68214">
        <ele>491</ele>
        <time>2015-03-31T11:09:11.000Z</time>
      </trkpt>
      <trkpt lat="45.14486" lon="5.68219">
        <ele>490.60000610352</ele>
        <time>2015-03-31T11:09:14.000Z</time>
      </trkpt>
      <trkpt lat="45.14491" lon="5.68218">
        <ele>490.39999389648</ele>
        <time>2015-03-31T11:09:16.000Z</time>
      </trkpt>
      <trkpt lat="45.14501" lon="5.68223">
        <ele>489.79998779297</ele>
        <time>2015-03-31T11:09:20.000Z</time>
      </trkpt>
      <trkpt lat="45.14508" lon="5.68226">
        <ele>489.60000610352</ele>
        <time>2015-03-31T11:09:23.000Z</time>
      </trkpt>
      <trkpt lat="45.14516" lon="5.68231">
        <ele>489.20001220703</ele>
        <time>2015-03-31T11:09:26.000Z</time>
      </trkpt>
      <trkpt lat="45.14522" lon="5.68236">
        <ele>488.60000610352</ele>
        <time>2015-03-31T11:09:29.000Z</time>
      </trkpt>
      <trkpt lat="45.14526" lon="5.68241">
        <ele>488.39999389648</ele>
        <time>2015-03-31T11:09:31.000Z</time>
      </trkpt>
      <trkpt lat="45.14533" lon="5.68247">
        <ele>488</ele>
        <time>2015-03-31T11:09:34.000Z</time>
      </trkpt>
      <trkpt lat="45.14538" lon="5.68251">
        <ele>487.79998779297</ele>
        <time>2015-03-31T11:09:36.000Z</time>
      </trkpt>
      <trkpt lat="45.14542" lon="5.68255">
        <ele>487.60000610352</ele>
        <time>2015-03-31T11:09:38.000Z</time>
      </trkpt>
      <trkpt lat="45.14549" lon="5.68263">
        <ele>487.39999389648</ele>
        <time>2015-03-31T11:09:42.000Z</time>
      </trkpt>
      <trkpt lat="45.14554" lon="5.68269">
        <ele>486.60000610352</ele>
        <time>2015-03-31T11:09:45.000Z</time>
      </trkpt>
      <trkpt lat="45.14557" lon="5.68271">
        <ele>486.60000610352</ele>
        <time>2015-03-31T11:09:46.000Z</time>
      </trkpt>
      <trkpt lat="45.14558" lon="5.68274">
        <ele>486.39999389648</ele>
        <time>2015-03-31T11:09:47.000Z</time>
      </trkpt>
      <trkpt lat="45.14566" lon="5.68283">
        <ele>486</ele>
        <time>2015-03-31T11:09:50.000Z</time>
      </trkpt>
      <trkpt lat="45.14568" lon="5.68286">
        <ele>485.79998779297</ele>
        <time>2015-03-31T11:09:51.000Z</time>
      </trkpt>
      <trkpt lat="45.14577" lon="5.6829">
        <ele>485.60000610352</ele>
        <time>2015-03-31T11:09:55.000Z</time>
      </trkpt>
      <trkpt lat="45.14583" lon="5.68291">
        <ele>485</ele>
        <time>2015-03-31T11:09:57.000Z</time>
      </trkpt>
      <trkpt lat="45.14589" lon="5.6829">
        <ele>484.60000610352</ele>
        <time>2015-03-31T11:09:59.000Z</time>
      </trkpt>
      <trkpt lat="45.14592" lon="5.6829">
        <ele>484.39999389648</ele>
        <time>2015-03-31T11:10:00.000Z</time>
      </trkpt>
      <trkpt lat="45.14598" lon="5.68297">
        <ele>483.79998779297</ele>
        <time>2015-03-31T11:10:04.000Z</time>
      </trkpt>
      <trkpt lat="45.14602" lon="5.68307">
        <ele>483.39999389648</ele>
        <time>2015-03-31T11:10:07.000Z</time>
      </trkpt>
      <trkpt lat="45.14604" lon="5.68319">
        <ele>483</ele>
        <time>2015-03-31T11:10:10.000Z</time>
      </trkpt>
      <trkpt lat="45.14602" lon="5.68329">
        <ele>482.39999389648</ele>
        <time>2015-03-31T11:10:13.000Z</time>
      </trkpt>
      <trkpt lat="45.14601" lon="5.68331">
        <ele>482.20001220703</ele>
        <time>2015-03-31T11:10:14.000Z</time>
      </trkpt>
      <trkpt lat="45.14601" lon="5.68339">
        <ele>482</ele>
        <time>2015-03-31T11:10:16.000Z</time>
      </trkpt>
      <trkpt lat="45.146" lon="5.6835">
        <ele>481.60000610352</ele>
        <time>2015-03-31T11:10:19.000Z</time>
      </trkpt>
      <trkpt lat="45.14599" lon="5.68352">
        <ele>481.60000610352</ele>
        <time>2015-03-31T11:10:20.000Z</time>
      </trkpt>
      <trkpt lat="45.14597" lon="5.68357">
        <ele>481.39999389648</ele>
        <time>2015-03-31T11:10:22.000Z</time>
      </trkpt>
      <trkpt lat="45.14595" lon="5.68365">
        <ele>481.20001220703</ele>
        <time>2015-03-31T11:10:26.000Z</time>
      </trkpt>
      <trkpt lat="45.14596" lon="5.6837">
        <ele>481</ele>
        <time>2015-03-31T11:10:29.000Z</time>
      </trkpt>
      <trkpt lat="45.14603" lon="5.68371">
        <ele>480.79998779297</ele>
        <time>2015-03-31T11:10:32.000Z</time>
      </trkpt>
      <trkpt lat="45.14604" lon="5.68371">
        <ele>480.79998779297</ele>
        <time>2015-03-31T11:10:33.000Z</time>
      </trkpt>
      <trkpt lat="45.14609" lon="5.68372">
        <ele>480.79998779297</ele>
        <time>2015-03-31T11:10:36.000Z</time>
      </trkpt>
      <trkpt lat="45.14613" lon="5.68372">
        <ele>480.20001220703</ele>
        <time>2015-03-31T11:10:40.000Z</time>
      </trkpt>
      <trkpt lat="45.14614" lon="5.68372">
        <ele>480</ele>
        <time>2015-03-31T11:10:41.000Z</time>
      </trkpt>
      <trkpt lat="45.14618" lon="5.68376">
        <ele>479.60000610352</ele>
        <time>2015-03-31T11:10:45.000Z</time>
      </trkpt>
      <trkpt lat="45.14623" lon="5.68377">
        <ele>479.20001220703</ele>
        <time>2015-03-31T11:10:49.000Z</time>
      </trkpt>
      <trkpt lat="45.14626" lon="5.68378">
        <ele>479</ele>
        <time>2015-03-31T11:10:53.000Z</time>
      </trkpt>
      <trkpt lat="45.1463" lon="5.6838">
        <ele>478.79998779297</ele>
        <time>2015-03-31T11:10:56.000Z</time>
      </trkpt>
      <trkpt lat="45.14632" lon="5.68382">
        <ele>478.39999389648</ele>
        <time>2015-03-31T11:10:58.000Z</time>
      </trkpt>
      <trkpt lat="45.14639" lon="5.68383">
        <ele>477.79998779297</ele>
        <time>2015-03-31T11:11:02.000Z</time>
      </trkpt>
      <trkpt lat="45.14644" lon="5.68385">
        <ele>477.39999389648</ele>
        <time>2015-03-31T11:11:05.000Z</time>
      </trkpt>
      <trkpt lat="45.1465" lon="5.68386">
        <ele>477.20001220703</ele>
        <time>2015-03-31T11:11:08.000Z</time>
      </trkpt>
      <trkpt lat="45.14655" lon="5.68389">
        <ele>477</ele>
        <time>2015-03-31T11:11:11.000Z</time>
      </trkpt>
      <trkpt lat="45.14659" lon="5.68393">
        <ele>476.79998779297</ele>
        <time>2015-03-31T11:11:13.000Z</time>
      </trkpt>
      <trkpt lat="45.14665" lon="5.68395">
        <ele>476.20001220703</ele>
        <time>2015-03-31T11:11:16.000Z</time>
      </trkpt>
      <trkpt lat="45.14667" lon="5.68394">
        <ele>476</ele>
        <time>2015-03-31T11:11:17.000Z</time>
      </trkpt>
      <trkpt lat="45.14669" lon="5.68394">
        <ele>475.79998779297</ele>
        <time>2015-03-31T11:11:18.000Z</time>
      </trkpt>
      <trkpt lat="45.14678" lon="5.684">
        <ele>475.39999389648</ele>
        <time>2015-03-31T11:11:22.000Z</time>
      </trkpt>
      <trkpt lat="45.14681" lon="5.68401">
        <ele>475.20001220703</ele>
        <time>2015-03-31T11:11:23.000Z</time>
      </trkpt>
      <trkpt lat="45.14691" lon="5.68406">
        <ele>474.79998779297</ele>
        <time>2015-03-31T11:11:27.000Z</time>
      </trkpt>
      <trkpt lat="45.14697" lon="5.6841">
        <ele>474.20001220703</ele>
        <time>2015-03-31T11:11:30.000Z</time>
      </trkpt>
      <trkpt lat="45.14701" lon="5.68415">
        <ele>473.79998779297</ele>
        <time>2015-03-31T11:11:32.000Z</time>
      </trkpt>
      <trkpt lat="45.14709" lon="5.6842">
        <ele>473.39999389648</ele>
        <time>2015-03-31T11:11:36.000Z</time>
      </trkpt>
      <trkpt lat="45.1471" lon="5.68422">
        <ele>473.20001220703</ele>
        <time>2015-03-31T11:11:37.000Z</time>
      </trkpt>
      <trkpt lat="45.14716" lon="5.68425">
        <ele>472.79998779297</ele>
        <time>2015-03-31T11:11:40.000Z</time>
      </trkpt>
      <trkpt lat="45.14723" lon="5.68427">
        <ele>472.39999389648</ele>
        <time>2015-03-31T11:11:42.000Z</time>
      </trkpt>
      <trkpt lat="45.14732" lon="5.68427">
        <ele>472</ele>
        <time>2015-03-31T11:11:44.000Z</time>
      </trkpt>
      <trkpt lat="45.14735" lon="5.68428">
        <ele>471.79998779297</ele>
        <time>2015-03-31T11:11:45.000Z</time>
      </trkpt>
      <trkpt lat="45.14744" lon="5.6843">
        <ele>471.39999389648</ele>
        <time>2015-03-31T11:11:48.000Z</time>
      </trkpt>
      <trkpt lat="45.14751" lon="5.68433">
        <ele>471.20001220703</ele>
        <time>2015-03-31T11:11:50.000Z</time>
      </trkpt>
      <trkpt lat="45.14758" lon="5.68436">
        <ele>470.60000610352</ele>
        <time>2015-03-31T11:11:52.000Z</time>
      </trkpt>
      <trkpt lat="45.14764" lon="5.6844">
        <ele>470.20001220703</ele>
        <time>2015-03-31T11:11:54.000Z</time>
      </trkpt>
      <trkpt lat="45.1477" lon="5.68445">
        <ele>469.79998779297</ele>
        <time>2015-03-31T11:11:56.000Z</time>
      </trkpt>
      <trkpt lat="45.14775" lon="5.6845">
        <ele>469.39999389648</ele>
        <time>2015-03-31T11:11:58.000Z</time>
      </trkpt>
      <trkpt lat="45.14779" lon="5.68457">
        <ele>469.20001220703</ele>
        <time>2015-03-31T11:12:00.000Z</time>
      </trkpt>
      <trkpt lat="45.14786" lon="5.68464">
        <ele>468.39999389648</ele>
        <time>2015-03-31T11:12:03.000Z</time>
      </trkpt>
      <trkpt lat="45.14789" lon="5.68466">
        <ele>468</ele>
        <time>2015-03-31T11:12:04.000Z</time>
      </trkpt>
      <trkpt lat="45.14796" lon="5.68476">
        <ele>467.39999389648</ele>
        <time>2015-03-31T11:12:08.000Z</time>
      </trkpt>
      <trkpt lat="45.14802" lon="5.68478">
        <ele>466.60000610352</ele>
        <time>2015-03-31T11:12:11.000Z</time>
      </trkpt>
      <trkpt lat="45.14807" lon="5.68481">
        <ele>465.79998779297</ele>
        <time>2015-03-31T11:12:14.000Z</time>
      </trkpt>
      <trkpt lat="45.14813" lon="5.68484">
        <ele>465.20001220703</ele>
        <time>2015-03-31T11:12:17.000Z</time>
      </trkpt>
      <trkpt lat="45.14817" lon="5.68486">
        <ele>464.60000610352</ele>
        <time>2015-03-31T11:12:19.000Z</time>
      </trkpt>
      <trkpt lat="45.14821" lon="5.68491">
        <ele>463.60000610352</ele>
        <time>2015-03-31T11:12:23.000Z</time>
      </trkpt>
      <trkpt lat="45.14826" lon="5.68492">
        <ele>462.60000610352</ele>
        <time>2015-03-31T11:12:26.000Z</time>
      </trkpt>
      <trkpt lat="45.14832" lon="5.68494">
        <ele>461.79998779297</ele>
        <time>2015-03-31T11:12:29.000Z</time>
      </trkpt>
      <trkpt lat="45.14837" lon="5.68497">
        <ele>461</ele>
        <time>2015-03-31T11:12:32.000Z</time>
      </trkpt>
      <trkpt lat="45.14843" lon="5.68498">
        <ele>460.39999389648</ele>
        <time>2015-03-31T11:12:34.000Z</time>
      </trkpt>
      <trkpt lat="45.14849" lon="5.68499">
        <ele>459.79998779297</ele>
        <time>2015-03-31T11:12:36.000Z</time>
      </trkpt>
      <trkpt lat="45.14852" lon="5.685">
        <ele>459.60000610352</ele>
        <time>2015-03-31T11:12:37.000Z</time>
      </trkpt>
      <trkpt lat="45.14859" lon="5.68505">
        <ele>458.60000610352</ele>
        <time>2015-03-31T11:12:40.000Z</time>
      </trkpt>
      <trkpt lat="45.14862" lon="5.68507">
        <ele>458.20001220703</ele>
        <time>2015-03-31T11:12:41.000Z</time>
      </trkpt>
      <trkpt lat="45.14875" lon="5.68507">
        <ele>457.20001220703</ele>
        <time>2015-03-31T11:12:45.000Z</time>
      </trkpt>
      <trkpt lat="45.14881" lon="5.6851">
        <ele>456.60000610352</ele>
        <time>2015-03-31T11:12:47.000Z</time>
      </trkpt>
      <trkpt lat="45.14887" lon="5.68513">
        <ele>455.79998779297</ele>
        <time>2015-03-31T11:12:50.000Z</time>
      </trkpt>
      <trkpt lat="45.14889" lon="5.68515">
        <ele>455.39999389648</ele>
        <time>2015-03-31T11:12:51.000Z</time>
      </trkpt>
      <trkpt lat="45.14901" lon="5.68517">
        <ele>454</ele>
        <time>2015-03-31T11:12:57.000Z</time>
      </trkpt>
      <trkpt lat="45.14908" lon="5.68517">
        <ele>453.20001220703</ele>
        <time>2015-03-31T11:13:00.000Z</time>
      </trkpt>
      <trkpt lat="45.14916" lon="5.68513">
        <ele>452.60000610352</ele>
        <time>2015-03-31T11:13:03.000Z</time>
      </trkpt>
      <trkpt lat="45.14922" lon="5.6851">
        <ele>452.39999389648</ele>
        <time>2015-03-31T11:13:05.000Z</time>
      </trkpt>
      <trkpt lat="45.14928" lon="5.68506">
        <ele>452.20001220703</ele>
        <time>2015-03-31T11:13:07.000Z</time>
      </trkpt>
      <trkpt lat="45.14932" lon="5.68499">
        <ele>451.60000610352</ele>
        <time>2015-03-31T11:13:09.000Z</time>
      </trkpt>
      <trkpt lat="45.14937" lon="5.68496">
        <ele>451</ele>
        <time>2015-03-31T11:13:11.000Z</time>
      </trkpt>
      <trkpt lat="45.14938" lon="5.68492">
        <ele>450.79998779297</ele>
        <time>2015-03-31T11:13:12.000Z</time>
      </trkpt>
      <trkpt lat="45.14945" lon="5.68482">
        <ele>450.39999389648</ele>
        <time>2015-03-31T11:13:15.000Z</time>
      </trkpt>
      <trkpt lat="45.14951" lon="5.68476">
        <ele>450.20001220703</ele>
        <time>2015-03-31T11:13:17.000Z</time>
      </trkpt>
      <trkpt lat="45.14956" lon="5.6847">
        <ele>450</ele>
        <time>2015-03-31T11:13:19.000Z</time>
      </trkpt>
      <trkpt lat="45.14964" lon="5.68463">
        <ele>449.79998779297</ele>
        <time>2015-03-31T11:13:21.000Z</time>
      </trkpt>
      <trkpt lat="45.14972" lon="5.6846">
        <ele>449.39999389648</ele>
        <time>2015-03-31T11:13:23.000Z</time>
      </trkpt>
      <trkpt lat="45.14978" lon="5.68457">
        <ele>449</ele>
        <time>2015-03-31T11:13:25.000Z</time>
      </trkpt>
      <trkpt lat="45.14982" lon="5.68455">
        <ele>448.79998779297</ele>
        <time>2015-03-31T11:13:26.000Z</time>
      </trkpt>
      <trkpt lat="45.14991" lon="5.68462">
        <ele>448.39999389648</ele>
        <time>2015-03-31T11:13:29.000Z</time>
      </trkpt>
      <trkpt lat="45.14996" lon="5.6847">
        <ele>448</ele>
        <time>2015-03-31T11:13:31.000Z</time>
      </trkpt>
      <trkpt lat="45.15" lon="5.68474">
        <ele>447.79998779297</ele>
        <time>2015-03-31T11:13:33.000Z</time>
      </trkpt>
      <trkpt lat="45.15007" lon="5.68476">
        <ele>447.60000610352</ele>
        <time>2015-03-31T11:13:35.000Z</time>
      </trkpt>
      <trkpt lat="45.15014" lon="5.68475">
        <ele>447</ele>
        <time>2015-03-31T11:13:37.000Z</time>
      </trkpt>
      <trkpt lat="45.15015" lon="5.68475">
        <ele>446.79998779297</ele>
        <time>2015-03-31T11:13:38.000Z</time>
      </trkpt>
      <trkpt lat="45.15023" lon="5.68475">
        <ele>446.20001220703</ele>
        <time>2015-03-31T11:13:41.000Z</time>
      </trkpt>
      <trkpt lat="45.1503" lon="5.68476">
        <ele>445.39999389648</ele>
        <time>2015-03-31T11:13:44.000Z</time>
      </trkpt>
      <trkpt lat="45.15034" lon="5.68474">
        <ele>444.79998779297</ele>
        <time>2015-03-31T11:13:46.000Z</time>
      </trkpt>
      <trkpt lat="45.15039" lon="5.68473">
        <ele>444.20001220703</ele>
        <time>2015-03-31T11:13:48.000Z</time>
      </trkpt>
      <trkpt lat="45.15044" lon="5.68473">
        <ele>443.60000610352</ele>
        <time>2015-03-31T11:13:50.000Z</time>
      </trkpt>
      <trkpt lat="45.15052" lon="5.68472">
        <ele>442.60000610352</ele>
        <time>2015-03-31T11:13:53.000Z</time>
      </trkpt>
      <trkpt lat="45.15058" lon="5.68477">
        <ele>441.60000610352</ele>
        <time>2015-03-31T11:13:56.000Z</time>
      </trkpt>
      <trkpt lat="45.1506" lon="5.68477">
        <ele>441.20001220703</ele>
        <time>2015-03-31T11:13:57.000Z</time>
      </trkpt>
      <trkpt lat="45.15066" lon="5.68481">
        <ele>440.20001220703</ele>
        <time>2015-03-31T11:14:00.000Z</time>
      </trkpt>
      <trkpt lat="45.15073" lon="5.68482">
        <ele>439.20001220703</ele>
        <time>2015-03-31T11:14:03.000Z</time>
      </trkpt>
      <trkpt lat="45.1508" lon="5.68484">
        <ele>438.20001220703</ele>
        <time>2015-03-31T11:14:05.000Z</time>
      </trkpt>
      <trkpt lat="45.15083" lon="5.68486">
        <ele>437.79998779297</ele>
        <time>2015-03-31T11:14:06.000Z</time>
      </trkpt>
      <trkpt lat="45.15094" lon="5.68494">
        <ele>436</ele>
        <time>2015-03-31T11:14:10.000Z</time>
      </trkpt>
      <trkpt lat="45.15101" lon="5.68497">
        <ele>435</ele>
        <time>2015-03-31T11:14:13.000Z</time>
      </trkpt>
      <trkpt lat="45.15106" lon="5.68501">
        <ele>434</ele>
        <time>2015-03-31T11:14:15.000Z</time>
      </trkpt>
      <trkpt lat="45.15112" lon="5.68502">
        <ele>433</ele>
        <time>2015-03-31T11:14:17.000Z</time>
      </trkpt>
      <trkpt lat="45.15118" lon="5.68504">
        <ele>431.79998779297</ele>
        <time>2015-03-31T11:14:20.000Z</time>
      </trkpt>
      <trkpt lat="45.1512" lon="5.68503">
        <ele>431.39999389648</ele>
        <time>2015-03-31T11:14:21.000Z</time>
      </trkpt>
      <trkpt lat="45.15127" lon="5.68503">
        <ele>429.60000610352</ele>
        <time>2015-03-31T11:14:25.000Z</time>
      </trkpt>
      <trkpt lat="45.15134" lon="5.68505">
        <ele>428.39999389648</ele>
        <time>2015-03-31T11:14:28.000Z</time>
      </trkpt>
      <trkpt lat="45.15136" lon="5.68505">
        <ele>428.20001220703</ele>
        <time>2015-03-31T11:14:29.000Z</time>
      </trkpt>
      <trkpt lat="45.15139" lon="5.68509">
        <ele>427.60000610352</ele>
        <time>2015-03-31T11:14:30.000Z</time>
      </trkpt>
      <trkpt lat="45.15144" lon="5.68514">
        <ele>426.79998779297</ele>
        <time>2015-03-31T11:14:32.000Z</time>
      </trkpt>
      <trkpt lat="45.15149" lon="5.68519">
        <ele>425.60000610352</ele>
        <time>2015-03-31T11:14:35.000Z</time>
      </trkpt>
      <trkpt lat="45.15153" lon="5.68525">
        <ele>424.20001220703</ele>
        <time>2015-03-31T11:14:38.000Z</time>
      </trkpt>
      <trkpt lat="45.15159" lon="5.68532">
        <ele>422.60000610352</ele>
        <time>2015-03-31T11:14:41.000Z</time>
      </trkpt>
      <trkpt lat="45.15164" lon="5.68536">
        <ele>421.60000610352</ele>
        <time>2015-03-31T11:14:43.000Z</time>
      </trkpt>
      <trkpt lat="45.15165" lon="5.68538">
        <ele>421.20001220703</ele>
        <time>2015-03-31T11:14:44.000Z</time>
      </trkpt>
      <trkpt lat="45.15166" lon="5.68539">
        <ele>420.60000610352</ele>
        <time>2015-03-31T11:14:45.000Z</time>
      </trkpt>
      <trkpt lat="45.15174" lon="5.68532">
        <ele>419</ele>
        <time>2015-03-31T11:14:48.000Z</time>
      </trkpt>
      <trkpt lat="45.15178" lon="5.68526">
        <ele>418</ele>
        <time>2015-03-31T11:14:50.000Z</time>
      </trkpt>
      <trkpt lat="45.1519" lon="5.68516">
        <ele>415.39999389648</ele>
        <time>2015-03-31T11:14:55.000Z</time>
      </trkpt>
      <trkpt lat="45.15203" lon="5.68502">
        <ele>413.60000610352</ele>
        <time>2015-03-31T11:14:59.000Z</time>
      </trkpt>
      <trkpt lat="45.15209" lon="5.68495">
        <ele>412.79998779297</ele>
        <time>2015-03-31T11:15:01.000Z</time>
      </trkpt>
      <trkpt lat="45.15212" lon="5.68492">
        <ele>412.39999389648</ele>
        <time>2015-03-31T11:15:02.000Z</time>
      </trkpt>
      <trkpt lat="45.15217" lon="5.68481">
        <ele>411</ele>
        <time>2015-03-31T11:15:05.000Z</time>
      </trkpt>
      <trkpt lat="45.15221" lon="5.68473">
        <ele>410.20001220703</ele>
        <time>2015-03-31T11:15:07.000Z</time>
      </trkpt>
      <trkpt lat="45.15226" lon="5.68465">
        <ele>409.39999389648</ele>
        <time>2015-03-31T11:15:09.000Z</time>
      </trkpt>
      <trkpt lat="45.1523" lon="5.68461">
        <ele>408.39999389648</ele>
        <time>2015-03-31T11:15:11.000Z</time>
      </trkpt>
      <trkpt lat="45.15231" lon="5.68457">
        <ele>408.20001220703</ele>
        <time>2015-03-31T11:15:12.000Z</time>
      </trkpt>
      <trkpt lat="45.15235" lon="5.68451">
        <ele>407.60000610352</ele>
        <time>2015-03-31T11:15:14.000Z</time>
      </trkpt>
      <trkpt lat="45.15239" lon="5.68445">
        <ele>406.79998779297</ele>
        <time>2015-03-31T11:15:16.000Z</time>
      </trkpt>
      <trkpt lat="45.15245" lon="5.68439">
        <ele>406</ele>
        <time>2015-03-31T11:15:18.000Z</time>
      </trkpt>
      <trkpt lat="45.15253" lon="5.68438">
        <ele>405.39999389648</ele>
        <time>2015-03-31T11:15:20.000Z</time>
      </trkpt>
      <trkpt lat="45.15262" lon="5.68437">
        <ele>404.39999389648</ele>
        <time>2015-03-31T11:15:22.000Z</time>
      </trkpt>
      <trkpt lat="45.15269" lon="5.68438">
        <ele>403.60000610352</ele>
        <time>2015-03-31T11:15:24.000Z</time>
      </trkpt>
      <trkpt lat="45.15277" lon="5.68436">
        <ele>402.20001220703</ele>
        <time>2015-03-31T11:15:27.000Z</time>
      </trkpt>
      <trkpt lat="45.15281" lon="5.68433">
        <ele>401.79998779297</ele>
        <time>2015-03-31T11:15:28.000Z</time>
      </trkpt>
      <trkpt lat="45.15286" lon="5.68427">
        <ele>401.20001220703</ele>
        <time>2015-03-31T11:15:30.000Z</time>
      </trkpt>
      <trkpt lat="45.15289" lon="5.68423">
        <ele>400.60000610352</ele>
        <time>2015-03-31T11:15:31.000Z</time>
      </trkpt>
      <trkpt lat="45.15299" lon="5.68424">
        <ele>399.39999389648</ele>
        <time>2015-03-31T11:15:34.000Z</time>
      </trkpt>
      <trkpt lat="45.15302" lon="5.68428">
        <ele>397.79998779297</ele>
        <time>2015-03-31T11:15:37.000Z</time>
      </trkpt>
      <trkpt lat="45.15308" lon="5.6843">
        <ele>396.20001220703</ele>
        <time>2015-03-31T11:15:40.000Z</time>
      </trkpt>
      <trkpt lat="45.1531" lon="5.68432">
        <ele>395.60000610352</ele>
        <time>2015-03-31T11:15:41.000Z</time>
      </trkpt>
      <trkpt lat="45.15313" lon="5.68432">
        <ele>395.20001220703</ele>
        <time>2015-03-31T11:15:42.000Z</time>
      </trkpt>
      <trkpt lat="45.1532" lon="5.68437">
        <ele>393</ele>
        <time>2015-03-31T11:15:46.000Z</time>
      </trkpt>
      <trkpt lat="45.15326" lon="5.68435">
        <ele>391.79998779297</ele>
        <time>2015-03-31T11:15:48.000Z</time>
      </trkpt>
      <trkpt lat="45.15329" lon="5.6843">
        <ele>390</ele>
        <time>2015-03-31T11:15:51.000Z</time>
      </trkpt>
      <trkpt lat="45.15329" lon="5.68419">
        <ele>388.39999389648</ele>
        <time>2015-03-31T11:15:54.000Z</time>
      </trkpt>
      <trkpt lat="45.15329" lon="5.68412">
        <ele>387</ele>
        <time>2015-03-31T11:15:56.000Z</time>
      </trkpt>
      <trkpt lat="45.15327" lon="5.68403">
        <ele>385.39999389648</ele>
        <time>2015-03-31T11:15:59.000Z</time>
      </trkpt>
      <trkpt lat="45.15325" lon="5.68396">
        <ele>384.20001220703</ele>
        <time>2015-03-31T11:16:01.000Z</time>
      </trkpt>
      <trkpt lat="45.15324" lon="5.68387">
        <ele>382.39999389648</ele>
        <time>2015-03-31T11:16:04.000Z</time>
      </trkpt>
      <trkpt lat="45.15323" lon="5.68379">
        <ele>381.39999389648</ele>
        <time>2015-03-31T11:16:06.000Z</time>
      </trkpt>
      <trkpt lat="45.15323" lon="5.68376">
        <ele>380.79998779297</ele>
        <time>2015-03-31T11:16:07.000Z</time>
      </trkpt>
      <trkpt lat="45.15323" lon="5.68368">
        <ele>379.60000610352</ele>
        <time>2015-03-31T11:16:09.000Z</time>
      </trkpt>
      <trkpt lat="45.15324" lon="5.68362">
        <ele>378.20001220703</ele>
        <time>2015-03-31T11:16:11.000Z</time>
      </trkpt>
      <trkpt lat="45.15324" lon="5.68356">
        <ele>377</ele>
        <time>2015-03-31T11:16:13.000Z</time>
      </trkpt>
      <trkpt lat="45.15327" lon="5.68355">
        <ele>372.60000610352</ele>
        <time>2015-03-31T11:16:20.000Z</time>
      </trkpt>
      <trkpt lat="45.15332" lon="5.68357">
        <ele>356.60000610352</ele>
        <time>2015-03-31T11:16:48.000Z</time>
      </trkpt>
      <trkpt lat="45.15334" lon="5.68352">
        <ele>351.20001220703</ele>
        <time>2015-03-31T11:17:02.000Z</time>
      </trkpt>
      <trkpt lat="45.15338" lon="5.68351">
        <ele>349.20001220703</ele>
        <time>2015-03-31T11:17:07.000Z</time>
      </trkpt>
      <trkpt lat="45.15339" lon="5.68351">
        <ele>348.79998779297</ele>
        <time>2015-03-31T11:17:08.000Z</time>
      </trkpt>
      <trkpt lat="45.1534" lon="5.68351">
        <ele>348.60000610352</ele>
        <time>2015-03-31T11:17:09.000Z</time>
      </trkpt>
      <trkpt lat="45.15343" lon="5.68352">
        <ele>346.79998779297</ele>
        <time>2015-03-31T11:17:14.000Z</time>
      </trkpt>
      <trkpt lat="45.15343" lon="5.68352">
        <ele>346.39999389648</ele>
        <time>2015-03-31T11:17:15.000Z</time>
      </trkpt>
      <trkpt lat="45.15349" lon="5.68359">
        <ele>343.20001220703</ele>
        <time>2015-03-31T11:17:28.000Z</time>
      </trkpt>
      <trkpt lat="45.15352" lon="5.68364">
        <ele>342.60000610352</ele>
        <time>2015-03-31T11:17:30.000Z</time>
      </trkpt>
      <trkpt lat="45.15356" lon="5.68371">
        <ele>342.20001220703</ele>
        <time>2015-03-31T11:17:32.000Z</time>
      </trkpt>
      <trkpt lat="45.15359" lon="5.68379">
        <ele>341.60000610352</ele>
        <time>2015-03-31T11:17:34.000Z</time>
      </trkpt>
      <trkpt lat="45.15363" lon="5.68387">
        <ele>341.20001220703</ele>
        <time>2015-03-31T11:17:36.000Z</time>
      </trkpt>
      <trkpt lat="45.15367" lon="5.68396">
        <ele>341</ele>
        <time>2015-03-31T11:17:38.000Z</time>
      </trkpt>
      <trkpt lat="45.15371" lon="5.68402">
        <ele>340.79998779297</ele>
        <time>2015-03-31T11:17:40.000Z</time>
      </trkpt>
      <trkpt lat="45.15375" lon="5.68407">
        <ele>340.20001220703</ele>
        <time>2015-03-31T11:17:42.000Z</time>
      </trkpt>
      <trkpt lat="45.15379" lon="5.68413">
        <ele>339.60000610352</ele>
        <time>2015-03-31T11:17:44.000Z</time>
      </trkpt>
      <trkpt lat="45.15382" lon="5.68418">
        <ele>339.20001220703</ele>
        <time>2015-03-31T11:17:46.000Z</time>
      </trkpt>
      <trkpt lat="45.15384" lon="5.68425">
        <ele>339</ele>
        <time>2015-03-31T11:17:48.000Z</time>
      </trkpt>
      <trkpt lat="45.15387" lon="5.68434">
        <ele>338.60000610352</ele>
        <time>2015-03-31T11:17:51.000Z</time>
      </trkpt>
      <trkpt lat="45.15389" lon="5.68445">
        <ele>338.39999389648</ele>
        <time>2015-03-31T11:17:54.000Z</time>
      </trkpt>
      <trkpt lat="45.15391" lon="5.68451">
        <ele>338.20001220703</ele>
        <time>2015-03-31T11:17:56.000Z</time>
      </trkpt>
      <trkpt lat="45.15393" lon="5.68458">
        <ele>337.60000610352</ele>
        <time>2015-03-31T11:17:58.000Z</time>
      </trkpt>
      <trkpt lat="45.15397" lon="5.68464">
        <ele>337.20001220703</ele>
        <time>2015-03-31T11:18:00.000Z</time>
      </trkpt>
      <trkpt lat="45.15401" lon="5.68469">
        <ele>337</ele>
        <time>2015-03-31T11:18:02.000Z</time>
      </trkpt>
      <trkpt lat="45.15403" lon="5.68475">
        <ele>336.60000610352</ele>
        <time>2015-03-31T11:18:04.000Z</time>
      </trkpt>
      <trkpt lat="45.15404" lon="5.68476">
        <ele>336.60000610352</ele>
        <time>2015-03-31T11:18:05.000Z</time>
      </trkpt>
      <trkpt lat="45.1541" lon="5.6847">
        <ele>336.20001220703</ele>
        <time>2015-03-31T11:18:08.000Z</time>
      </trkpt>
      <trkpt lat="45.15412" lon="5.68468">
        <ele>336.20001220703</ele>
        <time>2015-03-31T11:18:09.000Z</time>
      </trkpt>
      <trkpt lat="45.15414" lon="5.68462">
        <ele>335.79998779297</ele>
        <time>2015-03-31T11:18:11.000Z</time>
      </trkpt>
      <trkpt lat="45.15414" lon="5.68455">
        <ele>335.39999389648</ele>
        <time>2015-03-31T11:18:13.000Z</time>
      </trkpt>
      <trkpt lat="45.15414" lon="5.68445">
        <ele>334.79998779297</ele>
        <time>2015-03-31T11:18:16.000Z</time>
      </trkpt>
      <trkpt lat="45.15414" lon="5.68439">
        <ele>334.60000610352</ele>
        <time>2015-03-31T11:18:18.000Z</time>
      </trkpt>
      <trkpt lat="45.15414" lon="5.68432">
        <ele>334.39999389648</ele>
        <time>2015-03-31T11:18:20.000Z</time>
      </trkpt>
      <trkpt lat="45.15411" lon="5.68422">
        <ele>334.20001220703</ele>
        <time>2015-03-31T11:18:23.000Z</time>
      </trkpt>
      <trkpt lat="45.1541" lon="5.68414">
        <ele>334</ele>
        <time>2015-03-31T11:18:25.000Z</time>
      </trkpt>
      <trkpt lat="45.1541" lon="5.68407">
        <ele>334</ele>
        <time>2015-03-31T11:18:27.000Z</time>
      </trkpt>
      <trkpt lat="45.1541" lon="5.68399">
        <ele>333.39999389648</ele>
        <time>2015-03-31T11:18:29.000Z</time>
      </trkpt>
      <trkpt lat="45.15411" lon="5.6839">
        <ele>333</ele>
        <time>2015-03-31T11:18:31.000Z</time>
      </trkpt>
      <trkpt lat="45.15412" lon="5.68383">
        <ele>332.60000610352</ele>
        <time>2015-03-31T11:18:33.000Z</time>
      </trkpt>
      <trkpt lat="45.15413" lon="5.68373">
        <ele>332.20001220703</ele>
        <time>2015-03-31T11:18:35.000Z</time>
      </trkpt>
      <trkpt lat="45.15415" lon="5.68362">
        <ele>332</ele>
        <time>2015-03-31T11:18:39.000Z</time>
      </trkpt>
      <trkpt lat="45.15416" lon="5.68354">
        <ele>331.60000610352</ele>
        <time>2015-03-31T11:18:41.000Z</time>
      </trkpt>
      <trkpt lat="45.15418" lon="5.68347">
        <ele>331.20001220703</ele>
        <time>2015-03-31T11:18:43.000Z</time>
      </trkpt>
      <trkpt lat="45.1542" lon="5.68341">
        <ele>330.79998779297</ele>
        <time>2015-03-31T11:18:45.000Z</time>
      </trkpt>
      <trkpt lat="45.15422" lon="5.68338">
        <ele>330.60000610352</ele>
        <time>2015-03-31T11:18:46.000Z</time>
      </trkpt>
      <trkpt lat="45.15431" lon="5.68337">
        <ele>330.20001220703</ele>
        <time>2015-03-31T11:18:49.000Z</time>
      </trkpt>
      <trkpt lat="45.15434" lon="5.68337">
        <ele>330</ele>
        <time>2015-03-31T11:18:50.000Z</time>
      </trkpt>
      <trkpt lat="45.1544" lon="5.68339">
        <ele>330</ele>
        <time>2015-03-31T11:18:53.000Z</time>
      </trkpt>
      <trkpt lat="45.15446" lon="5.68342">
        <ele>329.79998779297</ele>
        <time>2015-03-31T11:18:55.000Z</time>
      </trkpt>
      <trkpt lat="45.1545" lon="5.68342">
        <ele>329.20001220703</ele>
        <time>2015-03-31T11:18:57.000Z</time>
      </trkpt>
      <trkpt lat="45.15455" lon="5.68344">
        <ele>328.79998779297</ele>
        <time>2015-03-31T11:18:59.000Z</time>
      </trkpt>
      <trkpt lat="45.15461" lon="5.68346">
        <ele>328.60000610352</ele>
        <time>2015-03-31T11:19:01.000Z</time>
      </trkpt>
      <trkpt lat="45.15465" lon="5.68346">
        <ele>328.20001220703</ele>
        <time>2015-03-31T11:19:03.000Z</time>
      </trkpt>
      <trkpt lat="45.1547" lon="5.68347">
        <ele>328</ele>
        <time>2015-03-31T11:19:05.000Z</time>
      </trkpt>
      <trkpt lat="45.15475" lon="5.68347">
        <ele>327.79998779297</ele>
        <time>2015-03-31T11:19:07.000Z</time>
      </trkpt>
      <trkpt lat="45.15483" lon="5.68346">
        <ele>327.60000610352</ele>
        <time>2015-03-31T11:19:10.000Z</time>
      </trkpt>
      <trkpt lat="45.15489" lon="5.68344">
        <ele>327.60000610352</ele>
        <time>2015-03-31T11:19:12.000Z</time>
      </trkpt>
      <trkpt lat="45.15495" lon="5.68344">
        <ele>327.60000610352</ele>
        <time>2015-03-31T11:19:14.000Z</time>
      </trkpt>
      <trkpt lat="45.155" lon="5.68342">
        <ele>327.39999389648</ele>
        <time>2015-03-31T11:19:16.000Z</time>
      </trkpt>
      <trkpt lat="45.15505" lon="5.68341">
        <ele>327.39999389648</ele>
        <time>2015-03-31T11:19:18.000Z</time>
      </trkpt>
      <trkpt lat="45.15511" lon="5.6834">
        <ele>327.39999389648</ele>
        <time>2015-03-31T11:19:21.000Z</time>
      </trkpt>
      <trkpt lat="45.15515" lon="5.68341">
        <ele>327.39999389648</ele>
        <time>2015-03-31T11:19:22.000Z</time>
      </trkpt>
      <trkpt lat="45.15521" lon="5.68342">
        <ele>327.20001220703</ele>
        <time>2015-03-31T11:19:24.000Z</time>
      </trkpt>
      <trkpt lat="45.15526" lon="5.68344">
        <ele>327.20001220703</ele>
        <time>2015-03-31T11:19:26.000Z</time>
      </trkpt>
      <trkpt lat="45.15531" lon="5.68347">
        <ele>327.20001220703</ele>
        <time>2015-03-31T11:19:28.000Z</time>
      </trkpt>
      <trkpt lat="45.15536" lon="5.68348">
        <ele>327.20001220703</ele>
        <time>2015-03-31T11:19:30.000Z</time>
      </trkpt>
      <trkpt lat="45.15542" lon="5.68352">
        <ele>327</ele>
        <time>2015-03-31T11:19:33.000Z</time>
      </trkpt>
      <trkpt lat="45.15547" lon="5.68355">
        <ele>326.60000610352</ele>
        <time>2015-03-31T11:19:35.000Z</time>
      </trkpt>
      <trkpt lat="45.15552" lon="5.6836">
        <ele>326.39999389648</ele>
        <time>2015-03-31T11:19:37.000Z</time>
      </trkpt>
      <trkpt lat="45.15557" lon="5.68364">
        <ele>326.20001220703</ele>
        <time>2015-03-31T11:19:39.000Z</time>
      </trkpt>
      <trkpt lat="45.15562" lon="5.68369">
        <ele>326</ele>
        <time>2015-03-31T11:19:41.000Z</time>
      </trkpt>
      <trkpt lat="45.15567" lon="5.68375">
        <ele>325.79998779297</ele>
        <time>2015-03-31T11:19:43.000Z</time>
      </trkpt>
      <trkpt lat="45.15574" lon="5.68385">
        <ele>325.60000610352</ele>
        <time>2015-03-31T11:19:46.000Z</time>
      </trkpt>
      <trkpt lat="45.15577" lon="5.68392">
        <ele>325.60000610352</ele>
        <time>2015-03-31T11:19:48.000Z</time>
      </trkpt>
      <trkpt lat="45.15581" lon="5.68398">
        <ele>325</ele>
        <time>2015-03-31T11:19:50.000Z</time>
      </trkpt>
      <trkpt lat="45.15585" lon="5.68404">
        <ele>324.60000610352</ele>
        <time>2015-03-31T11:19:52.000Z</time>
      </trkpt>
      <trkpt lat="45.15588" lon="5.68406">
        <ele>324.39999389648</ele>
        <time>2015-03-31T11:19:53.000Z</time>
      </trkpt>
      <trkpt lat="45.15594" lon="5.68413">
        <ele>324.20001220703</ele>
        <time>2015-03-31T11:19:56.000Z</time>
      </trkpt>
      <trkpt lat="45.15598" lon="5.68419">
        <ele>324</ele>
        <time>2015-03-31T11:19:58.000Z</time>
      </trkpt>
      <trkpt lat="45.15602" lon="5.68424">
        <ele>323.79998779297</ele>
        <time>2015-03-31T11:20:00.000Z</time>
      </trkpt>
      <trkpt lat="45.15606" lon="5.6843">
        <ele>323.20001220703</ele>
        <time>2015-03-31T11:20:03.000Z</time>
      </trkpt>
      <trkpt lat="45.15609" lon="5.68434">
        <ele>323</ele>
        <time>2015-03-31T11:20:04.000Z</time>
      </trkpt>
      <trkpt lat="45.15616" lon="5.68438">
        <ele>322.39999389648</ele>
        <time>2015-03-31T11:20:07.000Z</time>
      </trkpt>
      <trkpt lat="45.1562" lon="5.68441">
        <ele>322.20001220703</ele>
        <time>2015-03-31T11:20:09.000Z</time>
      </trkpt>
      <trkpt lat="45.15623" lon="5.68455">
        <ele>321.79998779297</ele>
        <time>2015-03-31T11:20:12.000Z</time>
      </trkpt>
      <trkpt lat="45.15621" lon="5.68463">
        <ele>321.60000610352</ele>
        <time>2015-03-31T11:20:14.000Z</time>
      </trkpt>
      <trkpt lat="45.1562" lon="5.68465">
        <ele>321.39999389648</ele>
        <time>2015-03-31T11:20:15.000Z</time>
      </trkpt>
      <trkpt lat="45.15619" lon="5.68473">
        <ele>321</ele>
        <time>2015-03-31T11:20:17.000Z</time>
      </trkpt>
      <trkpt lat="45.15617" lon="5.6848">
        <ele>320.60000610352</ele>
        <time>2015-03-31T11:20:19.000Z</time>
      </trkpt>
      <trkpt lat="45.15614" lon="5.68491">
        <ele>320.20001220703</ele>
        <time>2015-03-31T11:20:22.000Z</time>
      </trkpt>
      <trkpt lat="45.15613" lon="5.68499">
        <ele>319.79998779297</ele>
        <time>2015-03-31T11:20:24.000Z</time>
      </trkpt>
      <trkpt lat="45.15611" lon="5.68506">
        <ele>319.79998779297</ele>
        <time>2015-03-31T11:20:26.000Z</time>
      </trkpt>
      <trkpt lat="45.1561" lon="5.68513">
        <ele>319.39999389648</ele>
        <time>2015-03-31T11:20:28.000Z</time>
      </trkpt>
      <trkpt lat="45.15608" lon="5.6852">
        <ele>318.79998779297</ele>
        <time>2015-03-31T11:20:30.000Z</time>
      </trkpt>
      <trkpt lat="45.15604" lon="5.68526">
        <ele>318.39999389648</ele>
        <time>2015-03-31T11:20:32.000Z</time>
      </trkpt>
      <trkpt lat="45.15602" lon="5.68532">
        <ele>318.20001220703</ele>
        <time>2015-03-31T11:20:34.000Z</time>
      </trkpt>
      <trkpt lat="45.15601" lon="5.68536">
        <ele>318</ele>
        <time>2015-03-31T11:20:35.000Z</time>
      </trkpt>
      <trkpt lat="45.15595" lon="5.68546">
        <ele>317.60000610352</ele>
        <time>2015-03-31T11:20:38.000Z</time>
      </trkpt>
      <trkpt lat="45.15592" lon="5.68553">
        <ele>317.60000610352</ele>
        <time>2015-03-31T11:20:40.000Z</time>
      </trkpt>
      <trkpt lat="45.15588" lon="5.68559">
        <ele>317.39999389648</ele>
        <time>2015-03-31T11:20:42.000Z</time>
      </trkpt>
      <trkpt lat="45.15584" lon="5.68565">
        <ele>316.79998779297</ele>
        <time>2015-03-31T11:20:44.000Z</time>
      </trkpt>
      <trkpt lat="45.1558" lon="5.68571">
        <ele>316.39999389648</ele>
        <time>2015-03-31T11:20:46.000Z</time>
      </trkpt>
      <trkpt lat="45.15576" lon="5.68576">
        <ele>316.20001220703</ele>
        <time>2015-03-31T11:20:48.000Z</time>
      </trkpt>
      <trkpt lat="45.15573" lon="5.68582">
        <ele>315.79998779297</ele>
        <time>2015-03-31T11:20:50.000Z</time>
      </trkpt>
      <trkpt lat="45.1557" lon="5.68587">
        <ele>315.60000610352</ele>
        <time>2015-03-31T11:20:52.000Z</time>
      </trkpt>
      <trkpt lat="45.15566" lon="5.68594">
        <ele>315.39999389648</ele>
        <time>2015-03-31T11:20:54.000Z</time>
      </trkpt>
      <trkpt lat="45.15563" lon="5.68599">
        <ele>315.39999389648</ele>
        <time>2015-03-31T11:20:56.000Z</time>
      </trkpt>
      <trkpt lat="45.15559" lon="5.68607">
        <ele>315</ele>
        <time>2015-03-31T11:20:58.000Z</time>
      </trkpt>
      <trkpt lat="45.15556" lon="5.68615">
        <ele>314.60000610352</ele>
        <time>2015-03-31T11:21:00.000Z</time>
      </trkpt>
      <trkpt lat="45.15553" lon="5.68622">
        <ele>314.20001220703</ele>
        <time>2015-03-31T11:21:02.000Z</time>
      </trkpt>
      <trkpt lat="45.1555" lon="5.68628">
        <ele>314</ele>
        <time>2015-03-31T11:21:04.000Z</time>
      </trkpt>
      <trkpt lat="45.15548" lon="5.68634">
        <ele>313.60000610352</ele>
        <time>2015-03-31T11:21:06.000Z</time>
      </trkpt>
      <trkpt lat="45.15547" lon="5.68638">
        <ele>313.60000610352</ele>
        <time>2015-03-31T11:21:07.000Z</time>
      </trkpt>
      <trkpt lat="45.15548" lon="5.68643">
        <ele>313.39999389648</ele>
        <time>2015-03-31T11:21:09.000Z</time>
      </trkpt>
      <trkpt lat="45.15554" lon="5.68653">
        <ele>313</ele>
        <time>2015-03-31T11:21:13.000Z</time>
      </trkpt>
      <trkpt lat="45.15558" lon="5.6866">
        <ele>312.39999389648</ele>
        <time>2015-03-31T11:21:16.000Z</time>
      </trkpt>
      <trkpt lat="45.15562" lon="5.68665">
        <ele>312</ele>
        <time>2015-03-31T11:21:18.000Z</time>
      </trkpt>
      <trkpt lat="45.15564" lon="5.68671">
        <ele>311.79998779297</ele>
        <time>2015-03-31T11:21:20.000Z</time>
      </trkpt>
      <trkpt lat="45.15565" lon="5.68677">
        <ele>311.60000610352</ele>
        <time>2015-03-31T11:21:22.000Z</time>
      </trkpt>
      <trkpt lat="45.15567" lon="5.68685">
        <ele>311.39999389648</ele>
        <time>2015-03-31T11:21:24.000Z</time>
      </trkpt>
      <trkpt lat="45.15568" lon="5.68691">
        <ele>311.20001220703</ele>
        <time>2015-03-31T11:21:26.000Z</time>
      </trkpt>
      <trkpt lat="45.15571" lon="5.68697">
        <ele>310.79998779297</ele>
        <time>2015-03-31T11:21:28.000Z</time>
      </trkpt>
      <trkpt lat="45.15573" lon="5.68703">
        <ele>310.39999389648</ele>
        <time>2015-03-31T11:21:30.000Z</time>
      </trkpt>
      <trkpt lat="45.15574" lon="5.68705">
        <ele>310.20001220703</ele>
        <time>2015-03-31T11:21:31.000Z</time>
      </trkpt>
      <trkpt lat="45.1558" lon="5.68711">
        <ele>309.79998779297</ele>
        <time>2015-03-31T11:21:34.000Z</time>
      </trkpt>
      <trkpt lat="45.15584" lon="5.68716">
        <ele>309.60000610352</ele>
        <time>2015-03-31T11:21:36.000Z</time>
      </trkpt>
      <trkpt lat="45.15588" lon="5.6872">
        <ele>309</ele>
        <time>2015-03-31T11:21:38.000Z</time>
      </trkpt>
      <trkpt lat="45.15591" lon="5.68725">
        <ele>308.39999389648</ele>
        <time>2015-03-31T11:21:40.000Z</time>
      </trkpt>
      <trkpt lat="45.15597" lon="5.68731">
        <ele>307.79998779297</ele>
        <time>2015-03-31T11:21:43.000Z</time>
      </trkpt>
      <trkpt lat="45.15602" lon="5.68738">
        <ele>307.39999389648</ele>
        <time>2015-03-31T11:21:46.000Z</time>
      </trkpt>
      <trkpt lat="45.15605" lon="5.68744">
        <ele>307</ele>
        <time>2015-03-31T11:21:48.000Z</time>
      </trkpt>
      <trkpt lat="45.15609" lon="5.68752">
        <ele>306.20001220703</ele>
        <time>2015-03-31T11:21:51.000Z</time>
      </trkpt>
      <trkpt lat="45.15611" lon="5.68755">
        <ele>305.79998779297</ele>
        <time>2015-03-31T11:21:52.000Z</time>
      </trkpt>
      <trkpt lat="45.15616" lon="5.68764">
        <ele>305.60000610352</ele>
        <time>2015-03-31T11:21:55.000Z</time>
      </trkpt>
      <trkpt lat="45.15621" lon="5.68772">
        <ele>305.20001220703</ele>
        <time>2015-03-31T11:21:58.000Z</time>
      </trkpt>
      <trkpt lat="45.15625" lon="5.68777">
        <ele>305</ele>
        <time>2015-03-31T11:22:00.000Z</time>
      </trkpt>
      <trkpt lat="45.15628" lon="5.68782">
        <ele>304.79998779297</ele>
        <time>2015-03-31T11:22:02.000Z</time>
      </trkpt>
      <trkpt lat="45.15631" lon="5.68788">
        <ele>304.60000610352</ele>
        <time>2015-03-31T11:22:04.000Z</time>
      </trkpt>
      <trkpt lat="45.15632" lon="5.68795">
        <ele>304</ele>
        <time>2015-03-31T11:22:06.000Z</time>
      </trkpt>
      <trkpt lat="45.15634" lon="5.68802">
        <ele>303.60000610352</ele>
        <time>2015-03-31T11:22:08.000Z</time>
      </trkpt>
      <trkpt lat="45.15635" lon="5.6881">
        <ele>303.39999389648</ele>
        <time>2015-03-31T11:22:10.000Z</time>
      </trkpt>
      <trkpt lat="45.15636" lon="5.68818">
        <ele>303.20001220703</ele>
        <time>2015-03-31T11:22:12.000Z</time>
      </trkpt>
      <trkpt lat="45.15638" lon="5.68826">
        <ele>303</ele>
        <time>2015-03-31T11:22:14.000Z</time>
      </trkpt>
      <trkpt lat="45.15639" lon="5.68832">
        <ele>302.79998779297</ele>
        <time>2015-03-31T11:22:16.000Z</time>
      </trkpt>
      <trkpt lat="45.15642" lon="5.68839">
        <ele>302.39999389648</ele>
        <time>2015-03-31T11:22:18.000Z</time>
      </trkpt>
      <trkpt lat="45.15644" lon="5.68846">
        <ele>302</ele>
        <time>2015-03-31T11:22:20.000Z</time>
      </trkpt>
      <trkpt lat="45.15645" lon="5.68855">
        <ele>301.60000610352</ele>
        <time>2015-03-31T11:22:22.000Z</time>
      </trkpt>
      <trkpt lat="45.15646" lon="5.68863">
        <ele>301.20001220703</ele>
        <time>2015-03-31T11:22:24.000Z</time>
      </trkpt>
      <trkpt lat="45.15648" lon="5.68869">
        <ele>301</ele>
        <time>2015-03-31T11:22:26.000Z</time>
      </trkpt>
      <trkpt lat="45.1565" lon="5.68875">
        <ele>300.79998779297</ele>
        <time>2015-03-31T11:22:28.000Z</time>
      </trkpt>
      <trkpt lat="45.15651" lon="5.68882">
        <ele>300.60000610352</ele>
        <time>2015-03-31T11:22:30.000Z</time>
      </trkpt>
      <trkpt lat="45.15652" lon="5.6889">
        <ele>300.39999389648</ele>
        <time>2015-03-31T11:22:32.000Z</time>
      </trkpt>
      <trkpt lat="45.15653" lon="5.68899">
        <ele>299.79998779297</ele>
        <time>2015-03-31T11:22:34.000Z</time>
      </trkpt>
      <trkpt lat="45.15653" lon="5.68908">
        <ele>299.39999389648</ele>
        <time>2015-03-31T11:22:36.000Z</time>
      </trkpt>
      <trkpt lat="45.15653" lon="5.68915">
        <ele>299.20001220703</ele>
        <time>2015-03-31T11:22:38.000Z</time>
      </trkpt>
      <trkpt lat="45.15652" lon="5.68923">
        <ele>299</ele>
        <time>2015-03-31T11:22:40.000Z</time>
      </trkpt>
      <trkpt lat="45.15652" lon="5.6893">
        <ele>298.79998779297</ele>
        <time>2015-03-31T11:22:42.000Z</time>
      </trkpt>
      <trkpt lat="45.15651" lon="5.68937">
        <ele>298.39999389648</ele>
        <time>2015-03-31T11:22:44.000Z</time>
      </trkpt>
      <trkpt lat="45.1565" lon="5.68946">
        <ele>297.79998779297</ele>
        <time>2015-03-31T11:22:46.000Z</time>
      </trkpt>
      <trkpt lat="45.1565" lon="5.68953">
        <ele>297.39999389648</ele>
        <time>2015-03-31T11:22:48.000Z</time>
      </trkpt>
      <trkpt lat="45.15649" lon="5.6896">
        <ele>297.20001220703</ele>
        <time>2015-03-31T11:22:50.000Z</time>
      </trkpt>
      <trkpt lat="45.15649" lon="5.68963">
        <ele>297</ele>
        <time>2015-03-31T11:22:51.000Z</time>
      </trkpt>
      <trkpt lat="45.1565" lon="5.68976">
        <ele>296.60000610352</ele>
        <time>2015-03-31T11:22:55.000Z</time>
      </trkpt>
      <trkpt lat="45.1565" lon="5.68987">
        <ele>296.39999389648</ele>
        <time>2015-03-31T11:22:58.000Z</time>
      </trkpt>
      <trkpt lat="45.1565" lon="5.68994">
        <ele>296.20001220703</ele>
        <time>2015-03-31T11:23:00.000Z</time>
      </trkpt>
      <trkpt lat="45.1565" lon="5.69003">
        <ele>296.20001220703</ele>
        <time>2015-03-31T11:23:02.000Z</time>
      </trkpt>
      <trkpt lat="45.15649" lon="5.69009">
        <ele>296.20001220703</ele>
        <time>2015-03-31T11:23:04.000Z</time>
      </trkpt>
      <trkpt lat="45.1565" lon="5.69012">
        <ele>296</ele>
        <time>2015-03-31T11:23:05.000Z</time>
      </trkpt>
      <trkpt lat="45.15653" lon="5.69018">
        <ele>295.39999389648</ele>
        <time>2015-03-31T11:23:08.000Z</time>
      </trkpt>
      <trkpt lat="45.15655" lon="5.69023">
        <ele>295.20001220703</ele>
        <time>2015-03-31T11:23:10.000Z</time>
      </trkpt>
      <trkpt lat="45.15656" lon="5.69026">
        <ele>295</ele>
        <time>2015-03-31T11:23:11.000Z</time>
      </trkpt>
      <trkpt lat="45.15656" lon="5.69036">
        <ele>294.60000610352</ele>
        <time>2015-03-31T11:23:14.000Z</time>
      </trkpt>
      <trkpt lat="45.15654" lon="5.69043">
        <ele>294.39999389648</ele>
        <time>2015-03-31T11:23:16.000Z</time>
      </trkpt>
      <trkpt lat="45.15651" lon="5.6905">
        <ele>294</ele>
        <time>2015-03-31T11:23:18.000Z</time>
      </trkpt>
      <trkpt lat="45.15648" lon="5.69055">
        <ele>293.60000610352</ele>
        <time>2015-03-31T11:23:20.000Z</time>
      </trkpt>
      <trkpt lat="45.15646" lon="5.69061">
        <ele>293.20001220703</ele>
        <time>2015-03-31T11:23:22.000Z</time>
      </trkpt>
      <trkpt lat="45.15643" lon="5.69067">
        <ele>292.60000610352</ele>
        <time>2015-03-31T11:23:24.000Z</time>
      </trkpt>
      <trkpt lat="45.1564" lon="5.69073">
        <ele>292</ele>
        <time>2015-03-31T11:23:26.000Z</time>
      </trkpt>
      <trkpt lat="45.15637" lon="5.69078">
        <ele>291.60000610352</ele>
        <time>2015-03-31T11:23:28.000Z</time>
      </trkpt>
      <trkpt lat="45.15634" lon="5.69084">
        <ele>291.20001220703</ele>
        <time>2015-03-31T11:23:30.000Z</time>
      </trkpt>
      <trkpt lat="45.15632" lon="5.6909">
        <ele>290.39999389648</ele>
        <time>2015-03-31T11:23:32.000Z</time>
      </trkpt>
      <trkpt lat="45.15629" lon="5.69096">
        <ele>289.79998779297</ele>
        <time>2015-03-31T11:23:34.000Z</time>
      </trkpt>
      <trkpt lat="45.15627" lon="5.69102">
        <ele>289.20001220703</ele>
        <time>2015-03-31T11:23:36.000Z</time>
      </trkpt>
      <trkpt lat="45.15625" lon="5.69109">
        <ele>288.60000610352</ele>
        <time>2015-03-31T11:23:38.000Z</time>
      </trkpt>
      <trkpt lat="45.15623" lon="5.69115">
        <ele>288</ele>
        <time>2015-03-31T11:23:40.000Z</time>
      </trkpt>
      <trkpt lat="45.15621" lon="5.69122">
        <ele>287.39999389648</ele>
        <time>2015-03-31T11:23:42.000Z</time>
      </trkpt>
      <trkpt lat="45.15619" lon="5.69128">
        <ele>287</ele>
        <time>2015-03-31T11:23:44.000Z</time>
      </trkpt>
      <trkpt lat="45.15617" lon="5.69135">
        <ele>286.39999389648</ele>
        <time>2015-03-31T11:23:46.000Z</time>
      </trkpt>
      <trkpt lat="45.15617" lon="5.69143">
        <ele>285.79998779297</ele>
        <time>2015-03-31T11:23:48.000Z</time>
      </trkpt>
      <trkpt lat="45.15615" lon="5.69151">
        <ele>285.20001220703</ele>
        <time>2015-03-31T11:23:50.000Z</time>
      </trkpt>
      <trkpt lat="45.15613" lon="5.69157">
        <ele>284.79998779297</ele>
        <time>2015-03-31T11:23:52.000Z</time>
      </trkpt>
      <trkpt lat="45.15612" lon="5.69166">
        <ele>284.20001220703</ele>
        <time>2015-03-31T11:23:54.000Z</time>
      </trkpt>
      <trkpt lat="45.1561" lon="5.69173">
        <ele>283.60000610352</ele>
        <time>2015-03-31T11:23:56.000Z</time>
      </trkpt>
      <trkpt lat="45.15609" lon="5.69181">
        <ele>283</ele>
        <time>2015-03-31T11:23:58.000Z</time>
      </trkpt>
      <trkpt lat="45.15607" lon="5.69188">
        <ele>282.60000610352</ele>
        <time>2015-03-31T11:24:00.000Z</time>
      </trkpt>
      <trkpt lat="45.15606" lon="5.69196">
        <ele>282.20001220703</ele>
        <time>2015-03-31T11:24:02.000Z</time>
      </trkpt>
      <trkpt lat="45.15606" lon="5.69203">
        <ele>281.60000610352</ele>
        <time>2015-03-31T11:24:04.000Z</time>
      </trkpt>
      <trkpt lat="45.15605" lon="5.69211">
        <ele>281</ele>
        <time>2015-03-31T11:24:06.000Z</time>
      </trkpt>
      <trkpt lat="45.15604" lon="5.69219">
        <ele>280.60000610352</ele>
        <time>2015-03-31T11:24:08.000Z</time>
      </trkpt>
      <trkpt lat="45.15605" lon="5.69226">
        <ele>280</ele>
        <time>2015-03-31T11:24:10.000Z</time>
      </trkpt>
      <trkpt lat="45.15606" lon="5.69234">
        <ele>279.39999389648</ele>
        <time>2015-03-31T11:24:12.000Z</time>
      </trkpt>
      <trkpt lat="45.15607" lon="5.69242">
        <ele>278.79998779297</ele>
        <time>2015-03-31T11:24:14.000Z</time>
      </trkpt>
      <trkpt lat="45.15608" lon="5.6925">
        <ele>278.39999389648</ele>
        <time>2015-03-31T11:24:16.000Z</time>
      </trkpt>
      <trkpt lat="45.15608" lon="5.69258">
        <ele>277.79998779297</ele>
        <time>2015-03-31T11:24:18.000Z</time>
      </trkpt>
      <trkpt lat="45.15609" lon="5.69266">
        <ele>277.20001220703</ele>
        <time>2015-03-31T11:24:20.000Z</time>
      </trkpt>
      <trkpt lat="45.1561" lon="5.69274">
        <ele>276.60000610352</ele>
        <time>2015-03-31T11:24:22.000Z</time>
      </trkpt>
      <trkpt lat="45.15611" lon="5.69283">
        <ele>276.20001220703</ele>
        <time>2015-03-31T11:24:24.000Z</time>
      </trkpt>
      <trkpt lat="45.15611" lon="5.69291">
        <ele>275.39999389648</ele>
        <time>2015-03-31T11:24:26.000Z</time>
      </trkpt>
      <trkpt lat="45.15612" lon="5.69299">
        <ele>274.79998779297</ele>
        <time>2015-03-31T11:24:28.000Z</time>
      </trkpt>
      <trkpt lat="45.15613" lon="5.69307">
        <ele>274.39999389648</ele>
        <time>2015-03-31T11:24:30.000Z</time>
      </trkpt>
      <trkpt lat="45.15614" lon="5.69315">
        <ele>273.79998779297</ele>
        <time>2015-03-31T11:24:32.000Z</time>
      </trkpt>
      <trkpt lat="45.15615" lon="5.69323">
        <ele>273</ele>
        <time>2015-03-31T11:24:34.000Z</time>
      </trkpt>
      <trkpt lat="45.15617" lon="5.6933">
        <ele>272.60000610352</ele>
        <time>2015-03-31T11:24:36.000Z</time>
      </trkpt>
      <trkpt lat="45.15617" lon="5.69338">
        <ele>272</ele>
        <time>2015-03-31T11:24:38.000Z</time>
      </trkpt>
      <trkpt lat="45.15618" lon="5.69346">
        <ele>271.39999389648</ele>
        <time>2015-03-31T11:24:40.000Z</time>
      </trkpt>
      <trkpt lat="45.15619" lon="5.69354">
        <ele>270.60000610352</ele>
        <time>2015-03-31T11:24:42.000Z</time>
      </trkpt>
      <trkpt lat="45.15621" lon="5.69363">
        <ele>270.20001220703</ele>
        <time>2015-03-31T11:24:44.000Z</time>
      </trkpt>
      <trkpt lat="45.15622" lon="5.69371">
        <ele>269.60000610352</ele>
        <time>2015-03-31T11:24:46.000Z</time>
      </trkpt>
      <trkpt lat="45.15624" lon="5.6938">
        <ele>268.79998779297</ele>
        <time>2015-03-31T11:24:48.000Z</time>
      </trkpt>
      <trkpt lat="45.15624" lon="5.69388">
        <ele>268.20001220703</ele>
        <time>2015-03-31T11:24:50.000Z</time>
      </trkpt>
      <trkpt lat="45.15625" lon="5.69396">
        <ele>267.79998779297</ele>
        <time>2015-03-31T11:24:52.000Z</time>
      </trkpt>
      <trkpt lat="45.15625" lon="5.69404">
        <ele>267</ele>
        <time>2015-03-31T11:24:54.000Z</time>
      </trkpt>
      <trkpt lat="45.15626" lon="5.69412">
        <ele>266.39999389648</ele>
        <time>2015-03-31T11:24:56.000Z</time>
      </trkpt>
      <trkpt lat="45.15626" lon="5.69416">
        <ele>265.79998779297</ele>
        <time>2015-03-31T11:24:57.000Z</time>
      </trkpt>
      <trkpt lat="45.15627" lon="5.69424">
        <ele>265.20001220703</ele>
        <time>2015-03-31T11:24:59.000Z</time>
      </trkpt>
      <trkpt lat="45.15628" lon="5.69431">
        <ele>264.60000610352</ele>
        <time>2015-03-31T11:25:01.000Z</time>
      </trkpt>
      <trkpt lat="45.1563" lon="5.69442">
        <ele>264</ele>
        <time>2015-03-31T11:25:04.000Z</time>
      </trkpt>
      <trkpt lat="45.15631" lon="5.6945">
        <ele>263.60000610352</ele>
        <time>2015-03-31T11:25:06.000Z</time>
      </trkpt>
      <trkpt lat="45.15633" lon="5.69457">
        <ele>263</ele>
        <time>2015-03-31T11:25:08.000Z</time>
      </trkpt>
      <trkpt lat="45.15635" lon="5.69465">
        <ele>262.20001220703</ele>
        <time>2015-03-31T11:25:10.000Z</time>
      </trkpt>
      <trkpt lat="45.15638" lon="5.69472">
        <ele>261.79998779297</ele>
        <time>2015-03-31T11:25:12.000Z</time>
      </trkpt>
      <trkpt lat="45.1564" lon="5.69479">
        <ele>261.39999389648</ele>
        <time>2015-03-31T11:25:14.000Z</time>
      </trkpt>
      <trkpt lat="45.15643" lon="5.69486">
        <ele>260.79998779297</ele>
        <time>2015-03-31T11:25:16.000Z</time>
      </trkpt>
      <trkpt lat="45.15645" lon="5.69493">
        <ele>260</ele>
        <time>2015-03-31T11:25:18.000Z</time>
      </trkpt>
      <trkpt lat="45.15646" lon="5.695">
        <ele>259.60000610352</ele>
        <time>2015-03-31T11:25:20.000Z</time>
      </trkpt>
      <trkpt lat="45.15649" lon="5.69506">
        <ele>259</ele>
        <time>2015-03-31T11:25:22.000Z</time>
      </trkpt>
      <trkpt lat="45.15652" lon="5.69512">
        <ele>258.39999389648</ele>
        <time>2015-03-31T11:25:24.000Z</time>
      </trkpt>
      <trkpt lat="45.15656" lon="5.69516">
        <ele>257.60000610352</ele>
        <time>2015-03-31T11:25:26.000Z</time>
      </trkpt>
      <trkpt lat="45.1566" lon="5.6952">
        <ele>257.20001220703</ele>
        <time>2015-03-31T11:25:28.000Z</time>
      </trkpt>
      <trkpt lat="45.15666" lon="5.69527">
        <ele>256.20001220703</ele>
        <time>2015-03-31T11:25:31.000Z</time>
      </trkpt>
      <trkpt lat="45.1567" lon="5.69531">
        <ele>255.60000610352</ele>
        <time>2015-03-31T11:25:33.000Z</time>
      </trkpt>
      <trkpt lat="45.15673" lon="5.69535">
        <ele>255.19999694824</ele>
        <time>2015-03-31T11:25:35.000Z</time>
      </trkpt>
      <trkpt lat="45.15678" lon="5.69538">
        <ele>254.39999389648</ele>
        <time>2015-03-31T11:25:37.000Z</time>
      </trkpt>
      <trkpt lat="45.15682" lon="5.69541">
        <ele>253.80000305176</ele>
        <time>2015-03-31T11:25:39.000Z</time>
      </trkpt>
      <trkpt lat="45.15687" lon="5.69544">
        <ele>253.19999694824</ele>
        <time>2015-03-31T11:25:41.000Z</time>
      </trkpt>
      <trkpt lat="45.15692" lon="5.69547">
        <ele>252.80000305176</ele>
        <time>2015-03-31T11:25:43.000Z</time>
      </trkpt>
      <trkpt lat="45.15697" lon="5.69549">
        <ele>252</ele>
        <time>2015-03-31T11:25:45.000Z</time>
      </trkpt>
      <trkpt lat="45.15702" lon="5.69551">
        <ele>251.39999389648</ele>
        <time>2015-03-31T11:25:47.000Z</time>
      </trkpt>
      <trkpt lat="45.15707" lon="5.69553">
        <ele>250.80000305176</ele>
        <time>2015-03-31T11:25:49.000Z</time>
      </trkpt>
      <trkpt lat="45.15712" lon="5.69555">
        <ele>250</ele>
        <time>2015-03-31T11:25:51.000Z</time>
      </trkpt>
      <trkpt lat="45.15718" lon="5.69556">
        <ele>249.39999389648</ele>
        <time>2015-03-31T11:25:53.000Z</time>
      </trkpt>
      <trkpt lat="45.1572" lon="5.69557">
        <ele>249</ele>
        <time>2015-03-31T11:25:54.000Z</time>
      </trkpt>
      <trkpt lat="45.15728" lon="5.69561">
        <ele>248.19999694824</ele>
        <time>2015-03-31T11:25:57.000Z</time>
      </trkpt>
      <trkpt lat="45.15732" lon="5.69565">
        <ele>247.60000610352</ele>
        <time>2015-03-31T11:25:59.000Z</time>
      </trkpt>
      <trkpt lat="45.15737" lon="5.69569">
        <ele>247</ele>
        <time>2015-03-31T11:26:01.000Z</time>
      </trkpt>
      <trkpt lat="45.15742" lon="5.69571">
        <ele>246.60000610352</ele>
        <time>2015-03-31T11:26:03.000Z</time>
      </trkpt>
      <trkpt lat="45.15747" lon="5.69572">
        <ele>246</ele>
        <time>2015-03-31T11:26:05.000Z</time>
      </trkpt>
      <trkpt lat="45.15753" lon="5.69573">
        <ele>245.19999694824</ele>
        <time>2015-03-31T11:26:07.000Z</time>
      </trkpt>
      <trkpt lat="45.15758" lon="5.69573">
        <ele>244.80000305176</ele>
        <time>2015-03-31T11:26:09.000Z</time>
      </trkpt>
      <trkpt lat="45.15765" lon="5.69575">
        <ele>244.19999694824</ele>
        <time>2015-03-31T11:26:11.000Z</time>
      </trkpt>
      <trkpt lat="45.15771" lon="5.69575">
        <ele>243.60000610352</ele>
        <time>2015-03-31T11:26:13.000Z</time>
      </trkpt>
      <trkpt lat="45.15777" lon="5.69576">
        <ele>243</ele>
        <time>2015-03-31T11:26:15.000Z</time>
      </trkpt>
      <trkpt lat="45.15783" lon="5.69576">
        <ele>242.39999389648</ele>
        <time>2015-03-31T11:26:17.000Z</time>
      </trkpt>
      <trkpt lat="45.15789" lon="5.69577">
        <ele>242</ele>
        <time>2015-03-31T11:26:19.000Z</time>
      </trkpt>
      <trkpt lat="45.15795" lon="5.69577">
        <ele>241.60000610352</ele>
        <time>2015-03-31T11:26:21.000Z</time>
      </trkpt>
      <trkpt lat="45.15804" lon="5.69578">
        <ele>241</ele>
        <time>2015-03-31T11:26:24.000Z</time>
      </trkpt>
      <trkpt lat="45.1581" lon="5.69578">
        <ele>240.39999389648</ele>
        <time>2015-03-31T11:26:26.000Z</time>
      </trkpt>
      <trkpt lat="45.15816" lon="5.69579">
        <ele>240</ele>
        <time>2015-03-31T11:26:28.000Z</time>
      </trkpt>
      <trkpt lat="45.15821" lon="5.6958">
        <ele>239.60000610352</ele>
        <time>2015-03-31T11:26:30.000Z</time>
      </trkpt>
      <trkpt lat="45.15827" lon="5.69581">
        <ele>239.39999389648</ele>
        <time>2015-03-31T11:26:32.000Z</time>
      </trkpt>
      <trkpt lat="45.15833" lon="5.69582">
        <ele>239.19999694824</ele>
        <time>2015-03-31T11:26:34.000Z</time>
      </trkpt>
      <trkpt lat="45.15838" lon="5.69583">
        <ele>239</ele>
        <time>2015-03-31T11:26:36.000Z</time>
      </trkpt>
      <trkpt lat="45.15845" lon="5.69584">
        <ele>238.80000305176</ele>
        <time>2015-03-31T11:26:38.000Z</time>
      </trkpt>
      <trkpt lat="45.15851" lon="5.69586">
        <ele>238.60000610352</ele>
        <time>2015-03-31T11:26:40.000Z</time>
      </trkpt>
      <trkpt lat="45.15857" lon="5.69587">
        <ele>238.39999389648</ele>
        <time>2015-03-31T11:26:42.000Z</time>
      </trkpt>
      <trkpt lat="45.15864" lon="5.69588">
        <ele>238</ele>
        <time>2015-03-31T11:26:44.000Z</time>
      </trkpt>
      <trkpt lat="45.1587" lon="5.69589">
        <ele>237.60000610352</ele>
        <time>2015-03-31T11:26:46.000Z</time>
      </trkpt>
      <trkpt lat="45.15875" lon="5.69592">
        <ele>237.19999694824</ele>
        <time>2015-03-31T11:26:48.000Z</time>
      </trkpt>
      <trkpt lat="45.1588" lon="5.69596">
        <ele>237</ele>
        <time>2015-03-31T11:26:50.000Z</time>
      </trkpt>
      <trkpt lat="45.15883" lon="5.696">
        <ele>237</ele>
        <time>2015-03-31T11:26:51.000Z</time>
      </trkpt>
      <trkpt lat="45.15884" lon="5.69605">
        <ele>236.80000305176</ele>
        <time>2015-03-31T11:26:52.000Z</time>
      </trkpt>
      <trkpt lat="45.15884" lon="5.69609">
        <ele>236.80000305176</ele>
        <time>2015-03-31T11:26:53.000Z</time>
      </trkpt>
      <trkpt lat="45.15885" lon="5.69619">
        <ele>236.60000610352</ele>
        <time>2015-03-31T11:26:55.000Z</time>
      </trkpt>
      <trkpt lat="45.15885" lon="5.69629">
        <ele>236.60000610352</ele>
        <time>2015-03-31T11:26:57.000Z</time>
      </trkpt>
      <trkpt lat="45.15885" lon="5.69638">
        <ele>236.39999389648</ele>
        <time>2015-03-31T11:26:59.000Z</time>
      </trkpt>
      <trkpt lat="45.15885" lon="5.69648">
        <ele>236.39999389648</ele>
        <time>2015-03-31T11:27:01.000Z</time>
      </trkpt>
      <trkpt lat="45.15885" lon="5.69657">
        <ele>236.39999389648</ele>
        <time>2015-03-31T11:27:03.000Z</time>
      </trkpt>
      <trkpt lat="45.15884" lon="5.69666">
        <ele>236.19999694824</ele>
        <time>2015-03-31T11:27:05.000Z</time>
      </trkpt>
      <trkpt lat="45.15883" lon="5.69675">
        <ele>236.19999694824</ele>
        <time>2015-03-31T11:27:07.000Z</time>
      </trkpt>
      <trkpt lat="45.15882" lon="5.69684">
        <ele>236.19999694824</ele>
        <time>2015-03-31T11:27:09.000Z</time>
      </trkpt>
      <trkpt lat="45.15881" lon="5.69692">
        <ele>236.19999694824</ele>
        <time>2015-03-31T11:27:11.000Z</time>
      </trkpt>
      <trkpt lat="45.1588" lon="5.697">
        <ele>236.19999694824</ele>
        <time>2015-03-31T11:27:13.000Z</time>
      </trkpt>
      <trkpt lat="45.15879" lon="5.69709">
        <ele>236.19999694824</ele>
        <time>2015-03-31T11:27:15.000Z</time>
      </trkpt>
      <trkpt lat="45.15878" lon="5.69718">
        <ele>236.19999694824</ele>
        <time>2015-03-31T11:27:17.000Z</time>
      </trkpt>
      <trkpt lat="45.15877" lon="5.69726">
        <ele>236.19999694824</ele>
        <time>2015-03-31T11:27:19.000Z</time>
      </trkpt>
      <trkpt lat="45.15876" lon="5.69734">
        <ele>236.19999694824</ele>
        <time>2015-03-31T11:27:21.000Z</time>
      </trkpt>
      <trkpt lat="45.15874" lon="5.69743">
        <ele>236.39999389648</ele>
        <time>2015-03-31T11:27:23.000Z</time>
      </trkpt>
      <trkpt lat="45.15872" lon="5.69745">
        <ele>236.60000610352</ele>
        <time>2015-03-31T11:27:24.000Z</time>
      </trkpt>
      <trkpt lat="45.1587" lon="5.69755">
        <ele>237</ele>
        <time>2015-03-31T11:27:27.000Z</time>
      </trkpt>
      <trkpt lat="45.1587" lon="5.69764">
        <ele>237.19999694824</ele>
        <time>2015-03-31T11:27:29.000Z</time>
      </trkpt>
      <trkpt lat="45.15868" lon="5.69773">
        <ele>237.39999389648</ele>
        <time>2015-03-31T11:27:31.000Z</time>
      </trkpt>
      <trkpt lat="45.15867" lon="5.69784">
        <ele>237.60000610352</ele>
        <time>2015-03-31T11:27:33.000Z</time>
      </trkpt>
      <trkpt lat="45.15866" lon="5.69794">
        <ele>238</ele>
        <time>2015-03-31T11:27:35.000Z</time>
      </trkpt>
      <trkpt lat="45.15866" lon="5.69798">
        <ele>238.19999694824</ele>
        <time>2015-03-31T11:27:36.000Z</time>
      </trkpt>
      <trkpt lat="45.15868" lon="5.6981">
        <ele>238.80000305176</ele>
        <time>2015-03-31T11:27:39.000Z</time>
      </trkpt>
      <trkpt lat="45.15869" lon="5.69814">
        <ele>239</ele>
        <time>2015-03-31T11:27:40.000Z</time>
      </trkpt>
      <trkpt lat="45.15875" lon="5.69824">
        <ele>239.19999694824</ele>
        <time>2015-03-31T11:27:43.000Z</time>
      </trkpt>
      <trkpt lat="45.15877" lon="5.69828">
        <ele>239.39999389648</ele>
        <time>2015-03-31T11:27:44.000Z</time>
      </trkpt>
      <trkpt lat="45.15883" lon="5.69838">
        <ele>239.60000610352</ele>
        <time>2015-03-31T11:27:47.000Z</time>
      </trkpt>
      <trkpt lat="45.15888" lon="5.69844">
        <ele>239.60000610352</ele>
        <time>2015-03-31T11:27:49.000Z</time>
      </trkpt>
      <trkpt lat="45.15893" lon="5.69849">
        <ele>239.80000305176</ele>
        <time>2015-03-31T11:27:51.000Z</time>
      </trkpt>
      <trkpt lat="45.15898" lon="5.69854">
        <ele>239.80000305176</ele>
        <time>2015-03-31T11:27:53.000Z</time>
      </trkpt>
      <trkpt lat="45.15903" lon="5.69861">
        <ele>239.80000305176</ele>
        <time>2015-03-31T11:27:55.000Z</time>
      </trkpt>
      <trkpt lat="45.1591" lon="5.6987">
        <ele>240</ele>
        <time>2015-03-31T11:27:57.000Z</time>
      </trkpt>
      <trkpt lat="45.15913" lon="5.69874">
        <ele>240</ele>
        <time>2015-03-31T11:27:58.000Z</time>
      </trkpt>
      <trkpt lat="45.15924" lon="5.69869">
        <ele>240</ele>
        <time>2015-03-31T11:28:01.000Z</time>
      </trkpt>
      <trkpt lat="45.1593" lon="5.69869">
        <ele>240</ele>
        <time>2015-03-31T11:28:03.000Z</time>
      </trkpt>
      <trkpt lat="45.15938" lon="5.69868">
        <ele>240</ele>
        <time>2015-03-31T11:28:06.000Z</time>
      </trkpt>
      <trkpt lat="45.15944" lon="5.69867">
        <ele>240</ele>
        <time>2015-03-31T11:28:08.000Z</time>
      </trkpt>
      <trkpt lat="45.15949" lon="5.69867">
        <ele>240.19999694824</ele>
        <time>2015-03-31T11:28:10.000Z</time>
      </trkpt>
      <trkpt lat="45.15955" lon="5.69867">
        <ele>240.19999694824</ele>
        <time>2015-03-31T11:28:12.000Z</time>
      </trkpt>
      <trkpt lat="45.15958" lon="5.69867">
        <ele>240.19999694824</ele>
        <time>2015-03-31T11:28:13.000Z</time>
      </trkpt>
      <trkpt lat="45.15964" lon="5.69869">
        <ele>240.19999694824</ele>
        <time>2015-03-31T11:28:15.000Z</time>
      </trkpt>
      <trkpt lat="45.1597" lon="5.69871">
        <ele>240.19999694824</ele>
        <time>2015-03-31T11:28:17.000Z</time>
      </trkpt>
      <trkpt lat="45.15976" lon="5.69874">
        <ele>240.19999694824</ele>
        <time>2015-03-31T11:28:19.000Z</time>
      </trkpt>
      <trkpt lat="45.15979" lon="5.69875">
        <ele>240.19999694824</ele>
        <time>2015-03-31T11:28:20.000Z</time>
      </trkpt>
    </trkseg>
  </trk>
</gpx>